[[{"header":{"parameterUnit":"m.s-1","parameterCategory":1,"la1":30.6,"la2":28.766,"lo1":-90.7593,"lo2":-88.6598,"dy":0.0162,"dx":0.0183,"nx":116,"ny":114,"refTime":"2023-08-22T12:00:00:Z","depth":0,"parameterNumber":2,"parameterNumberName":"U-component_of_WINDS"},"data":[0.0,0.0,0.0,0.0,0.0,0.0,0.0,0.0,0.0,0.0,0.0,0.0,0.0,0.0,0.0,0.0,0.0,0.0,0.0,0.0,0.0,0.0,0.0,0.0,0.0,0.0,0.0,0.0,0.0,0.0,0.0,0.0,0.0,0.0,0.0,0.0,0.0,0.0,0.0,0.0,0.0,0.0,0.0,0.0,0.0,0.0,0.0,0.0,0.0,0.0,0.0,0.0,0.0,0.0,0.0,0.0,0.0,0.0,0.0,0.0,0.0,0.0,0.0,0.0,0.0,0.0,0.0,0.0,0.0,0.0,0.0,0.0,0.0,0.0,0.0,0.0,0.0,0.0,0.0,0.0,0.0,0.0,0.0,0.0,0.0,0.0,0.0,0.0,0.0,0.0,0.0,0.0,0.0,0.0,0.0,0.0,0.0,0.0,0.0,0.0,0.0,0.0,0.0,0.0,0.0,0.0,0.0,0.0,0.0,0.0,0.0,0.0,0.0,0.0,0.0,0.0,0.0,0.0,0.0,0.0,0.0,0.0,0.0,0.0,0.0,0.0,0.0,0.0,0.0,0.0,0.0,0.0,0.0,0.0,0.0,0.0,0.0,0.0,0.0,0.0,0.0,0.0,0.0,0.0,0.0,0.0,0.0,0.0,0.0,0.0,0.0,0.0,0.0,0.0,0.0,0.0,0.0,0.0,0.0,0.0,0.0,0.0,0.0,0.0,0.0,0.0,0.0,0.0,0.0,0.0,0.0,0.0,0.0,0.0,0.0,0.0,0.0,0.0,0.0,0.0,0.0,0.0,0.0,0.0,0.0,0.0,0.0,0.0,0.0,0.0,0.0,0.0,0.0,0.0,0.0,0.0,0.0,0.0,0.0,0.0,0.0,0.0,0.0,0.0,0.0,0.0,0.0,0.0,0.0,0.0,0.0,0.0,0.0,0.0,0.0,0.0,0.0,0.0,0.0,0.0,0.0,0.0,0.0,0.0,0.0,0.0,0.0,0.0,0.0,0.0,0.0,0.0,0.0,0.0,0.0,0.0,0.0,0.0,0.0,0.0,0.0,0.0,0.0,0.0,0.0,0.0,0.0,0.0,0.0,0.0,0.0,0.0,0.0,0.0,0.0,0.0,0.0,0.0,0.0,0.0,0.0,0.0,0.0,0.0,0.0,0.0,0.0,0.0,0.0,0.0,0.0,0.0,0.0,0.0,0.0,0.0,0.0,0.0,0.0,0.0,0.0,0.0,0.0,0.0,0.0,0.0,0.0,0.0,0.0,0.0,0.0,0.0,0.0,0.0,0.0,0.0,0.0,0.0,0.0,0.0,0.0,0.0,0.0,0.0,0.0,0.0,0.0,0.0,0.0,0.0,0.0,0.0,0.0,0.0,0.0,0.0,0.0,0.0,0.0,0.0,0.0,0.0,0.0,0.0,0.0,0.0,0.0,0.0,0.0,0.0,0.0,0.0,0.0,0.0,0.0,0.0,0.0,0.0,0.0,0.0,0.0,0.0,0.0,0.0,0.0,0.0,0.0,0.0,0.0,0.0,0.0,0.0,0.0,0.0,0.0,0.0,0.0,0.0,0.0,0.0,0.0,0.0,0.0,0.0,0.0,0.0,0.0,0.0,0.0,0.0,0.0,0.0,0.0,0.0,0.0,0.0,0.0,0.0,0.0,0.0,0.0,0.0,0.0,0.0,0.0,0.0,0.0,0.0,0.0,0.0,0.0,0.0,0.0,0.0,0.0,0.0,0.0,0.0,0.0,0.0,0.0,0.0,0.0,0.0,0.0,0.0,0.0,0.0,0.0,0.0,0.0,0.0,0.0,0.0,0.0,0.0,0.0,0.0,0.0,0.0,0.0,0.0,0.0,0.0,0.0,0.0,0.0,0.0,0.0,0.0,0.0,0.0,0.0,0.0,0.0,0.0,0.0,0.0,0.0,0.0,0.0,0.0,0.0,0.0,0.0,0.0,0.0,0.0,0.0,0.0,0.0,0.0,0.0,0.0,0.0,0.0,0.0,0.0,0.0,0.0,0.0,0.0,0.0,0.0,0.0,0.0,0.0,0.0,0.0,0.0,0.0,0.0,0.0,0.0,0.0,0.0,0.0,0.0,0.0,0.0,0.0,0.0,0.0,0.0,0.0,0.0,0.0,0.0,0.0,0.0,0.0,0.0,0.0,0.0,0.0,0.0,0.0,0.0,0.0,0.0,0.0,0.0,0.0,0.0,0.0,0.0,0.0,0.0,0.0,0.0,0.0,0.0,0.0,0.0,0.0,0.0,0.0,0.0,0.0,0.0,0.0,0.0,0.0,0.0,0.0,0.0,0.0,0.0,0.0,0.0,0.0,0.0,0.0,0.0,0.0,0.0,0.0,0.0,0.0,0.0,0.0,0.0,0.0,0.0,0.0,0.0,0.0,0.0,0.0,0.0,0.0,0.0,0.0,0.0,0.0,0.0,0.0,0.0,0.0,0.0,0.0,0.0,0.0,0.0,0.0,0.0,0.0,0.0,0.0,0.0,0.0,0.0,0.0,0.0,0.0,0.0,0.0,0.0,0.0,0.0,0.0,0.0,0.0,0.0,0.0,0.0,0.0,0.0,0.0,0.0,0.0,0.0,0.0,0.0,0.0,0.0,0.0,0.0,0.0,0.0,0.0,0.0,0.0,0.0,0.0,0.0,0.0,0.0,0.0,0.0,0.0,0.0,0.0,0.0,0.0,0.0,0.0,0.0,0.0,0.0,0.0,0.0,0.0,0.0,0.0,0.0,0.0,0.0,0.0,0.0,0.0,0.0,0.0,0.0,0.0,0.0,0.0,0.0,0.0,0.0,0.0,0.0,0.0,0.0,0.0,0.0,0.0,0.0,0.0,0.0,0.0,0.0,0.0,0.0,0.0,0.0,0.0,0.0,0.0,0.0,0.0,0.0,0.0,0.0,0.0,0.0,0.0,0.0,0.0,0.0,0.0,0.0,0.0,0.0,0.0,0.0,0.0,0.0,0.0,0.0,0.0,0.0,0.0,0.0,0.0,0.0,0.0,0.0,0.0,0.0,0.0,0.0,0.0,0.0,0.0,0.0,0.0,0.0,0.0,0.0,0.0,0.0,0.0,0.0,0.0,0.0,0.0,0.0,0.0,0.0,0.0,0.0,0.0,0.0,0.0,0.0,0.0,0.0,0.0,0.0,0.0,0.0,0.0,0.0,0.0,0.0,0.0,0.0,0.0,0.0,0.0,0.0,0.0,0.0,0.0,0.0,0.0,0.0,0.0,0.0,0.0,0.0,0.0,0.0,0.0,0.0,0.0,0.0,0.0,0.0,0.0,0.0,0.0,0.0,0.0,0.0,0.0,0.0,0.0,0.0,0.0,0.0,0.0,0.0,0.0,0.0,0.0,0.0,0.0,0.0,0.0,0.0,0.0,0.0,0.0,0.0,0.0,0.0,0.0,0.0,0.0,0.0,0.0,0.0,0.0,0.0,0.0,0.0,0.0,0.0,0.0,0.0,0.0,0.0,0.0,0.0,0.0,0.0,0.0,0.0,0.0,0.0,0.0,0.0,0.0,0.0,0.0,0.0,0.0,0.0,0.0,0.0,0.0,0.0,0.0,0.0,0.0,0.0,0.0,0.0,0.0,0.0,0.0,0.0,0.0,0.0,0.0,0.0,0.0,0.0,0.0,0.0,0.0,0.0,0.0,0.0,0.0,0.0,0.0,0.0,0.0,0.0,0.0,0.0,0.0,0.0,0.0,0.0,0.0,0.0,0.0,0.0,0.0,0.0,0.0,0.0,0.0,0.0,0.0,0.0,0.0,0.0,0.0,0.0,0.0,0.0,0.0,0.0,0.0,0.0,0.0,0.0,0.0,0.0,0.0,0.0,0.0,0.0,0.0,0.0,0.0,0.0,0.0,0.0,0.0,0.0,0.0,0.0,0.0,0.0,0.0,0.0,0.0,0.0,0.0,0.0,0.0,0.0,0.0,0.0,0.0,0.0,0.0,0.0,0.0,0.0,0.0,0.0,0.0,0.0,0.0,0.0,0.0,0.0,0.0,0.0,0.0,0.0,0.0,0.0,0.0,0.0,0.0,0.0,0.0,0.0,0.0,0.0,0.0,0.0,0.0,0.0,0.0,0.0,0.0,0.0,0.0,0.0,0.0,0.0,0.0,0.0,0.0,0.0,0.0,0.0,0.0,0.0,0.0,0.0,0.0,0.0,0.0,0.0,0.0,0.0,0.0,0.0,0.0,0.0,0.0,0.0,0.0,0.0,0.0,0.0,0.0,0.0,0.0,0.0,0.0,0.0,0.0,0.0,0.0,0.0,0.0,0.0,0.0,0.0,0.0,0.0,0.0,0.0,0.0,0.0,0.0,0.0,0.0,0.0,0.0,0.0,0.0,0.0,0.0,0.0,0.0,0.0,0.0,0.0,0.0,0.0,0.0,0.0,0.0,0.0,0.0,0.0,0.0,0.0,0.0,0.0,0.0,0.0,0.0,0.0,0.0,0.0,0.0,0.0,0.0,0.0,0.0,0.0,0.0,0.0,0.0,0.0,0.0,0.0,0.0,0.0,0.0,0.0,0.0,0.0,0.0,0.0,0.0,0.0,0.0,0.0,0.0,0.0,0.0,0.0,0.0,0.0,0.0,0.0,0.0,0.0,0.0,0.0,0.0,0.0,0.0,0.0,0.0,0.0,0.0,0.0,0.0,0.0,0.0,0.0,0.0,0.0,0.0,0.0,0.0,0.0,0.0,0.0,0.0,0.0,0.0,0.0,0.0,0.0,0.0,0.0,0.0,0.0,0.0,0.0,0.0,0.0,0.0,0.0,0.0,0.0,0.0,0.0,0.0,0.0,0.0,0.0,0.0,0.0,0.0,0.0,0.0,0.0,0.0,0.0,0.0,0.0,0.0,0.0,0.0,0.0,0.0,0.0,0.0,0.0,0.0,0.0,0.0,0.0,0.0,0.0,0.0,0.0,0.0,0.0,0.0,0.0,0.0,0.0,0.0,0.0,0.0,0.0,0.0,0.0,0.0,0.0,0.0,0.0,0.0,0.0,0.0,0.0,0.0,0.0,0.0,0.0,0.0,0.0,0.0,0.0,0.0,0.0,0.0,0.0,0.0,0.0,0.0,0.0,0.0,0.0,0.0,0.0,0.0,0.0,0.0,0.0,0.0,0.0,0.0,0.0,0.0,0.0,0.0,0.0,0.0,0.0,0.0,0.0,0.0,0.0,0.0,0.0,0.0,0.0,0.0,0.0,0.0,0.0,0.0,0.0,0.0,0.0,0.0,0.0,0.0,0.0,0.0,0.0,0.0,0.0,0.0,0.0,0.0,0.0,0.0,0.0,0.0,0.0,0.0,0.0,0.0,0.0,0.0,0.0,0.0,0.0,0.0,0.0,0.0,0.0,0.0,0.0,0.0,0.0,0.0,0.0,0.0,0.0,0.0,0.0,0.0,0.0,0.0,0.0,0.0,0.0,0.0,0.0,0.0,0.0,0.0,0.0,0.0,0.0,0.0,0.0,0.0,0.0,0.0,0.0,0.0,0.0,0.0,0.0,0.0,0.0,0.0,0.0,0.0,0.0,0.0,0.0,0.0,0.0,0.0,0.0,0.0,0.0,0.0,0.0,0.0,0.0,0.0,0.0,0.0,0.0,0.0,0.0,0.0,0.0,0.0,0.0,0.0,0.0,0.0,0.0,0.0,0.0,0.0,0.0,0.0,0.0,0.0,0.0,0.0,0.0,0.0,0.0,0.0,0.0,0.0,0.0,0.0,0.0,0.0,0.0,0.0,0.0,0.0,0.0,0.0,0.0,0.0,0.0,0.0,0.0,0.0,0.0,0.0,0.0,0.0,0.0,0.0,0.0,0.0,0.0,0.0,0.0,0.0,0.0,0.0,0.0,0.0,0.0,0.0,0.0,0.0,0.0,0.0,0.0,0.0,0.0,0.0,0.0,0.0,0.0,0.0,0.0,0.0,0.0,0.0,0.0,0.0,0.0,0.0,0.0,0.0,0.0,0.0,0.0,0.0,0.0,0.0,0.0,0.0,0.0,0.0,0.0,0.0,0.0,0.0,0.0,0.0,0.0,0.0,0.0,0.0,0.0,2.9302,2.9004,0.0,0.0,0.0,0.0,0.0,0.0,0.0,0.0,0.0,0.0,0.0,0.0,0.0,0.0,0.0,0.0,0.0,0.0,0.0,0.0,0.0,0.0,0.0,0.0,0.0,0.0,0.0,0.0,0.0,0.0,0.0,0.0,0.0,0.0,0.0,0.0,0.0,0.0,0.0,0.0,0.0,0.0,0.0,0.0,0.0,0.0,0.0,0.0,0.0,0.0,0.0,0.0,0.0,0.0,0.0,0.0,0.0,0.0,0.0,0.0,0.0,0.0,0.0,0.0,0.0,0.0,0.0,0.0,0.0,0.0,0.0,0.0,0.0,0.0,0.0,0.0,0.0,0.0,0.0,0.0,0.0,0.0,0.0,0.0,0.0,0.0,0.0,0.0,0.0,0.0,0.0,0.0,0.0,0.0,0.0,0.0,0.0,0.0,0.0,0.0,0.0,0.0,0.0,0.0,0.0,0.0,0.0,0.0,0.0,0.0,0.0,0.0,0.0,0.0,3.0657,3.0135,0.0,0.0,0.0,0.0,0.0,0.0,0.0,0.0,0.0,0.0,0.0,0.0,0.0,0.0,0.0,0.0,0.0,0.0,0.0,0.0,0.0,0.0,0.0,0.0,0.0,0.0,0.0,0.0,0.0,0.0,0.0,0.0,0.0,0.0,0.0,0.0,0.0,0.0,0.0,0.0,0.0,0.0,0.0,0.0,0.0,0.0,0.0,0.0,0.0,0.0,0.0,0.0,0.0,0.0,0.0,0.0,0.0,0.0,0.0,0.0,0.0,0.0,0.0,0.0,0.0,0.0,0.0,0.0,0.0,0.0,0.0,0.0,0.0,0.0,0.0,0.0,0.0,0.0,0.0,0.0,0.0,0.0,0.0,0.0,0.0,0.0,0.0,0.0,0.0,0.0,0.0,0.0,0.0,0.0,0.0,0.0,0.0,0.0,0.0,0.0,0.0,0.0,0.0,0.0,0.0,0.0,0.0,0.0,3.218,3.211,3.2771,3.2675,3.2616,3.2522,3.1904,3.1263,3.0689,3.1339,0.0,0.0,0.0,0.0,0.0,0.0,0.0,0.0,0.0,0.0,0.0,0.0,0.0,0.0,0.0,0.0,0.0,0.0,0.0,0.0,0.0,0.0,0.0,0.0,0.0,0.0,0.0,0.0,0.0,0.0,0.0,0.0,0.0,0.0,0.0,0.0,0.0,0.0,3.1499,3.1507,3.1796,3.2289,3.1513,0.0,0.0,0.0,0.0,0.0,0.0,0.0,0.0,0.0,0.0,0.0,0.0,0.0,0.0,0.0,0.0,0.0,0.0,0.0,0.0,0.0,0.0,0.0,0.0,0.0,0.0,0.0,0.0,0.0,0.0,0.0,0.0,0.0,0.0,0.0,0.0,0.0,0.0,0.0,0.0,0.0,0.0,0.0,3.1603,2.9337,0.0,0.0,0.0,0.0,0.0,0.0,0.0,0.0,0.0,0.0,0.0,0.0,0.0,3.285,3.2771,3.2644,3.2648,3.275,3.3067,3.3149,3.3072,3.3671,3.3826,3.3629,3.3738,0.0,3.2004,3.171,0.0,0.0,0.0,0.0,0.0,0.0,0.0,0.0,0.0,0.0,0.0,0.0,0.0,0.0,0.0,0.0,0.0,0.0,0.0,0.0,0.0,0.0,0.0,0.0,0.0,0.0,0.0,0.0,0.0,0.0,0.0,0.0,0.0,0.0,0.0,0.0,3.1277,3.2499,3.3833,3.3853,3.4045,3.4379,3.3947,3.3051,3.1857,3.1785,0.0,0.0,0.0,0.0,0.0,0.0,0.0,0.0,0.0,0.0,0.0,0.0,0.0,0.0,0.0,0.0,0.0,0.0,0.0,0.0,0.0,0.0,0.0,0.0,0.0,0.0,0.0,0.0,0.0,0.0,0.0,0.0,0.0,0.0,0.0,0.0,0.0,0.0,0.0,3.0505,3.0463,2.8952,2.9472,2.9721,0.0,0.0,0.0,0.0,0.0,0.0,0.0,0.0,0.0,3.2664,3.3419,3.3942,3.4216,3.455,3.4863,3.5183,3.5419,3.5376,3.5132,3.5464,3.5458,3.5202,3.5329,3.5076,3.4454,3.3191,3.2401,3.1997,0.0,0.0,0.0,0.0,3.1855,3.1581,0.0,0.0,0.0,0.0,0.0,0.0,0.0,0.0,0.0,0.0,0.0,0.0,0.0,0.0,0.0,2.4944,0.0,0.0,0.0,0.0,0.0,0.0,0.0,0.0,0.0,0.0,0.0,0.0,3.313,3.4025,3.5289,3.5289,3.5289,3.5304,3.5369,3.4493,3.2976,3.2596,3.2222,0.0,0.0,0.0,0.0,0.0,0.0,0.0,0.0,0.0,0.0,0.0,0.0,0.0,0.0,0.0,0.0,0.0,0.0,0.0,0.0,0.0,0.0,0.0,0.0,0.0,0.0,0.0,0.0,0.0,0.0,0.0,0.0,0.0,0.0,0.0,0.0,0.0,0.0,2.9886,3.0297,2.935,2.9907,3.0335,0.0,0.0,0.0,0.0,0.0,0.0,3.2305,3.3265,3.3808,3.3805,3.4754,3.5388,3.5723,3.6236,3.6708,3.7103,3.6971,3.6825,3.6708,3.6842,3.6804,3.6615,3.6885,3.6867,3.6452,3.4733,3.3658,3.3115,3.3286,3.3332,3.3369,3.3667,3.378,3.3721,0.0,0.0,0.0,0.0,0.0,0.0,0.0,0.0,0.0,0.0,0.0,0.0,0.0,0.0,2.5094,2.5094,2.5267,2.5077,0.0,0.0,0.0,0.0,0.0,0.0,0.0,0.0,0.0,3.3242,3.4168,3.4659,3.4734,3.4734,3.4734,3.4754,3.4999,3.4327,3.306,3.3843,3.3261,3.1806,0.0,0.0,0.0,0.0,0.0,0.0,0.0,0.0,0.0,0.0,0.0,0.0,0.0,0.0,0.0,0.0,0.0,0.0,0.0,0.0,0.0,0.0,0.0,0.0,0.0,0.0,0.0,0.0,0.0,0.0,0.0,0.0,0.0,0.0,0.0,0.0,0.0,0.0,0.0,3.1999,3.2532,0.0,0.0,0.0,0.0,3.3018,3.3115,3.314,3.3133,3.4639,3.5484,3.5489,3.7012,3.767,3.7394,3.7162,3.7074,3.709,3.6578,3.6481,3.6714,3.722,3.7452,3.7489,3.8526,3.8376,3.7342,3.5956,3.5386,3.5325,3.5145,3.507,3.511,3.5461,3.5577,3.5441,0.0,0.0,0.0,0.0,0.0,0.0,0.0,0.0,0.0,0.0,0.0,0.0,0.0,2.5312,2.5991,2.5991,2.6588,2.6609,2.577,0.0,0.0,0.0,0.0,0.0,0.0,0.0,3.295,3.3881,3.4433,3.4697,3.4699,3.4696,3.4689,3.4717,3.4811,3.4566,3.4101,3.423,3.3952,3.3376,3.288,3.2357,0.0,0.0,0.0,0.0,0.0,0.0,0.0,0.0,0.0,0.0,0.0,0.0,0.0,0.0,0.0,0.0,0.0,0.0,0.0,0.0,0.0,0.0,0.0,0.0,0.0,0.0,0.0,0.0,0.0,0.0,0.0,0.0,0.0,0.0,0.0,0.0,0.0,3.2839,3.3439,0.0,3.286,3.2767,3.3102,3.3921,3.4446,3.4969,3.5489,3.6555,3.7147,3.7147,3.7504,3.8151,3.9166,3.8866,3.9263,4.0321,4.0115,3.9978,3.9871,4.0038,4.0018,3.9845,4.0228,4.016,3.979,3.9313,3.7881,3.6049,3.6314,3.6309,3.6247,3.692,3.7044,3.6851,0.0,0.0,0.0,0.0,0.0,0.0,0.0,0.0,0.0,0.0,0.0,2.4557,2.4818,2.5854,2.6558,2.6558,2.713,2.7185,2.6481,0.0,0.0,0.0,0.0,0.0,0.0,3.256,3.3451,3.4072,3.4282,3.4386,3.4402,3.4405,3.4404,3.4399,3.4498,3.4529,3.4534,3.4456,3.4501,3.4513,3.3778,3.3015,3.228,0.0,0.0,0.0,0.0,0.0,0.0,0.0,0.0,0.0,0.0,0.0,0.0,0.0,0.0,0.0,0.0,0.0,0.0,0.0,0.0,0.0,0.0,0.0,0.0,0.0,0.0,0.0,0.0,0.0,0.0,0.0,0.0,0.0,0.0,3.287,3.3422,3.3217,3.4101,3.4543,3.4061,3.4256,3.4745,3.5552,3.6104,3.6772,3.7613,3.8396,3.8939,3.9112,3.9291,3.9834,4.0777,4.0653,4.1094,4.2095,4.1989,4.1807,4.1595,4.1765,4.1717,4.1534,4.1791,4.1772,4.1515,4.1515,4.0102,3.7989,3.8571,3.8691,3.8633,3.9428,3.9567,3.9331,0.0,0.0,0.0,0.0,0.0,0.0,0.0,0.0,0.0,0.0,2.4471,2.5082,2.5805,2.6383,2.6691,2.6691,2.6691,2.6584,2.6328,2.6318,0.0,0.0,0.0,0.0,3.1302,3.2381,3.3195,3.3807,3.3807,3.3807,3.3807,3.3807,3.3807,3.3852,3.4105,3.4232,3.4293,3.4626,3.4908,3.5066,3.4551,3.3828,3.3044,0.0,0.0,0.0,0.0,0.0,0.0,0.0,0.0,0.0,0.0,0.0,0.0,0.0,0.0,0.0,0.0,0.0,0.0,0.0,0.0,0.0,0.0,0.0,0.0,0.0,0.0,0.0,0.0,0.0,0.0,0.0,0.0,0.0,3.222,3.3423,3.4115,3.3421,3.4726,3.5662,3.5662,3.6392,3.7213,3.8027,3.8104,3.8488,3.9354,4.0142,4.0797,4.13,4.2467,4.2757,4.217,4.2452,4.2471,4.2184,4.1827,4.1651,4.1696,4.2134,4.2341,4.2378,4.3149,4.3057,4.2341,4.2341,4.1882,4.1232,4.1863,4.2084,4.2181,4.2814,4.3104,4.2854,0.0,0.0,0.0,0.0,0.0,0.0,0.0,0.0,0.0,0.0,2.4471,2.5082,2.5805,2.6383,2.6691,2.6691,2.6691,2.674,2.6857,0.0,0.0,0.0,0.0,0.0,3.2228,3.3083,3.3615,3.3807,3.3807,3.3807,3.3807,3.3807,3.4109,3.4686,3.476,3.5118,3.5734,3.6019,3.5876,3.5375,3.5015,3.4404,3.3684,0.0,0.0,0.0,0.0,0.0,0.0,0.0,0.0,0.0,0.0,0.0,0.0,0.0,0.0,0.0,0.0,0.0,0.0,0.0,0.0,0.0,0.0,0.0,0.0,0.0,0.0,0.0,0.0,0.0,0.0,0.0,3.4923,3.5526,3.4718,3.5488,3.6243,3.6647,3.707,3.7339,3.7339,3.8108,3.895,3.9738,4.0392,4.1003,4.159,4.1839,4.1909,4.1827,4.2185,4.2674,4.3327,4.3175,4.3497,4.4258,4.3642,4.3346,4.3334,4.3221,4.3167,4.3167,4.3387,4.3369,4.3167,4.3167,4.3039,4.2776,4.2021,4.1735,4.1807,4.2436,4.2851,4.3028,0.0,0.0,0.0,0.0,0.0,0.0,0.0,0.0,0.0,0.0,2.4445,2.5081,2.6124,2.6504,2.6691,2.6691,2.6791,2.6836,2.6764,0.0,0.0,0.0,0.0,3.261,3.3081,3.355,3.3807,3.3807,3.3807,3.3807,3.3807,3.4127,3.454,3.5018,3.5375,3.5816,3.6305,3.6454,3.6258,3.5829,3.5788,3.5021,3.3934,3.4206,3.3801,3.3102,3.3102,3.3102,3.3035,3.2561,0.0,0.0,0.0,0.0,0.0,0.0,0.0,0.0,0.0,0.0,0.0,0.0,0.0,0.0,0.0,0.0,0.0,0.0,0.0,0.0,0.0,0.0,0.0,0.0,3.6323,3.7294,3.7171,3.7247,3.7478,3.795,3.8623,3.9046,3.9046,4.0162,4.1085,4.1546,4.1888,4.2355,4.3018,4.2908,4.2829,4.2827,4.3177,4.3545,4.3876,4.3999,4.4245,4.4638,4.4186,4.3924,4.3772,4.3597,4.3497,4.3497,4.3497,4.3497,4.3497,4.3497,4.3497,4.3456,0.0,0.0,0.0,0.0,4.358,4.3605,0.0,0.0,0.0,0.0,0.0,0.0,0.0,0.0,0.0,0.0,0.0,2.5082,2.6522,2.6691,2.6691,2.6691,2.6956,2.6971,0.0,0.0,0.0,3.2292,3.2502,3.2966,3.3788,3.3807,3.3807,3.3807,3.3807,3.3844,3.3954,3.4659,3.5092,3.5329,3.6087,3.6501,3.656,3.656,3.6523,3.646,3.6745,3.5738,3.4155,3.4422,3.4048,3.3371,3.3371,3.3371,3.3362,3.3265,0.0,0.0,0.0,0.0,0.0,0.0,0.0,0.0,0.0,0.0,0.0,0.0,0.0,0.0,0.0,0.0,0.0,0.0,0.0,0.0,0.0,0.0,0.0,0.0,3.7276,3.8654,3.9469,3.8911,3.843,3.843,3.9738,4.0681,4.0777,4.2258,4.3222,4.3186,4.2929,4.309,4.3805,4.3523,0.0,0.0,0.0,4.4732,4.4058,4.4732,4.4688,4.4016,4.3955,4.3772,4.3497,4.3497,4.3497,4.3497,4.3497,4.3497,4.3497,4.3497,4.3497,4.3548,4.3881,4.4016,4.4087,4.483,4.4785,4.4397,0.0,0.0,0.0,0.0,0.0,0.0,0.0,0.0,0.0,2.4089,2.443,2.5082,2.6522,2.6691,2.6691,2.6691,2.6956,2.756,0.0,0.0,3.1837,3.2365,3.3113,3.3615,3.3807,3.3807,3.3807,3.3807,3.3807,3.411,3.4789,3.4935,3.5735,3.7028,3.7211,3.7625,3.8248,3.8248,3.7863,3.7298,3.758,3.6798,3.5531,3.5812,3.555,3.5033,3.5033,3.5033,3.4931,3.4287,3.4504,3.489,3.4097,0.0,0.0,0.0,0.0,0.0,0.0,0.0,0.0,0.0,0.0,0.0,0.0,0.0,0.0,0.0,0.0,0.0,0.0,0.0,0.0,3.6704,3.8593,4.0354,4.12,4.1181,4.1066,4.1066,4.1354,4.1816,4.2527,4.3489,4.396,4.3673,4.4241,4.4412,4.3971,4.3903,4.3908,4.3998,4.4455,4.4631,4.4501,4.4631,4.4455,4.4016,4.3726,0.0,4.3497,4.3497,4.3497,4.3497,4.3497,4.3497,4.3497,4.3497,4.3497,4.3548,4.3881,4.4016,4.4087,4.483,4.5044,4.4973,0.0,0.0,0.0,0.0,0.0,0.0,0.0,0.0,0.0,0.0,2.3658,2.4185,2.5456,2.5527,2.5559,2.5734,2.6296,0.0,0.0,3.0415,3.1624,3.2744,3.3247,3.3578,3.3807,3.3807,3.3807,3.3807,3.3807,3.4009,3.4422,3.5257,3.6101,3.6941,3.7717,3.8315,3.8707,3.8707,3.8469,3.8113,3.8253,3.7726,3.6846,3.6285,3.5932,3.5715,3.5851,3.6086,3.6287,3.6176,3.6213,3.6186,3.5513,3.5225,3.5023,0.0,0.0,0.0,0.0,0.0,0.0,0.0,0.0,0.0,0.0,0.0,0.0,0.0,0.0,3.6424,3.6484,0.0,3.8292,3.8785,4.013,4.145,4.2335,4.245,4.245,4.245,4.2816,4.315,4.3426,4.4362,4.4748,4.4227,4.4602,4.4587,4.4028,4.3849,4.3758,4.3758,4.4106,4.4223,4.4035,4.4223,4.4106,4.3758,4.3563,4.3497,4.3497,4.392,4.4103,4.4103,4.4103,4.4103,4.4066,4.3663,4.3497,4.3513,4.366,4.3974,4.4346,4.4707,4.5074,4.5362,0.0,0.0,0.0,0.0,0.0,0.0,0.0,0.0,0.0,0.0,2.2891,2.3298,2.4346,2.4368,2.4481,0.0,0.0,0.0,0.0,3.0021,3.1207,3.2991,3.3075,3.3214,3.355,3.355,3.355,3.355,3.355,3.3651,3.3954,3.5282,3.6135,3.6586,3.7881,3.8542,3.8707,3.8707,3.8707,3.8707,3.8707,3.8354,3.7708,3.6625,3.6167,3.6166,3.6388,3.6557,3.6816,3.7577,3.7432,3.6909,3.673,3.6559,3.6119,3.4706,3.4353,0.0,0.0,0.0,0.0,0.0,0.0,0.0,0.0,3.5537,3.6023,3.7279,3.7725,3.7899,3.8025,3.8794,3.9615,4.0326,4.1357,4.2354,4.3201,4.3282,4.3305,4.3478,4.3901,4.4173,4.4048,4.4861,4.5161,4.4527,4.4474,4.429,4.3924,4.3646,4.3513,4.3597,4.3849,4.3881,4.3597,4.4029,4.4059,4.3736,4.3883,4.3956,4.3975,4.4635,4.4947,4.4947,4.4947,4.4947,4.4892,4.4232,4.3864,4.3718,4.3718,4.4048,4.4474,4.4474,4.4877,4.5419,0.0,0.0,0.0,0.0,0.0,0.0,0.0,0.0,0.0,0.0,0.0,0.0,0.0,0.0,0.0,0.0,0.0,0.0,2.9839,3.1359,3.234,3.2583,3.2583,3.2616,3.2648,3.2648,3.2648,3.2648,3.2648,3.323,3.4341,3.4521,3.5605,3.7375,3.7555,3.8044,3.8707,3.8707,3.8707,3.8707,3.8707,3.8242,3.7548,3.7374,3.7166,3.6968,3.6993,3.6251,3.5438,3.6761,3.6841,3.6597,3.7724,3.8099,3.7843,3.6425,0.0,3.3601,3.2205,3.235,3.3069,3.3852,3.4358,3.4885,0.0,3.597,3.6099,3.6546,3.6675,3.6772,3.7094,3.8385,3.9429,3.9525,4.1456,4.3239,4.4047,4.3905,4.4013,4.4777,4.4281,4.4145,4.4887,4.4815,4.4535,4.4087,4.4076,4.3912,4.3563,4.3513,4.3646,4.3924,4.3986,4.3986,4.3955,4.4693,4.4893,4.458,4.5296,4.5626,4.5626,4.5718,4.5773,4.5773,4.5773,4.5773,4.5755,4.5663,4.5204,4.458,4.458,4.4373,4.4076,4.4076,4.4346,4.4757,0.0,0.0,0.0,0.0,0.0,0.0,0.0,0.0,0.0,0.0,0.0,0.0,0.0,0.0,0.0,0.0,0.0,0.0,2.9077,3.0785,3.186,3.2057,3.2332,3.2616,3.2921,3.3136,3.3136,3.2921,3.2921,3.3176,3.3719,3.4189,3.5002,3.608,3.6567,3.6996,3.7308,3.7296,3.7301,3.736,3.7997,3.8025,3.7812,3.8473,3.8646,3.8369,3.6914,3.6319,0.0,0.0,3.6944,3.6746,3.8284,3.8109,3.7188,3.6264,3.5153,3.4264,3.4488,3.4489,3.4579,3.5299,3.5994,3.6512,3.6403,3.6878,3.7517,3.8171,3.8823,3.939,3.9733,4.0765,4.1706,4.2187,4.3107,4.4085,4.4932,4.4766,4.4696,4.5058,4.441,4.406,4.4425,4.4535,4.4364,4.3758,4.3881,4.3849,4.3513,4.3497,4.3563,4.3693,4.4155,4.4413,4.4413,4.5208,4.5528,4.5406,4.5736,4.5902,4.592,4.6379,4.6617,4.6617,4.6617,4.6342,4.5902,4.5902,4.57,4.5406,4.5406,4.5274,4.502,4.4278,4.4261,4.465,0.0,0.0,0.0,0.0,0.0,0.0,0.0,0.0,0.0,0.0,0.0,0.0,0.0,0.0,0.0,0.0,0.0,0.0,0.0,3.0261,3.1433,3.1986,3.2316,3.2648,3.3014,3.3284,3.3284,3.3014,3.3014,3.3075,3.3232,3.381,3.44,3.5028,3.5679,3.608,3.6296,3.6292,3.6295,3.638,3.7456,3.7902,3.8014,3.9161,3.9362,3.8785,3.6901,3.6354,0.0,0.0,3.6149,3.5759,3.7318,3.6988,3.5856,3.5103,3.4358,3.3979,3.5136,3.5631,3.5938,3.6466,3.7357,3.796,3.734,3.8,3.8964,3.9802,4.0783,4.1645,4.2093,4.2854,4.3624,4.4201,4.4489,4.4857,4.538,4.5161,4.4919,4.4806,4.4233,4.3849,4.3849,4.4125,4.4065,4.3548,4.3726,4.3758,4.3513,4.3497,4.3589,4.3809,4.4397,4.4819,4.5039,4.5828,4.6232,4.6232,4.6452,4.6562,4.6581,4.7186,4.7443,4.7443,4.7443,4.7113,4.6562,4.6562,4.6434,4.6232,4.6232,4.6104,4.5791,4.4883,4.4629,4.4775,0.0,0.0,0.0,0.0,0.0,0.0,0.0,0.0,0.0,0.0,0.0,0.0,0.0,0.0,0.0,0.0,0.0,0.0,0.0,3.0402,3.1509,3.2449,3.2484,3.2517,3.2517,3.2517,3.2517,3.2517,3.2517,3.2745,3.3214,3.3232,3.3876,3.5008,3.5026,3.5522,3.6305,3.6305,3.6305,3.6387,3.7461,3.7904,3.8014,3.9161,3.8734,3.7528,3.7171,0.0,0.0,0.0,3.3715,3.2855,3.4201,3.4607,0.0,3.299,3.2201,3.1904,3.2476,3.4169,3.5938,3.6466,3.7654,3.8652,3.8634,3.927,4.0048,4.0728,4.151,4.2284,4.2942,4.372,4.4259,4.4297,4.5009,4.5456,4.5159,4.4825,4.4474,4.4087,4.3726,4.3513,4.3513,4.3513,4.3513,4.3479,4.3513,4.3513,4.3497,4.3497,4.3864,4.4654,4.469,4.5076,4.5865,4.6673,4.7076,4.7095,4.7865,4.8233,4.8233,4.8251,4.8269,4.8269,4.8269,4.8251,4.8233,4.8233,4.7774,4.7076,4.7076,4.6599,4.5902,4.5847,4.5574,4.5121,0.0,0.0,0.0,0.0,0.0,0.0,0.0,0.0,0.0,0.0,0.0,0.0,0.0,0.0,0.0,0.0,0.0,0.0,0.0,2.9746,3.0959,3.1542,3.2478,3.2983,3.2983,3.3225,3.3225,3.2983,3.2983,3.3045,3.3214,3.3214,3.3546,3.4209,3.4209,3.4357,3.4649,3.4649,3.4735,3.5004,3.6133,3.7017,3.7675,3.7623,3.7672,3.7455,0.0,0.0,0.0,3.327,3.2874,3.2721,3.4089,3.3903,3.3009,3.2216,3.2096,3.2603,3.4245,3.5484,3.6603,3.771,3.8732,3.9496,3.9496,4.012,4.0874,4.1569,4.1954,4.2351,4.2979,4.3789,4.4344,4.4314,4.4844,4.5222,4.5137,4.4587,4.4146,4.4016,4.3693,4.3497,4.3497,4.3497,4.3497,4.3497,4.3497,4.3497,4.3497,4.4011,4.4415,4.4709,4.5755,4.6434,4.6709,4.7498,4.7921,4.7921,4.8177,4.8306,4.8306,4.8306,4.8306,4.8306,4.8306,4.8306,4.8306,4.8306,4.8141,4.7921,4.7921,4.7737,4.7443,4.6893,4.6581,4.6316,0.0,0.0,0.0,0.0,0.0,0.0,0.0,0.0,0.0,0.0,0.0,0.0,0.0,0.0,0.0,0.0,0.0,0.0,0.0,0.0,2.9979,3.0928,3.1828,3.2295,3.2295,3.2573,3.2526,3.217,3.2595,3.2798,3.2816,3.3234,3.355,3.3807,3.3807,3.3807,3.3807,3.3807,3.3784,3.3829,3.495,3.5721,3.6157,3.6119,3.6086,0.0,0.0,0.0,0.0,3.1741,3.1691,3.1863,3.2745,3.264,3.2168,3.2029,3.2649,3.3786,3.5603,3.6789,3.7765,3.8854,3.9735,4.0322,4.0322,4.0946,4.1691,4.2229,4.2234,4.2287,4.2795,4.2992,4.3173,4.3429,4.3769,4.4112,4.4445,4.4086,4.3791,4.3812,4.3612,4.3497,4.3497,4.3497,4.3497,4.3497,4.3497,4.3497,4.3497,4.4268,4.4837,4.5131,4.6434,4.726,4.7535,4.8049,4.8306,4.8306,4.8306,4.8306,4.8306,4.8306,4.8306,4.8306,4.8306,4.8306,4.8306,4.8306,4.8306,4.8306,4.8306,4.8306,4.8251,4.7737,4.7535,4.7334,0.0,0.0,0.0,0.0,0.0,0.0,0.0,0.0,0.0,0.0,0.0,0.0,0.0,0.0,0.0,0.0,0.0,0.0,0.0,0.0,0.0,3.0503,3.0639,3.0675,3.0675,3.0675,3.0552,3.0308,3.1462,3.1968,3.1978,3.3077,3.356,3.3523,3.3523,3.356,3.3597,3.3623,3.332,3.2915,3.3952,3.4069,3.3714,3.4645,0.0,0.0,0.0,0.0,0.0,0.0,3.0374,3.0503,3.0542,3.1175,3.1994,3.253,3.3819,3.5306,3.6379,3.7875,3.9268,3.9774,4.0543,4.1167,4.1167,4.1791,4.2437,4.2701,4.2321,4.2006,4.2288,4.1473,4.103,4.1854,4.2059,4.245,4.3342,4.342,4.3434,4.3505,4.3497,4.3497,4.3497,4.3497,4.3497,4.3497,4.3497,4.3516,4.3552,4.4323,4.5131,4.5938,4.6746,4.7535,4.8306,4.8306,4.8306,4.8306,4.8306,4.8306,4.8306,4.8306,4.8306,4.8306,4.8306,4.8306,4.8306,4.8306,4.8306,4.8306,4.8306,4.8306,4.8306,4.8306,4.8306,4.8105,0.0,0.0,0.0,0.0,0.0,0.0,0.0,0.0,0.0,0.0,0.0,0.0,0.0,0.0,0.0,0.0,0.0,0.0,0.0,0.0,0.0,0.0,0.0,0.0,0.0,3.0416,3.0386,3.0308,0.0,3.0487,2.9944,3.0386,3.0279,2.9763,2.9914,3.0358,3.0975,3.0969,3.1396,3.2109,0.0,3.311,3.3576,0.0,0.0,0.0,0.0,0.0,0.0,0.0,0.0,3.3307,3.398,3.417,3.4318,3.5107,3.5735,3.639,3.7322,3.8608,3.9731,3.9877,4.0965,4.1992,4.1992,4.2616,4.3,4.2323,4.1663,4.0975,4.0247,4.0931,4.1647,4.1816,4.3003,4.4023,4.4263,4.3815,4.3486,4.3495,4.3497,4.3497,4.3497,4.3497,4.3497,4.3497,4.3497,4.3754,4.436,4.5168,4.5957,4.6783,4.759,4.8104,4.8306,4.8306,4.8306,4.8306,4.8306,4.8306,4.8306,4.8306,4.8306,4.8306,4.8306,4.8306,4.8306,4.8306,4.8306,4.8306,4.8306,4.8306,4.8306,4.8306,4.8306,4.8233,0.0,0.0,0.0,0.0,0.0,0.0,0.0,0.0,0.0,0.0,0.0,0.0,0.0,0.0,0.0,0.0,0.0,0.0,0.0,0.0,0.0,0.0,0.0,0.0,0.0,2.8903,2.8823,2.8728,0.0,0.0,0.0,2.955,2.9444,2.8766,2.8954,2.9133,2.9322,2.974,0.0,0.0,0.0,0.0,0.0,0.0,0.0,0.0,0.0,0.0,0.0,0.0,0.0,3.4812,3.5339,3.5614,3.5876,3.6464,3.699,3.7561,3.8517,3.9577,4.0506,4.0873,4.1901,4.265,4.2078,4.2295,4.2316,4.1135,4.0102,3.9239,3.8657,3.9473,4.0361,4.0726,4.216,4.3415,4.3995,4.3599,4.3287,4.3477,4.3497,4.3497,4.3497,4.3497,4.3497,4.3497,4.3497,4.3846,4.4672,4.5461,4.6269,4.7095,4.7884,4.8306,4.8306,4.8306,4.8306,4.8306,4.8306,4.8306,4.8306,4.8306,4.8306,4.8306,4.8306,4.8306,4.8306,4.8306,4.8306,4.8306,4.8306,4.8306,4.8306,4.8306,4.8306,4.8306,0.0,0.0,0.0,0.0,0.0,0.0,0.0,0.0,0.0,0.0,0.0,0.0,0.0,0.0,0.0,0.0,0.0,0.0,0.0,0.0,0.0,0.0,0.0,0.0,0.0,2.7053,2.6923,2.6691,0.0,0.0,0.0,0.0,0.0,0.0,0.0,0.0,0.0,0.0,0.0,0.0,0.0,0.0,0.0,0.0,0.0,0.0,0.0,0.0,0.0,0.0,3.6243,3.5955,3.6094,3.6613,3.7194,3.7427,3.7954,3.8681,3.9679,4.0533,4.1342,4.2184,4.2975,4.324,4.188,4.1576,4.112,3.9556,3.8319,3.747,3.7347,3.784,3.8569,3.9484,4.0845,4.217,4.3381,4.322,4.3095,4.3456,4.3497,4.3497,4.3497,4.3497,4.3497,4.3497,4.3497,4.3901,4.4819,4.5516,4.6324,4.7241,4.7957,4.8306,4.8306,4.8306,4.8306,4.8306,4.8306,4.8306,4.8306,4.8306,4.8306,4.8306,4.8306,4.8306,4.8306,4.8306,4.8306,4.8306,4.8306,4.8306,4.8306,4.8306,4.8306,4.8306,0.0,0.0,0.0,0.0,0.0,0.0,0.0,0.0,0.0,0.0,2.279,2.279,0.0,0.0,0.0,0.0,0.0,0.0,0.0,0.0,0.0,0.0,0.0,0.0,2.6741,2.6758,2.6758,2.6691,2.691,0.0,0.0,0.0,0.0,0.0,0.0,0.0,0.0,0.0,0.0,0.0,0.0,0.0,0.0,0.0,0.0,0.0,0.0,0.0,0.0,0.0,3.7444,3.8742,3.9411,3.9572,3.9509,3.9585,3.9475,3.9505,4.0067,4.0866,4.1702,4.2512,4.333,4.3558,4.2216,4.1919,4.113,3.8417,3.7662,3.7163,3.6074,3.767,3.9427,4.02,4.1856,4.3388,4.4271,4.3837,4.3398,4.3495,4.3497,4.3497,4.3497,4.3497,4.3497,4.3497,4.3497,4.414,4.5608,4.581,4.6581,4.8049,4.8233,4.8306,4.8306,4.8306,4.8306,4.8306,4.8306,4.8306,4.8306,4.8306,4.8306,4.8306,4.8306,4.8306,4.8306,4.8306,4.8306,4.8306,4.8306,4.8306,4.8306,4.8306,4.8306,4.8306,0.0,0.0,0.0,0.0,0.0,0.0,0.0,2.3126,2.3217,2.3217,2.3217,2.3126,2.2902,2.2893,2.2893,0.0,0.0,0.0,0.0,0.0,0.0,0.0,0.0,2.5842,2.6311,2.6572,2.6825,2.7135,0.0,2.6589,2.6362,2.633,2.5922,2.5238,2.5552,2.5691,0.0,0.0,0.0,0.0,2.8494,2.8962,0.0,0.0,0.0,0.0,0.0,0.0,0.0,0.0,3.7316,3.9346,4.0219,4.0406,4.0267,4.0139,4.0288,4.0593,4.1111,4.1833,4.2685,4.353,4.4036,4.3716,4.1472,4.0972,4.0089,3.708,3.6489,3.6315,3.5663,3.7681,0.0,3.9874,4.1876,4.3534,4.3863,4.3683,4.3497,4.3497,4.3497,4.3497,4.3497,4.3497,4.3497,4.3497,4.3497,4.4195,4.581,4.6691,4.7498,4.8288,4.8306,4.8306,4.8306,4.8306,4.8306,4.8306,4.8306,4.8306,4.8306,4.8306,4.8306,4.8306,4.8306,4.8306,4.8306,4.8306,4.8306,4.8306,4.8306,4.8306,4.8306,4.8306,4.8306,4.8306,0.0,0.0,0.0,0.0,0.0,0.0,0.0,2.3383,2.3494,2.3494,2.3494,2.3383,2.3052,2.3045,2.3045,0.0,0.0,0.0,0.0,0.0,0.0,0.0,0.0,2.549,2.5987,0.0,0.0,2.7496,2.7103,0.0,0.0,0.0,0.0,0.0,2.6394,2.6132,2.5461,2.6666,0.0,0.0,0.0,2.8815,0.0,0.0,0.0,0.0,0.0,0.0,0.0,0.0,3.6157,3.7923,3.9004,3.9662,3.9973,3.9961,4.0405,4.1055,4.1958,4.2772,4.3629,4.4499,4.4726,4.391,4.0845,4.012,3.9238,3.6161,3.5566,3.5654,3.5828,3.7727,3.9321,0.0,4.1549,4.3084,4.3259,4.3334,4.3395,4.3495,4.3497,4.3497,4.3497,4.3497,4.3497,4.3497,4.3809,4.4562,4.5828,4.7425,4.8306,4.8306,4.8306,4.8251,4.8102,4.8251,4.8139,4.7919,4.8157,4.8251,4.8102,4.8251,4.8306,4.8306,4.8306,4.8306,4.8306,4.8306,4.8306,4.8306,4.8306,4.8306,4.8306,4.8306,4.8306,4.8306,0.0,0.0,0.0,0.0,0.0,0.0,0.0,2.3494,2.3494,2.3494,2.3494,2.3494,2.3448,2.343,2.343,0.0,0.0,0.0,0.0,0.0,0.0,0.0,0.0,0.0,0.0,0.0,0.0,2.7496,2.7465,0.0,0.0,0.0,0.0,0.0,0.0,2.7348,2.7258,2.7607,0.0,0.0,0.0,0.0,0.0,0.0,0.0,0.0,0.0,0.0,0.0,0.0,0.0,3.3578,3.5181,3.6891,3.8464,3.9234,0.0,0.0,4.1914,4.3088,4.3967,4.4843,4.5052,4.4243,4.1219,4.0504,3.9523,3.6257,3.5589,3.5828,3.6632,3.7663,3.8864,4.0249,4.1208,4.2125,4.3164,4.3108,4.3088,4.3456,4.3497,4.3497,4.3497,4.3497,4.3497,4.3497,4.4837,4.5736,4.5883,4.7425,4.8306,4.8306,4.8306,4.8047,4.7476,4.8029,4.7716,4.6574,4.7752,4.8011,4.7494,4.8047,4.8306,4.8306,4.8306,4.8306,4.8306,4.8306,4.8306,4.8306,4.8306,4.8306,4.8306,4.8306,4.8306,4.8306,0.0,0.0,0.0,0.0,0.0,0.0,2.3494,2.3494,2.3494,2.3494,2.3494,2.3494,2.3494,2.3494,2.3494,2.3494,0.0,0.0,0.0,0.0,0.0,0.0,0.0,0.0,0.0,0.0,2.683,2.7911,2.7647,0.0,0.0,0.0,0.0,0.0,0.0,2.7612,2.7522,2.7882,0.0,0.0,0.0,0.0,0.0,0.0,0.0,0.0,0.0,0.0,3.2391,0.0,0.0,0.0,3.3053,3.3895,0.0,0.0,3.9264,4.0492,4.2349,4.3847,4.4959,4.5304,4.4671,4.3361,4.1104,3.9827,3.8472,3.6141,3.5689,3.5828,3.6162,3.7405,3.8559,3.9124,4.0125,4.0946,4.1378,4.1158,4.1304,4.2259,4.2365,4.2649,4.3422,4.3497,4.3497,4.3497,4.4544,4.5406,4.5865,4.7425,4.8306,4.8306,4.7956,4.7642,4.7403,4.7267,4.6873,4.6428,4.6926,4.7007,4.6795,4.7053,4.7145,4.7145,4.7145,4.7145,4.7145,4.7145,4.7145,4.7145,4.7145,4.7403,4.7752,4.7752,4.7992,4.8306,0.0,0.0,0.0,0.0,0.0,2.3494,2.3494,2.3494,2.3494,2.3494,2.3494,2.3494,2.3494,2.3494,2.3494,2.3494,2.3494,0.0,0.0,0.0,0.0,0.0,0.0,0.0,0.0,0.0,2.6775,2.8182,2.7853,2.7795,0.0,0.0,2.7707,2.7707,0.0,0.0,0.0,0.0,0.0,0.0,0.0,0.0,0.0,0.0,0.0,0.0,0.0,0.0,0.0,0.0,0.0,0.0,0.0,0.0,0.0,0.0,3.8445,4.0275,4.2197,4.4124,4.5586,4.5586,4.4386,4.2753,4.1026,3.9367,3.7739,3.6091,3.5785,3.5883,3.6142,3.7402,3.8384,3.8316,3.934,4.0126,4.0206,3.9776,3.9968,4.1236,4.1166,4.1545,4.2803,4.3296,4.3424,4.3296,4.403,4.48,4.5571,4.6782,4.7606,4.8029,4.7421,4.7015,4.6827,4.6534,4.6204,4.5863,4.6257,4.6308,4.6165,4.6309,4.638,4.638,4.638,4.638,4.638,4.638,4.638,4.638,4.638,4.6675,4.7137,4.7335,4.7675,4.8075,0.0,0.0,0.0,0.0,0.0,0.0,2.3494,2.3494,2.3494,2.3494,2.3494,2.3494,2.3494,2.3494,2.3494,2.3494,2.3494,0.0,0.0,0.0,0.0,0.0,0.0,0.0,0.0,0.0,2.6402,2.8182,2.82,2.8182,2.82,2.8182,2.8182,2.8182,0.0,0.0,0.0,0.0,0.0,0.0,0.0,0.0,0.0,0.0,0.0,0.0,0.0,0.0,0.0,0.0,0.0,0.0,0.0,0.0,0.0,0.0,3.6702,3.8676,4.1139,4.3662,4.5586,4.5586,4.4386,4.2768,0.0,0.0,3.7757,3.6211,3.5862,3.6054,3.6941,3.7805,3.8393,3.8316,3.9083,3.982,4.0157,3.9508,3.947,4.0758,4.0203,4.0231,4.1499,4.2768,4.3296,4.2768,4.3442,4.4244,4.4976,4.5224,4.595,4.7366,4.6759,4.6113,4.555,4.6101,4.5806,4.4626,4.584,4.6084,4.5529,4.6157,4.6418,4.6418,4.6418,4.6418,4.6418,4.6418,4.6418,4.6418,4.6418,4.6418,4.6488,4.7168,4.7401,4.747,0.0,0.0,0.0,0.0,0.0,0.0,0.0,2.3494,2.3494,2.3494,2.3494,2.3494,2.3494,2.3494,2.3494,2.3494,2.3494,0.0,0.0,0.0,0.0,0.0,0.0,0.0,0.0,0.0,2.6384,2.8182,2.8182,2.8182,2.8182,2.8182,2.8182,2.8182,2.8182,2.8182,0.0,0.0,0.0,0.0,0.0,0.0,2.9145,0.0,0.0,0.0,0.0,0.0,0.0,0.0,0.0,0.0,0.0,0.0,0.0,0.0,0.0,0.0,3.8691,4.0623,4.2124,4.2165,4.0969,3.9657,3.9161,0.0,3.6493,3.6004,3.5919,3.6004,3.6236,3.7436,3.8391,3.8364,3.912,3.9539,3.9042,3.8984,3.9267,3.9985,4.1067,4.1915,4.2297,4.2341,4.2274,4.2101,4.2315,4.3029,4.4306,4.4025,4.473,4.6667,4.6112,4.5702,4.5473,4.5264,4.497,4.4587,4.4987,4.5038,4.4902,4.5111,4.5179,4.5179,4.5179,4.5179,4.5179,4.5179,4.5179,4.5179,4.5179,4.5422,4.5781,4.6042,4.6342,4.6826,0.0,0.0,0.0,0.0,0.0,0.0,0.0,2.3494,2.3494,2.3494,2.3494,2.3494,2.3494,2.3494,2.3494,2.3494,2.3494,0.0,0.0,0.0,0.0,0.0,0.0,0.0,0.0,2.5357,2.633,2.8182,2.8182,2.8182,2.8182,2.8182,2.8182,2.8182,2.8182,2.8237,0.0,0.0,0.0,0.0,0.0,0.0,2.9314,0.0,0.0,0.0,0.0,0.0,0.0,0.0,0.0,0.0,0.0,0.0,0.0,0.0,3.2889,3.5106,0.0,3.9003,4.0508,4.055,3.9369,0.0,0.0,0.0,0.0,3.5896,3.5928,3.5947,3.59,3.6992,3.7797,3.7469,3.814,3.8693,3.8644,3.8555,3.872,3.9293,4.0878,4.176,4.1341,4.1598,4.1722,4.1469,4.1462,4.2,4.3301,4.3051,4.3603,4.5213,4.5196,4.5162,4.5162,4.4778,4.4587,4.4587,4.4587,4.4587,4.4587,4.4587,4.4587,4.4587,4.4587,4.4587,0.0,4.4587,4.4587,4.4587,4.4587,4.4812,4.5205,4.5425,4.5765,4.6145,0.0,0.0,0.0,0.0,0.0,0.0,0.0,2.3471,2.3471,2.3471,2.3494,2.3494,2.3494,2.3494,2.3494,2.3494,0.0,0.0,0.0,0.0,0.0,0.0,0.0,0.0,2.5467,2.5335,2.6212,2.8209,2.8209,2.8182,2.8182,2.8182,2.8182,2.8182,2.8182,2.8282,0.0,0.0,0.0,0.0,0.0,0.0,0.0,0.0,0.0,0.0,0.0,0.0,0.0,0.0,0.0,0.0,0.0,0.0,0.0,0.0,0.0,0.0,0.0,3.8325,4.0142,4.0142,3.908,3.8016,0.0,0.0,0.0,0.0,0.0,0.0,3.5974,3.6604,3.6848,3.6112,3.6725,3.7685,3.8835,3.8374,3.8191,3.8998,4.0056,4.0281,3.9242,4.0662,4.146,4.0883,4.0832,4.1205,4.1971,4.2179,4.2574,4.3396,4.4103,4.4536,4.4587,4.4587,4.4587,4.4587,4.4587,4.4587,4.4587,4.4587,4.4587,4.4587,4.4587,4.4587,4.4587,4.4587,4.4587,4.4587,4.4587,4.4587,4.4665,4.5235,4.5424,4.5494,0.0,0.0,0.0,0.0,0.0,0.0,0.0,0.0,0.0,0.0,2.3265,2.3336,2.3494,2.3494,2.3494,0.0,0.0,0.0,0.0,0.0,0.0,0.0,0.0,0.0,2.5604,2.5507,2.64,2.8345,2.8237,2.8182,2.8182,2.8182,2.8182,2.8182,2.8182,2.8342,0.0,0.0,0.0,0.0,0.0,0.0,0.0,0.0,0.0,0.0,3.0858,3.0841,0.0,0.0,0.0,0.0,0.0,0.0,0.0,0.0,3.1856,3.3313,3.3826,0.0,3.6757,3.6757,3.6483,3.6241,0.0,0.0,0.0,0.0,0.0,0.0,0.0,3.6973,3.7245,3.7711,3.8516,3.9069,3.901,3.9565,4.0429,4.1638,4.1233,4.0724,4.0476,4.0459,4.0442,4.0273,4.0273,4.0629,4.1392,4.1461,4.2083,4.3362,4.3586,4.4002,4.457,4.4587,4.4587,4.4587,4.4587,4.4587,4.4587,4.4587,4.4587,4.4587,4.4587,4.4587,4.4587,4.4587,4.4587,4.4587,4.4587,4.4587,4.4626,4.4763,4.4835,4.4906,0.0,0.0,0.0,0.0,0.0,0.0,0.0,0.0,0.0,0.0,0.0,0.0,0.0,0.0,0.0,0.0,0.0,0.0,0.0,0.0,0.0,0.0,0.0,2.3904,2.5797,2.5675,2.6535,2.8484,2.8371,2.8291,2.8291,2.8237,2.8182,2.8227,2.8345,2.8572,0.0,0.0,0.0,0.0,2.9718,0.0,0.0,0.0,0.0,0.0,3.0841,3.065,0.0,3.0379,3.0425,3.0458,0.0,0.0,0.0,0.0,3.2225,3.3313,3.3616,3.4631,3.5603,3.5565,3.5584,3.5631,0.0,0.0,0.0,0.0,0.0,0.0,0.0,0.0,3.68,3.7661,3.835,3.903,3.9719,4.0681,4.1452,4.1902,4.1371,4.0866,4.0578,4.0256,4.007,4.007,4.007,4.0256,4.0662,4.1018,4.158,4.2371,4.3069,4.3811,4.457,4.4587,4.4587,4.4587,4.4587,4.4587,4.4587,4.4587,4.4587,4.4587,4.4587,4.4587,4.4587,4.4587,4.4587,4.4587,4.4587,4.4587,4.4587,4.4587,4.4587,4.4626,0.0,0.0,0.0,0.0,0.0,0.0,0.0,0.0,0.0,0.0,0.0,0.0,0.0,0.0,0.0,0.0,0.0,0.0,0.0,0.0,0.0,0.0,2.3513,2.4242,2.6027,2.5965,2.6803,2.8637,2.8476,2.8398,2.8398,2.8291,2.8237,2.8264,2.8543,2.8892,0.0,2.9454,2.9663,2.9891,3.004,0.0,0.0,0.0,0.0,0.0,0.0,0.0,0.0,3.0383,3.046,3.0501,3.0507,0.0,0.0,0.0,0.0,0.0,3.4046,3.5093,3.5905,3.5611,3.5553,3.5618,0.0,0.0,0.0,0.0,0.0,0.0,0.0,3.6045,0.0,3.7167,3.7743,3.8752,4.0711,4.147,4.1665,4.1139,4.0985,4.0696,4.0172,4.007,4.007,4.007,4.007,4.007,4.007,4.0679,4.1069,4.1205,4.2422,4.3423,4.4243,4.4485,4.4587,4.4587,4.4587,4.4587,4.4587,4.4587,4.4587,4.4587,4.4587,4.4587,4.4587,4.4587,4.4587,4.4587,4.4587,4.4587,4.4587,4.4587,4.4587,4.4587,0.0,0.0,0.0,0.0,0.0,0.0,0.0,0.0,0.0,0.0,0.0,0.0,0.0,0.0,0.0,0.0,0.0,0.0,0.0,0.0,0.0,2.4567,2.4522,2.5022,2.6222,2.6711,2.7554,2.8761,2.851,2.8398,2.8398,2.8398,2.845,2.8536,2.8827,2.8971,2.9082,2.9475,2.9699,2.9809,3.065,0.0,0.0,0.0,0.0,0.0,0.0,0.0,0.0,3.0449,3.0482,3.051,3.0579,0.0,0.0,0.0,0.0,0.0,3.338,3.5549,3.7437,3.596,3.5593,3.5637,3.5754,0.0,0.0,0.0,0.0,0.0,0.0,3.6906,3.7186,0.0,3.9043,4.0216,4.1628,4.1379,4.1055,4.1011,4.0572,4.0206,4.0087,4.007,4.007,4.007,4.007,4.007,4.007,4.0206,4.0561,4.1188,4.1444,4.188,4.2551,4.3895,4.4587,4.4587,4.4587,4.4587,4.4587,4.4587,4.4587,4.4587,4.4587,4.4587,4.4587,4.4587,4.4587,4.4587,4.4587,4.4587,4.4587,4.4587,4.4587,4.4587,0.0,0.0,0.0,0.0,0.0,0.0,0.0,0.0,0.0,0.0,0.0,0.0,0.0,0.0,0.0,0.0,0.0,0.0,0.0,0.0,2.4111,2.4865,2.5236,2.5871,2.6861,2.7176,2.7828,2.8923,2.8712,2.8612,2.8612,2.8536,2.8619,2.8827,2.8948,2.9129,2.9397,2.9608,3.0033,3.0568,0.0,0.0,0.0,0.0,0.0,0.0,0.0,0.0,0.0,0.0,3.0501,3.051,3.0571,0.0,0.0,0.0,0.0,0.0,3.4322,3.5669,3.6875,3.6969,3.7665,3.8334,3.8418,0.0,0.0,0.0,0.0,0.0,0.0,0.0,3.8458,3.9479,4.0245,4.0919,4.146,4.0972,4.0557,4.0557,4.0324,4.0155,4.007,4.007,4.007,4.007,3.9682,3.9446,3.9446,3.9059,3.9009,3.9362,3.9767,4.0104,4.0414,4.1545,4.2691,4.3895,4.3895,4.412,4.457,4.4103,4.4136,4.4587,4.4587,4.4587,4.4587,4.4587,4.4587,4.4587,4.4587,4.4587,4.4587,4.4587,4.4587,4.4587,0.0,0.0,0.0,0.0,0.0,0.0,0.0,0.0,0.0,0.0,0.0,0.0,0.0,0.0,0.0,0.0,0.0,0.0,0.0,0.0,2.449,2.5288,2.5966,2.667,2.7387,2.7586,2.81,2.8947,2.8834,2.8785,2.8785,2.8718,2.8821,2.906,2.9148,2.9358,2.9717,2.9942,3.0421,3.1001,0.0,0.0,0.0,0.0,0.0,0.0,0.0,0.0,0.0,0.0,0.0,0.0,0.0,0.0,0.0,3.278,3.3305,3.3616,3.5,3.5844,3.6619,3.7889,0.0,3.9695,4.0533,0.0,0.0,0.0,0.0,0.0,0.0,3.8392,3.9475,4.0635,4.0961,4.1067,4.1062,4.0595,4.0222,4.0189,4.0189,4.0172,4.007,4.007,4.007,4.007,3.9362,3.8872,3.8879,3.8187,3.7801,3.7801,3.8356,3.8607,3.8574,3.9336,4.0727,4.2758,4.2758,4.3172,4.3986,4.328,4.3379,4.4002,4.4002,4.4002,4.4018,4.4226,4.4294,4.4311,4.4519,4.4587,4.4587,4.4587,4.4587,4.4587,0.0,0.0,0.0,0.0,0.0,0.0,0.0,0.0,0.0,0.0,0.0,0.0,0.0,0.0,0.0,0.0,0.0,0.0,0.0,0.0,2.547,2.6249,2.6939,2.7332,2.7405,2.8123,2.8608,2.881,2.881,2.8785,2.881,2.892,2.9038,2.9209,2.9513,2.9662,2.9755,3.0689,3.075,3.0331,3.1819,0.0,0.0,0.0,0.0,0.0,0.0,0.0,0.0,0.0,0.0,0.0,0.0,0.0,3.104,3.2788,3.3293,3.348,3.4283,3.6261,3.813,3.8199,0.0,0.0,4.0082,3.9354,0.0,3.9871,0.0,0.0,0.0,3.9142,3.9776,4.1056,4.0771,4.0506,4.0882,4.0442,4.0087,4.0087,4.0087,4.0087,4.007,4.007,4.007,4.007,3.9362,3.8903,3.892,3.8211,3.782,3.782,3.7851,3.7836,3.7695,3.8531,3.9707,4.116,4.116,4.1504,4.2209,4.2146,4.2139,4.2172,4.2172,4.2172,4.2278,4.3032,4.3396,4.3463,4.4277,4.4587,4.4587,4.4587,4.4587,4.4587,0.0,0.0,0.0,0.0,0.0,0.0,0.0,0.0,0.0,0.0,0.0,0.0,0.0,0.0,0.0,0.0,0.0,0.0,0.0,2.4902,2.5688,2.6472,2.7169,2.7755,2.8264,2.8573,2.8785,2.8905,2.8905,2.8905,2.8947,2.9075,2.9209,2.9394,2.9608,3.0071,3.0679,3.0576,3.1009,3.1738,3.1383,3.1399,0.0,0.0,0.0,0.0,0.0,0.0,0.0,0.0,3.064,3.0757,3.1084,3.1331,3.1739,3.2943,3.3643,3.4237,3.5049,3.6754,3.8276,3.8216,0.0,0.0,0.0,0.0,4.105,4.2002,4.2096,0.0,0.0,4.02,4.0225,4.0352,4.0539,4.0612,4.0425,4.0222,4.007,4.007,4.007,4.007,4.007,4.007,4.007,4.007,3.8959,3.8221,3.8206,3.701,3.634,3.634,3.634,3.634,3.6295,3.6622,3.7274,3.8215,3.9134,4.0001,4.077,4.0628,4.0899,4.1377,4.1844,4.2037,4.2053,4.2341,4.2821,4.3345,4.3736,4.3859,4.3809,4.3335,4.3149,4.3149,0.0,0.0,0.0,0.0,0.0,0.0,0.0,0.0,0.0,0.0,0.0,0.0,0.0,0.0,0.0,0.0,0.0,0.0,2.4557,2.5328,2.6135,2.6943,2.7661,2.8315,2.8915,2.8934,2.8957,2.9003,2.9026,2.9044,2.9017,2.9185,2.9394,2.9551,2.9999,3.049,3.0952,3.0933,3.1346,3.1935,3.1104,3.0995,0.0,0.0,0.0,0.0,0.0,0.0,0.0,0.0,3.0665,3.0801,3.1343,3.1739,3.2283,3.3682,3.4303,3.4722,3.5563,3.6648,3.7646,0.0,0.0,0.0,0.0,0.0,4.2052,4.3316,4.3247,4.2613,4.1437,4.0857,4.0428,3.9979,4.0358,4.0544,4.0172,4.007,4.007,4.007,4.007,4.007,4.007,4.007,4.007,4.007,3.8656,3.7818,3.7815,3.6325,3.5504,3.5504,3.5504,3.5504,3.5504,3.5504,3.5704,3.6185,3.7201,3.8212,3.9204,3.9043,3.932,3.9926,4.0341,4.0535,4.055,4.0861,4.1641,4.2656,4.2922,4.3064,4.2997,4.2489,4.2286,4.2286,0.0,0.0,0.0,0.0,0.0,0.0,0.0,0.0,0.0,0.0,0.0,0.0,0.0,0.0,0.0,0.0,0.0,0.0,2.5328,2.6153,2.6979,2.7769,2.8576,2.9048,2.9188,2.9209,2.9144,2.8997,2.9144,2.9141,2.9017,2.9351,2.9532,2.9664,3.0793,3.0895,3.0319,3.1996,3.1757,3.0388,3.1258,3.1141,3.0501,0.0,0.0,0.0,0.0,0.0,0.0,0.0,3.071,3.1008,3.2737,3.2718,3.2509,3.5061,3.5236,3.48,3.5592,3.5864,0.0,0.0,0.0,0.0,0.0,0.0,4.0539,4.3406,4.2933,4.1988,4.1898,4.1028,4.0268,4.021,4.0155,4.007,4.007,4.007,4.007,4.007,4.007,4.007,4.007,4.007,4.007,4.007,3.8656,3.7818,3.7815,3.6325,3.5504,3.5504,3.5504,3.5504,3.5504,3.5504,3.5504,3.5504,3.5504,3.6155,3.7418,3.7418,3.7413,3.7389,3.7389,3.7389,3.7505,3.8352,3.9687,4.1244,4.1996,4.2269,4.2286,4.2269,4.2269,4.2269,0.0,0.0,0.0,0.0,0.0,0.0,0.0,0.0,0.0,0.0,0.0,0.0,0.0,0.0,0.0,0.0,0.0,0.0,2.5384,2.6667,2.7548,2.7787,2.8576,2.9048,2.9188,2.9435,2.9494,2.9353,2.9394,2.9392,2.9351,2.9608,3.0053,3.0691,3.1153,3.1628,3.2023,3.1952,3.1686,3.1251,3.0951,3.0704,3.051,0.0,0.0,0.0,0.0,0.0,0.0,0.0,0.0,0.0,3.2246,3.3021,3.3915,3.4653,3.5177,3.5562,3.5801,0.0,0.0,0.0,0.0,0.0,0.0,4.1549,0.0,0.0,4.303,4.2192,4.1171,4.0853,4.0429,3.9442,3.975,4.007,4.007,4.007,4.007,4.007,4.007,4.007,4.007,4.007,4.007,4.007,3.8656,3.7818,3.7815,3.6325,3.5504,3.5504,3.5504,3.5504,3.5504,3.5504,3.5504,3.5504,3.5504,3.5689,3.611,3.6526,3.6763,3.6813,3.7203,3.7375,3.7488,3.8339,3.932,4.0323,4.0641,4.1064,4.1457,4.0933,4.073,4.073,0.0,0.0,0.0,0.0,0.0,0.0,0.0,0.0,0.0,0.0,0.0,0.0,0.0,0.0,0.0,0.0,0.0,0.0,0.0,2.7159,2.8003,2.8264,2.8741,2.9112,2.9312,2.957,2.9699,2.9645,2.9626,2.9532,2.9512,3.0055,3.061,3.1153,3.1718,3.21,3.234,3.186,3.145,3.1141,3.0683,3.0501,3.051,0.0,0.0,0.0,0.0,0.0,0.0,0.0,0.0,0.0,3.2939,3.372,3.4575,3.4944,3.5469,3.6051,3.6705,0.0,0.0,0.0,0.0,4.2489,4.2612,0.0,0.0,0.0,4.2706,4.1998,4.0922,4.0658,4.0341,3.948,3.9783,4.007,4.007,4.007,4.007,4.007,3.9817,3.9767,4.0054,3.9817,3.9767,4.007,3.8959,3.8084,3.7831,3.6622,3.5814,3.5504,3.5504,3.5504,3.5504,3.5504,3.5504,3.5504,3.5504,3.5504,3.5504,3.5954,3.6125,3.614,3.6481,3.6637,3.6682,3.751,3.8315,3.909,3.9119,3.9648,4.0177,3.9445,3.9172,3.9172,0.0,0.0,0.0,0.0,0.0,0.0,0.0,0.0,0.0,0.0,0.0,0.0,0.0,0.0,0.0,0.0,0.0,0.0,0.0,0.0,2.8408,2.8984,2.904,2.92,2.9492,2.9645,2.9787,2.9888,2.9787,2.9701,2.9682,3.0675,3.1246,3.1499,3.2403,3.2436,3.1795,3.1737,3.1198,3.041,3.0477,3.0491,3.0501,3.0565,0.0,0.0,0.0,0.0,0.0,0.0,0.0,0.0,3.4345,3.4606,3.4789,3.5643,3.5993,3.6444,3.7982,0.0,0.0,0.0,0.0,0.0,4.3324,4.3444,4.3286,4.2788,4.2189,4.1547,4.1024,4.0443,4.007,4.007,4.007,4.007,4.007,4.007,4.0054,4.0003,3.9362,3.9143,3.9815,3.9227,3.916,3.9952,3.9194,3.845,3.7808,3.6987,3.617,3.5519,3.5504,3.5504,3.5504,3.5504,3.5504,3.5504,3.5504,3.5504,3.5504,3.5504,3.5504,3.5504,3.5504,3.5504,3.5534,3.6185,3.6971,3.7663,3.7721,3.816,3.8745,3.8035,3.7822,3.7822,0.0,0.0,0.0,0.0,0.0,0.0,0.0,0.0,0.0,0.0,0.0,0.0,0.0,0.0,0.0,0.0,0.0,0.0,0.0,0.0,2.9167,2.9144,2.931,2.9433,2.9492,2.9735,2.9872,2.9888,2.9872,3.0179,3.0842,3.1175,3.2069,3.3379,3.3042,3.2782,3.2602,3.1968,3.1198,3.041,3.0477,3.0491,3.0501,3.051,3.1009,0.0,0.0,0.0,0.0,0.0,0.0,0.0,3.447,3.4983,3.5566,3.5838,3.6789,3.7879,0.0,4.025,0.0,0.0,0.0,4.3608,4.3508,4.3178,4.2826,4.2732,4.1842,4.1028,4.0926,4.048,4.007,4.007,4.007,4.007,4.007,4.007,3.9851,3.9228,3.9009,3.8768,3.8351,3.8166,3.8321,3.9076,3.7886,3.7298,3.7756,3.649,3.5659,3.5504,3.5504,3.5504,3.5504,3.5504,3.5504,3.5504,3.5504,3.5504,3.5504,3.5504,3.5504,3.5504,3.5504,3.5504,3.5504,3.5674,3.6163,3.6844,3.6841,3.7317,3.8035,3.7863,3.7822,3.7822,0.0,0.0,0.0,0.0,0.0,0.0,0.0,0.0,0.0,0.0,0.0,0.0,0.0,0.0,0.0,0.0,0.0,0.0,0.0,0.0,2.9513,2.9415,2.9494,2.9589,2.9644,2.9786,3.0061,3.053,3.0097,3.0357,3.126,3.2222,3.2928,3.3412,3.3064,3.2699,3.2275,3.1429,3.0833,3.041,3.0444,3.07,3.107,3.1061,3.1709,3.2582,3.2524,0.0,0.0,0.0,0.0,0.0,0.0,0.0,3.5818,3.5877,3.6487,3.7498,0.0,0.0,0.0,0.0,0.0,4.3726,4.3548,4.2865,4.2262,4.2262,4.1534,4.0827,4.0577,4.0286,4.007,4.007,4.007,4.007,4.007,4.007,3.98,3.9009,3.8614,3.8209,3.7846,3.7786,3.8107,3.8836,3.852,3.8124,3.7792,3.7033,3.628,3.5519,3.5504,3.5504,3.5504,3.5504,3.5504,3.5504,3.5504,3.5504,3.5504,3.5504,3.5504,3.5504,3.5504,3.5504,3.5504,3.5504,3.5954,3.6531,3.6198,3.6549,3.7168,3.6798,3.6723,3.6723,0.0,0.0,0.0,0.0,0.0,0.0,0.0,0.0,0.0,0.0,0.0,0.0,0.0,0.0,0.0,0.0,0.0,0.0,0.0,0.0,0.0,2.9644,2.9662,2.9697,2.9799,2.9851,3.0246,3.1002,3.0433,3.0541,3.1324,3.2832,3.3349,3.2982,3.2762,3.2301,3.1641,3.0775,3.0398,3.0398,3.0552,3.106,3.1722,3.1857,3.2531,3.3412,3.3412,3.3971,3.4711,3.4711,0.0,0.0,0.0,0.0,3.5818,3.5877,3.6093,3.6885,0.0,0.0,0.0,0.0,4.4053,0.0,4.3497,4.2696,4.1937,4.181,4.1223,4.0625,4.0154,4.007,4.007,4.007,4.007,4.007,4.007,4.007,3.98,3.9009,3.8344,3.792,3.7621,3.7606,3.7895,3.8639,3.9057,3.8859,3.7872,3.7569,3.6808,3.5534,3.5504,3.5504,3.5504,3.5504,3.5504,3.5504,3.5504,3.5504,3.5504,3.5504,3.5504,3.5504,3.5504,3.5504,3.5504,3.5504,3.5844,3.634,3.5719,3.5867,3.6338,3.5737,3.5504,3.5504,0.0,0.0,0.0,0.0,0.0,0.0,0.0,0.0,0.0,0.0,0.0,0.0,0.0,0.0,0.0,0.0,0.0,0.0,2.9664,0.0,0.0,2.9767,2.9832,2.988,2.9896,3.006,3.0185,3.0243,3.0817,3.1175,0.0,0.0,3.2416,3.37,3.2368,3.1744,3.1641,3.0775,3.0398,3.0456,3.1218,3.16,3.1791,3.2466,3.3357,3.4245,3.4245,3.4836,3.5624,3.5624,3.5702,0.0,0.0,0.0,3.5818,3.5877,3.6852,3.8001,0.0,0.0,0.0,0.0,4.4053,4.3497,0.0,0.0,4.244,4.1895,4.0938,4.0154,4.0121,4.007,4.007,4.007,4.007,4.007,4.007,4.007,3.98,3.9009,3.8825,3.8265,3.6919,3.6778,3.7079,3.79,3.6799,3.6635,3.7758,3.6549,3.5689,3.5504,3.5504,3.5504,3.5504,3.5504,3.5504,3.5504,3.5504,3.5504,3.5504,3.5504,3.5504,3.5504,3.5504,3.5504,3.5504,3.5504,3.5534,3.5659,3.5534,3.5554,3.5638,3.5554,3.5504,3.5504,0.0,0.0,0.0,0.0,0.0,0.0,0.0,0.0,0.0,0.0,0.0,0.0,0.0,0.0,0.0,2.8638,2.9112,2.951,2.9869,2.9872,2.9921,3.0015,3.006,3.009,3.0114,3.0207,3.0442,3.0829,3.0719,0.0,0.0,3.1058,3.1295,3.2477,3.1795,3.1249,3.0835,3.049,3.0618,3.1111,3.1532,3.2827,3.443,3.3884,3.4874,3.6403,3.5475,3.5408,3.5799,3.5799,3.5799,3.5799,3.5799,0.0,0.0,0.0,3.6319,3.7251,3.9141,0.0,0.0,0.0,4.4194,4.3726,4.3548,4.3105,4.2616,4.2342,4.1375,4.0449,4.0171,4.007,4.007,4.007,4.007,4.007,4.007,4.007,3.98,3.9009,3.8924,3.8464,3.7383,3.7623,3.7887,3.7812,3.7556,3.7298,3.7139,3.6459,3.5954,3.5504,3.5504,3.5504,3.5504,3.5504,3.5504,3.5504,3.5504,3.5504,3.5504,3.5504,3.5504,3.5504,3.5504,3.5504,3.5504,3.5504,3.5504,3.5504,3.5504,3.5504,3.5504,3.5504,3.5504,3.5504,0.0,0.0,0.0,0.0,0.0,0.0,0.0,0.0,0.0,0.0,0.0,0.0,0.0,0.0,0.0,0.0,2.9547,2.9905,2.9956,2.9969,3.0064,3.0213,3.045,3.0496,3.0337,3.0548,3.0816,3.1131,0.0,0.0,3.1949,3.0693,3.0456,0.0,3.1068,3.0858,3.051,3.0565,3.1084,3.1974,3.2647,3.4455,3.6603,3.5624,3.6497,3.7974,3.6299,3.5736,3.5799,3.5799,3.5799,3.5799,3.5799,3.5791,0.0,0.0,0.0,3.6372,0.0,0.0,0.0,4.3485,4.3652,4.3404,0.0,4.3178,4.2864,4.275,4.1853,4.0967,4.0417,4.0204,4.007,4.007,4.007,4.007,4.007,4.007,3.9868,3.9261,3.9211,3.8891,3.812,3.8577,3.8665,3.8135,3.8246,3.7889,3.6938,3.6511,3.6045,3.5519,3.5504,3.5504,3.5504,3.5504,3.5504,3.5504,3.5504,3.5504,3.5504,3.5504,3.5504,3.5504,3.5504,3.5504,3.5504,3.5504,3.5504,3.5504,3.5504,3.5504,3.5504,3.5504,3.5504,3.5504,0.0,0.0,0.0,0.0,0.0,0.0,0.0,0.0,0.0,0.0,0.0,0.0,2.8559,2.8657,2.8998,2.9756,2.9869,2.9956,3.0087,3.0199,3.0279,3.0279,3.1149,0.0,3.0417,3.1205,3.1219,3.0356,0.0,0.0,3.0319,3.017,3.0122,3.016,3.016,3.0605,3.135,3.135,3.1872,3.2957,3.5373,3.6492,3.6796,3.7596,3.8029,3.7974,3.6299,3.5736,3.5799,3.5799,3.5799,3.5799,3.5799,3.5765,3.5708,0.0,0.0,0.0,0.0,0.0,0.0,4.1425,4.1927,0.0,0.0,4.3479,4.3321,4.2808,4.2203,4.1578,4.0949,4.0449,4.007,4.007,4.007,4.007,4.007,4.007,4.007,4.0037,4.0037,3.975,3.8891,3.8857,3.8873,3.8839,3.7539,3.7002,3.7667,3.634,3.5534,3.5504,3.5504,3.5504,3.5504,3.5504,3.5504,3.5504,3.5504,3.5504,3.5504,3.5504,3.5504,3.5504,3.5504,3.5504,3.5504,3.5504,3.5504,3.5504,3.5504,3.5504,3.5504,3.5504,3.5504,3.5504,0.0,0.0,0.0,0.0,0.0,0.0,0.0,0.0,0.0,0.0,0.0,0.0,0.0,2.9585,2.9699,3.0003,3.0022,3.0068,3.0161,3.0677,3.0789,3.0331,3.1162,3.1245,3.0417,3.0717,3.0706,0.0,0.0,3.0337,3.0253,3.0204,3.0147,3.0122,3.0592,3.0975,3.1312,3.1911,3.2714,3.3746,3.578,3.7621,3.9061,3.8421,3.9509,4.104,3.833,3.7375,3.7395,3.7395,3.6696,3.5799,3.5799,3.5745,3.5689,3.5646,3.5631,3.5951,0.0,0.0,0.0,4.0228,4.1283,4.1911,4.2161,4.2875,4.3444,4.325,4.2752,4.2203,4.1578,4.072,4.007,4.007,4.007,4.007,4.007,4.007,4.007,4.007,4.007,4.0003,3.9682,3.9649,3.9446,3.8959,3.8393,3.8019,3.7797,3.6793,3.6185,3.6185,3.5719,3.5504,3.5504,3.5504,3.5504,3.5504,3.5504,3.5504,3.5504,3.5504,3.5504,3.5504,3.5504,3.5504,3.5504,3.5504,3.5504,3.5504,3.5504,3.5504,3.5504,3.5504,3.5504,3.5504,0.0,0.0,0.0,0.0,0.0,0.0,0.0,0.0,0.0,2.9045,0.0,0.0,0.0,0.0,3.0087,3.0038,3.0132,3.019,3.0204,3.0737,3.0854,3.0356,3.1175,3.1245,3.0417,3.0698,3.0698,3.0398,0.0,0.0,0.0,3.0226,3.0309,3.0571,3.1282,3.161,3.1667,3.2572,3.3511,3.4614,3.69,3.8914,4.0427,3.9741,4.0681,4.2044,3.9588,3.8528,3.8393,3.8922,3.8363,3.7347,3.6813,3.6212,3.5689,3.5608,3.5591,3.583,3.6867,0.0,0.0,0.0,3.9842,4.0674,4.1344,4.2199,4.2967,4.3403,4.305,4.2577,4.2162,4.115,4.0336,4.0121,4.007,4.007,4.007,4.007,4.007,4.007,4.007,4.007,4.007,4.007,3.9868,3.9362,3.9043,3.8685,3.8213,3.7427,3.6847,3.6591,3.614,3.5719,3.5504,3.5504,3.5504,3.5504,3.5504,3.5504,3.5504,3.5504,3.5504,3.5504,3.5504,3.5504,3.5504,3.5504,3.5504,3.5504,3.5504,3.5504,3.5504,3.5504,3.5504,3.5504,0.0,0.0,0.0,0.0,0.0,0.0,0.0,0.0,2.9064,2.9973,0.0,0.0,0.0,0.0,0.0,2.9905,3.0152,3.0266,3.0218,3.0356,3.0417,3.0398,3.1237,3.1295,3.0417,3.1237,3.1256,3.0398,3.0398,3.0398,3.0398,3.0291,3.0663,3.1431,3.2131,3.2444,3.2501,3.3373,3.4296,3.5496,3.8915,4.0377,4.0616,4.1633,4.1538,4.0746,3.9909,3.9118,3.8681,4.0236,4.0707,4.0352,3.8739,3.7055,3.5689,3.5608,3.5591,3.5579,0.0,0.0,0.0,3.7123,3.7525,3.827,4.0792,4.1425,4.1827,4.3159,4.3014,4.2678,4.2693,4.175,4.078,4.0254,4.0121,4.007,4.007,4.007,4.007,4.007,4.007,4.007,4.007,4.007,4.007,4.007,3.9396,3.8959,3.8959,3.8238,3.7442,3.6679,3.6591,3.628,3.5534,3.5504,3.5504,3.5504,3.5504,3.5504,3.5504,3.5504,3.5504,3.5504,3.5504,3.5504,3.5519,3.5504,3.5504,3.5504,3.5504,3.5504,3.5504,3.5504,3.5504,3.5504,0.0,0.0,0.0,0.0,0.0,0.0,2.9651,2.9785,2.988,0.0,0.0,0.0,3.019,3.0176,3.0161,3.0128,3.0226,3.0305,3.033,3.0963,3.1064,3.0417,3.1237,3.1295,3.0417,3.0641,3.0641,3.0398,3.0398,3.0398,3.0398,3.0957,3.132,3.1607,3.2842,3.3475,3.3617,3.4388,3.4899,3.5496,3.8984,4.0427,4.0677,4.2271,4.3447,4.4055,4.2666,4.2025,4.1875,4.2016,4.0699,3.8681,3.6958,3.6066,3.5618,3.5596,3.5573,3.5534,3.5507,0.0,0.0,0.0,0.0,0.0,3.845,3.9359,4.0416,4.1772,4.1933,4.2026,4.2591,4.244,4.1997,4.142,4.0642,4.007,4.007,4.007,4.007,4.007,4.007,4.007,4.007,4.007,4.007,4.007,3.9868,3.9783,3.9783,3.9026,3.8249,3.7487,3.6924,3.6496,3.631,3.5799,3.5504,3.5504,3.5504,3.5504,3.5504,3.5504,3.5504,3.5504,3.5504,3.5814,3.628,3.5704,3.5504,3.5504,3.5504,3.5504,3.5504,3.5504,3.5504,3.5504,0.0,0.0,0.0,0.0,0.0,2.9652,3.0142,3.0204,3.0218,0.0,0.0,0.0,3.0259,3.0226,3.0226,3.0185,3.0299,3.0349,3.0362,3.0847,3.0929,3.0417,3.0891,3.0929,3.0398,3.0398,3.0398,3.0398,3.0756,3.0756,3.0417,3.1578,3.2108,3.2152,0.0,0.0,3.4522,3.4983,3.5209,3.5525,3.8999,4.0444,4.0719,4.2742,4.3843,4.4249,4.3541,4.3044,4.2814,4.3281,4.1474,3.8863,3.786,3.6639,3.5596,3.5596,3.5566,3.5547,3.5507,3.5493,3.5493,3.5493,0.0,0.0,3.8076,3.8943,4.0033,4.1946,4.2334,4.247,4.296,4.2864,4.2559,4.2244,4.1408,4.072,4.0476,4.0239,4.007,4.007,4.007,4.007,4.007,4.007,4.007,4.007,4.007,4.007,4.007,3.9649,3.9043,3.8271,3.7818,3.7387,3.7105,3.6652,3.6466,3.6466,3.6466,3.6466,3.6466,3.6466,3.6466,3.6466,3.6466,3.6667,3.7079,3.6658,3.6461,3.6451,3.611,3.6155,3.6466,3.6466,3.6466,3.647,0.0,0.0,2.9404,3.019,3.0305,3.0279,3.0226,3.0213,3.024,0.0,3.0292,3.0292,3.0292,3.0292,3.0286,3.0232,3.0337,3.0367,3.0324,3.0374,3.0398,3.0398,3.0398,3.0398,3.0398,3.0398,3.0398,3.0398,3.1275,3.1295,3.0571,3.2205,3.2966,3.299,0.0,0.0,3.5258,3.53,3.5426,3.5887,3.9109,4.0408,4.071,4.312,4.352,4.2886,4.3369,4.3042,4.2578,4.3869,4.253,4.0215,3.9928,3.8082,3.599,3.57,3.5695,3.5772,3.5545,3.5493,3.5493,3.5493,3.5493,0.0,3.8502,3.9071,3.9771,4.2316,4.2834,4.2875,4.3026,4.2684,4.2322,4.2322,4.1943,4.152,4.1033,4.0595,4.0273,4.0273,4.0222,4.0189,4.0189,4.0155,4.007,4.007,4.007,4.007,4.007,4.007,3.9783,3.9043,3.8975,3.8575,3.7949,3.7855,3.7824,3.7824,3.7824,3.7824,3.7824,3.7824,3.7824,3.7824,3.7824,3.7855,3.7935,3.7812,3.781,3.7732,3.6978,3.7184,3.7824,3.7824,3.7824,3.781,3.0098,0.0,3.0175,3.0348,3.0386,3.0386,3.0374,3.0362,3.0374,3.0386,3.0318,3.0292,3.0292,3.0292,3.0279,3.0266,3.0343,3.0398,3.0386,3.0398,3.0398,3.0398,3.0398,3.0398,3.0398,3.0398,3.0398,3.0398,3.1275,3.1621,3.1487,3.321,3.4012,3.4031,3.4847,3.5329,3.5509,3.5411,3.6205,3.7651,3.9665,4.0319,4.0444,4.3649,4.4604,4.4215,4.4329,4.4247,4.3945,4.2937,4.2021,4.0929,3.8784,3.8422,3.8404,3.6232,3.6334,3.6889,3.5797,3.5493,3.5493,3.5493,3.5493,0.0,3.6163,3.6281,3.6736,3.8336,3.8669,3.9018,4.0089,4.021,4.0139,4.0139,4.051,4.1002,4.157,4.1511,4.146,4.146,4.1035,4.0764,4.0764,4.0375,4.007,4.007,4.007,4.007,4.007,4.007,4.002,3.9851,3.9228,3.8805,3.8685,3.8114,3.7793,3.7793,3.7793,3.7793,3.7793,3.7793,3.7793,3.7793,3.7793,3.813,3.8619,3.8051,3.781,3.7802,3.7617,3.7642,3.7793,3.7793,3.7793,3.7814,3.0398,3.0398,3.0398,3.0398,3.0398,3.0398,3.0398,3.0398,3.0398,3.0398,3.0374,3.0362,3.0362,3.0362,3.0362,3.0362,3.0386,3.0398,3.0398,3.0398,3.0398,3.0398,3.0398,3.059,3.1044,3.1064,3.1268,3.1707,3.2538,3.2755,3.2428,3.4145,3.4728,3.4384,3.5195,3.557,3.5591,3.5528,3.6363,3.7895,3.9578,4.0654,4.1489,4.3699,4.4455,4.428,4.4125,4.4035,4.3935,4.3077,4.181,4.0434,3.9746,3.9088,3.8287,3.6941,3.7003,3.7221,3.5859,3.5493,3.5493,3.5493,3.5493,0.0,0.0,3.6498,3.6873,3.8226,3.8504,3.8707,3.9378,3.947,3.9445,3.9481,4.0337,4.0928,4.0678,4.1301,4.1793,4.1793,4.152,4.1358,4.1372,4.1086,4.0815,4.0544,4.0239,4.007,4.007,4.007,4.007,4.007,3.9733,3.948,3.948,3.916,3.8975,3.8975,3.8975,3.8975,3.8975,3.8975,3.8975,3.8975,3.8975,3.9177,3.9463,3.9076,3.8937,3.891,3.8529,3.8606,3.8975,3.8975,3.8975,3.8975,3.0398,3.0398,3.0398,3.0398,3.0398,3.0398,3.0398,3.0398,3.0398,3.0398,3.0398,3.0398,3.0398,3.0643,3.081,3.081,3.104,3.1142,3.1028,3.1028,3.0996,3.0879,3.0891,3.1218,3.1929,3.1929,3.2293,3.2987,3.3826,3.3921,3.3393,3.4917,3.5276,3.47,3.5687,3.5925,3.5628,3.5951,3.6814,3.8118,3.9392,4.087,4.2435,4.3568,4.3955,4.3881,4.3597,4.3497,4.3477,4.3214,4.1672,3.9984,4.0539,3.9613,3.8133,3.7337,3.749,3.7547,3.5921,3.5493,3.5493,3.5493,3.5493,3.5777,0.0,0.0,0.0,3.8461,3.8701,3.8701,3.8678,3.8629,3.8629,3.8678,3.9755,4.0237,3.922,4.039,4.1371,4.1371,4.1716,4.1881,4.1598,4.1479,4.1323,4.1103,4.0358,3.9986,4.0239,4.0172,4.007,4.007,4.007,4.007,4.007,4.007,4.007,4.007,4.007,4.007,4.007,4.007,4.007,4.007,4.007,4.007,4.007,4.007,4.007,4.0037,3.9396,3.9547,4.007,4.007,4.007,4.007,3.0398,3.0398,3.0398,3.0398,3.0398,3.0398,3.0398,3.0398,3.0398,3.0398,3.0398,3.0398,3.0398,3.1508,3.2267,3.2267,3.3355,3.3828,3.3358,3.3318,3.3123,3.2628,3.2622,3.266,3.2756,3.2756,3.2851,3.2987,3.3875,3.4276,3.4283,3.5243,3.5631,3.5621,3.7258,3.7142,3.5776,3.7211,3.8593,3.9795,3.9618,4.0378,4.1772,4.3383,4.3836,4.3529,4.3513,4.3497,4.3327,4.2106,4.1526,4.0868,3.865,3.9378,4.0349,3.6776,3.7414,3.8723,3.6182,3.5493,3.5493,3.5493,3.5493,3.5532,3.5696,0.0,3.5595,3.5736,0.0,3.5758,3.5694,0.0,0.0,3.5684,3.6853,3.7702,3.7485,3.8801,3.9781,3.9781,4.1444,4.2101,4.0854,4.033,4.0486,4.1593,4.0037,3.9564,4.0764,4.0375,4.007,4.007,4.007,4.007,4.007,4.007,4.007,4.007,4.007,4.007,4.007,4.007,4.007,4.007,4.007,4.007,4.007,4.007,4.007,4.007,4.0003,4.002,4.007,4.007,4.007,4.007,3.0398,3.0398,3.0398,3.0398,3.0398,3.0398,3.0398,3.0398,3.0398,3.0398,3.0398,3.0398,3.0398,3.1379,3.2163,3.2483,3.3883,3.4453,3.3743,3.4143,3.3955,3.2936,3.2891,3.3141,3.3641,3.3641,3.393,3.4511,3.4878,3.509,3.5156,3.5524,3.5718,3.5823,3.7531,3.7868,3.7196,3.7836,3.885,4.0005,3.9645,4.03,4.1664,4.3161,4.3612,4.3497,4.3497,4.3497,4.3403,4.2838,4.1646,4.0424,4.0858,4.0139,3.8995,3.8095,3.8076,3.7926,3.6021,3.6078,3.6479,3.5696,3.6032,3.6339,3.5561,3.532,3.5239,3.5239,0.0,0.0,0.0,0.0,0.0,0.0,3.631,3.6933,3.6147,3.794,3.9331,3.9331,4.0207,4.0929,4.1092,4.0611,4.083,4.2207,4.051,3.9853,4.0831,4.0679,4.0425,4.0087,4.007,4.007,4.007,4.007,4.007,4.007,4.007,4.007,4.007,4.007,4.007,4.007,4.007,4.007,4.007,4.007,4.007,4.007,4.007,4.007,4.007,4.007,4.007,4.007,3.0398,3.0398,3.0398,3.0398,3.0398,3.0398,3.0398,3.0398,3.0398,3.0367,3.0566,3.0701,3.072,3.2168,3.3293,3.3693,3.549,3.6149,3.5022,3.5496,3.534,3.4203,3.3813,3.4076,3.5081,3.4749,3.4892,3.5591,3.5591,3.5623,3.5708,3.5669,3.5718,3.5868,3.751,3.8241,3.8237,3.8614,3.9506,4.0691,4.0438,4.0848,4.1772,4.3037,4.3497,4.3497,4.3497,4.3497,4.344,4.31,4.1653,4.0338,4.1908,4.0643,3.8704,3.9322,3.9071,3.8226,3.6501,3.6755,3.7164,3.5786,3.6086,3.65,3.5506,3.5207,3.5176,3.5176,3.5176,0.0,0.0,0.0,3.5102,3.5117,0.0,3.6214,3.5251,3.6855,3.8107,3.8106,3.8574,3.9376,4.065,4.0124,4.042,4.2136,4.0528,4.0052,4.1307,4.1229,4.0883,4.0358,4.0341,4.0239,4.007,4.007,4.007,4.007,4.007,4.007,4.007,4.007,4.007,4.007,4.007,4.007,4.007,4.007,4.007,4.007,4.007,4.007,4.007,4.007,4.007,4.007,3.0398,3.0398,3.0398,3.0398,3.0398,3.0398,3.0398,3.0398,3.0386,3.0305,3.0983,3.15,3.1552,3.4661,3.6771,3.6866,3.9332,4.0126,3.8277,3.8192,3.7948,3.7376,3.6105,3.6044,3.7375,3.6121,3.5495,3.5591,3.5591,3.5623,3.5708,3.5639,3.5669,3.5868,3.7433,3.8182,3.8401,3.9822,4.1234,4.2508,4.2427,4.2249,4.2089,4.3098,4.3497,4.3497,4.3497,4.3497,4.3309,4.202,4.1508,4.1212,4.0021,4.0416,4.1129,3.9877,4.0386,4.0802,3.815,3.7471,3.7146,3.5672,3.5339,3.5343,3.5226,3.5143,3.5092,3.5092,3.5092,3.5075,3.4927,3.5015,3.5066,3.4926,3.5059,0.0,0.0,3.5154,3.5342,3.533,3.6488,3.7719,3.8867,3.8038,3.8459,4.0969,3.9589,3.9801,4.2518,4.2096,4.1494,4.0883,4.0866,4.0629,4.0087,4.007,4.007,4.007,4.007,4.007,4.007,4.007,4.007,4.007,4.007,4.007,4.007,4.007,4.007,4.007,4.007,4.007,4.007,4.007,4.007,4.007,3.0398,3.0444,3.0455,3.041,3.0398,3.0398,3.0398,3.0891,3.1578,3.2451,3.3239,3.4105,3.5058,3.672,3.7909,3.8294,4.0205,4.0719,3.9185,3.9091,3.8852,3.8328,3.6508,3.6121,3.7471,3.6182,3.5507,3.5528,3.5579,3.562,3.5639,3.5618,3.5649,3.5805,3.739,3.873,3.985,4.0318,4.1437,4.2809,4.1359,4.1613,4.2824,4.2355,4.2181,4.2297,4.3195,4.3497,4.344,4.2971,4.2236,4.1571,4.1989,4.1231,4.0263,4.0699,4.0528,3.9984,3.9071,3.9467,3.9607,3.7319,3.7394,3.7518,3.5619,3.5162,3.5075,3.4983,3.4983,3.4945,3.4908,3.4945,3.4944,3.4927,3.4946,3.4946,0.0,3.4965,3.5002,3.5013,3.6264,3.7319,3.7788,3.8349,3.9433,4.1229,4.0836,4.1154,4.2606,4.2499,4.2109,4.1511,4.1111,4.0815,4.0629,4.0256,4.007,4.007,4.007,4.007,4.007,4.007,4.007,4.007,4.007,4.007,4.007,4.007,4.007,4.007,4.007,4.007,4.007,4.007,4.007,4.007,3.0398,3.0444,3.0455,3.041,3.066,3.0871,3.0871,3.1583,3.2607,3.3935,3.4812,3.5854,3.7249,3.8552,3.9488,3.9863,4.1315,4.1444,3.9637,3.9952,3.9833,3.902,3.7642,3.7566,3.889,3.7126,3.6201,3.6201,3.579,3.5572,3.5593,3.557,3.5604,3.5718,3.6723,3.8458,4.0593,4.0519,4.1854,4.3761,4.1132,4.0891,4.2011,4.1098,4.1249,4.211,4.3118,4.3497,4.3497,4.3497,4.293,4.2371,4.3217,4.2316,4.1073,4.1964,4.1609,4.0821,4.033,4.084,4.0952,3.8735,3.8794,3.8788,3.6405,3.5837,3.5647,3.5022,3.4945,3.4945,3.4908,3.4946,3.4965,3.4908,3.4908,3.4908,0.0,3.4908,3.4908,3.4908,3.5742,3.654,3.7072,3.7348,3.8228,4.0051,4.0285,4.081,4.1752,4.2551,4.2732,4.215,4.1718,4.1447,4.1222,4.0646,4.0391,4.0391,4.0189,4.007,4.007,4.007,4.007,4.007,4.007,4.007,4.007,4.007,4.007,4.007,4.007,4.007,4.007,4.007,4.007,4.007,3.0456,3.0494,3.0525,3.0525,3.1218,3.1756,3.1756,3.2449,3.3456,3.4794,3.5722,3.6812,3.8222,4.0253,4.1533,4.1609,4.276,4.2395,3.9827,4.0821,4.0943,3.972,3.9556,4.012,4.1471,3.8871,3.7509,3.7509,3.6159,3.5528,3.5591,3.5534,3.5534,3.5596,3.5522,3.7357,4.0477,4.0419,4.2313,4.5047,4.1716,4.0252,4.002,3.965,4.0877,4.2853,4.3354,4.3497,4.3497,4.3497,4.3497,4.3497,4.3497,4.3497,4.3497,4.3497,4.3497,4.3198,4.1946,4.1609,4.1277,3.9848,3.9488,3.9102,3.7549,3.7197,3.6814,3.5418,3.5211,3.5248,3.504,3.5116,3.5135,3.4946,3.4908,3.4908,3.4908,3.4908,3.4908,3.4908,3.487,3.5325,3.6597,3.5136,3.5152,3.7685,3.8114,3.8873,4.0286,4.226,4.3151,4.2768,4.2732,4.2429,4.183,4.1252,4.0948,4.0883,4.0391,4.0155,4.007,4.007,4.007,4.007,4.007,4.007,4.007,4.007,4.007,4.007,4.007,4.007,4.007,4.007,4.007,4.007,3.1237,3.1852,3.2269,3.2316,3.2473,3.2583,3.2583,3.3314,3.4695,3.7014,3.8083,3.9527,4.1878,4.2621,4.2975,4.2971,4.3309,4.3056,4.2015,4.1678,4.163,4.1931,4.0396,4.012,4.1471,3.8871,3.7509,3.7509,3.6159,3.5528,3.5591,3.5534,3.5528,3.5596,3.5528,3.6722,3.8742,3.8728,3.9928,4.1782,4.052,4.0403,4.0971,4.0913,4.1683,4.2853,4.3354,4.3497,4.3497,4.3497,4.3497,4.3497,4.3497,4.3497,4.3497,4.3497,4.3497,4.3422,4.31,4.2971,4.2664,4.1303,4.098,4.0579,3.9158,3.8808,3.8677,3.8178,3.8128,3.785,3.681,3.6594,3.6255,3.5211,3.4965,3.4908,3.4908,3.4908,3.4908,3.4908,3.4434,3.4491,3.5515,3.5497,3.6441,3.8888,3.7983,3.8886,4.2454,4.1643,4.1734,4.3243,4.2896,4.2649,4.2456,4.1875,4.1336,4.0883,4.0781,4.0476,4.007,4.007,4.007,4.007,4.007,4.007,4.007,4.007,4.007,4.007,4.007,4.007,4.007,4.007,4.007,4.007,3.2064,3.2891,3.3481,3.3518,3.4299,3.4772,3.4408,3.4573,3.5733,3.8422,3.9199,4.03,4.2395,4.314,4.3497,4.3497,4.3497,4.3133,4.2307,4.2304,4.2341,4.2233,4.1593,4.1609,4.2371,4.0338,3.8961,3.8374,3.7028,3.6093,3.556,3.552,3.552,3.5541,3.552,3.6444,3.8141,3.9644,4.041,4.0622,4.0902,4.1225,0.0,4.1436,4.2112,4.3135,4.3416,4.3497,4.3497,4.3497,4.3497,4.3497,4.3497,4.3497,4.3497,4.3497,4.3497,4.3497,4.3497,4.3497,4.3327,4.2567,4.2358,4.2014,4.0607,4.0263,4.0086,3.9341,3.9245,3.9037,3.8228,3.7577,3.6687,3.5249,3.4946,3.4908,3.4908,3.4908,3.4908,3.4908,3.4245,3.4016,3.4541,3.4583,3.539,3.7347,3.6623,3.7152,3.9626,3.9989,4.0919,4.2569,4.2315,4.2477,4.3041,4.1878,4.1412,4.1692,4.1137,4.0764,4.0442,4.0206,4.007,4.007,4.007,4.007,4.007,4.007,4.007,4.007,4.007,4.007,4.007,4.007,4.007,4.007,3.291,3.3776,3.4372,3.4372,3.6119,3.73,3.6711,3.6279,3.6913,3.943,3.9752,4.0263,4.1627,4.2797,4.3497,4.3497,4.3497,4.3008,4.1846,4.2838,4.2971,4.1809,4.2875,4.3497,4.3497,4.2199,4.084,3.9505,3.815,3.6814,3.5493,3.5493,3.5493,3.5493,3.5493,3.643,3.8214,4.1178,4.1709,4.0635,4.1873,4.2186,4.1931,4.1746,4.2433,4.3497,4.3497,4.3497,4.3497,4.3497,4.3497,4.3497,4.3497,4.3497,4.3497,4.3497,4.3497,4.3497,4.3497,4.3497,4.3497,4.3497,4.3497,4.3198,4.1944,4.1662,4.1317,4.0011,3.9871,3.9852,3.9552,3.8244,3.6757,3.542,3.5172,3.5248,3.5437,3.5456,3.54,3.523,3.4529,0.0,3.3993,3.3205,3.3313,3.475,3.4599,3.4781,3.5528,3.8278,4.0441,4.1716,4.1752,4.2249,4.3235,4.1742,4.1462,4.2406,4.1473,4.1011,4.1001,4.0391,4.0155,4.0206,4.0155,4.007,4.007,4.007,4.007,4.007,4.007,4.007,4.007,4.007,4.007,4.007,3.3795,3.468,3.5276,3.5276,3.652,3.7812,3.8769,3.8848,3.9378,4.0943,4.1148,4.1653,4.299,4.3348,4.3497,4.3497,4.3497,4.3403,4.3177,4.3367,4.3385,4.3159,4.3367,4.3497,4.3497,4.2199,4.084,3.9505,3.815,3.6814,3.5493,3.5493,3.5493,3.5493,3.5493,3.6458,3.813,3.8782,3.9499,4.0308,4.1556,4.1867,4.1696,4.2724,4.3275,4.3497,4.3497,4.3497,4.3497,4.3497,4.3497,4.3497,4.3497,4.3497,4.3497,4.3497,4.3497,4.3497,4.3497,4.3497,4.3497,4.3497,4.3497,4.3458,4.3198,4.3143,4.3051,4.2791,4.2769,4.2442,4.1308,3.8952,3.7102,3.6831,3.6767,3.7115,3.8282,3.8451,3.8033,3.692,3.6046,3.5372,3.4981,3.2961,3.253,3.457,3.3038,3.4117,3.8923,3.8714,3.9876,4.3039,4.3151,4.2733,4.1852,4.2613,4.2297,4.0955,4.1434,4.1629,4.163,4.0578,4.0375,4.0815,4.0341,4.007,4.007,4.007,4.007,4.007,4.007,4.007,4.007,4.007,4.007,4.007,3.4795,3.5218,3.5715,3.6419,3.7662,3.8999,4.0312,4.1129,4.1553,4.1508,4.1508,4.1765,4.2377,4.31,4.3497,4.3497,4.3497,4.3497,4.3497,4.3497,4.3497,4.3497,4.3497,4.3497,4.3497,4.2857,4.1534,3.9505,3.8852,3.749,3.5493,3.5493,3.546,3.5436,3.6334,3.7238,3.8202,3.9765,4.0801,4.1495,4.2605,4.294,4.2846,4.3317,4.3497,4.3497,4.3497,4.3497,4.3497,4.3497,4.3497,4.3497,4.3497,4.3497,4.3497,4.3497,4.3497,4.3497,4.3497,4.3497,4.3497,4.3497,4.3497,4.3497,4.3497,4.3497,4.3497,4.3497,4.3497,4.3085,4.1681,3.9746,3.8324,3.8233,3.7633,3.7638,3.9008,3.9207,3.8962,3.8311,3.6856,3.5812,3.5614,3.3443,3.2689,3.4316,3.3389,3.4316,3.7941,3.8112,3.9435,4.2349,4.2477,4.2495,4.2529,4.2489,4.2342,4.2097,4.2223,4.2271,4.2226,4.1348,4.0986,4.09,4.0629,4.0375,4.007,4.007,4.007,4.007,4.007,4.007,4.007,4.007,4.007,4.007,3.5878,3.583,3.6213,3.7662,3.895,4.0171,4.1324,4.2627,4.3103,4.2063,4.1927,4.1927,4.1927,4.2857,4.3497,4.3497,4.3497,4.3497,4.3497,4.3497,4.3497,4.3497,4.3497,4.3497,4.3497,4.3497,4.2334,3.9927,3.9645,3.8357,3.617,3.571,3.559,3.5828,3.7302,3.8362,3.92,4.1533,4.2713,4.309,4.3727,4.3955,4.3849,4.3597,4.3497,4.3497,4.3497,4.3497,4.3497,4.3497,4.3497,4.3497,4.3497,4.3497,4.3497,4.3497,4.3497,4.3497,4.3497,4.3497,4.3497,4.3497,4.3497,4.3497,4.3497,4.3497,4.3497,4.3497,4.3497,4.3051,4.1687,4.0551,3.9709,3.9317,3.8602,3.8471,3.9528,3.9927,4.0,3.974,3.7873,3.6671,3.673,3.4546,3.3615,3.4764,3.4567,3.5058,3.6612,3.7765,3.9349,4.1426,4.1499,4.1878,4.2624,4.2172,4.2304,4.3078,4.2823,4.2763,4.2876,4.2132,4.1615,4.1272,4.103,4.0612,4.007,4.007,4.007,4.007,4.007,4.007,4.007,4.007,4.007,4.007,3.7067,3.6913,3.7162,3.8984,4.0075,4.0872,4.1417,4.2627,4.3458,4.3345,4.3327,4.3327,4.3327,4.3422,4.3497,4.3497,4.3497,4.3497,4.3497,4.3497,4.3497,4.3497,4.3497,4.3497,4.3497,4.3497,4.2779,4.1295,4.0108,3.912,3.8366,3.6408,3.6124,3.7317,3.7862,3.9561,4.2124,4.245,4.3295,4.4379,4.4119,4.3836,4.3548,4.3513,4.3497,4.3497,4.3497,4.3497,4.3497,4.3497,4.3497,4.3497,4.3497,4.3497,4.3497,4.3497,4.3497,4.3497,4.3497,4.3497,4.3497,4.3497,4.3497,4.3497,4.3497,4.3497,4.3497,4.3497,4.3497,4.3067,4.1735,4.1334,4.0828,3.9646,4.0337,4.1071,4.1251,4.2307,4.2653,4.1426,3.9984,3.9079,3.9069,3.6534,3.5461,3.69,3.6141,3.6306,3.7843,3.8784,3.9944,4.1444,4.1499,4.0974,3.989,4.2154,4.2754,4.1697,4.237,4.2937,4.3396,4.23,4.2064,4.2468,4.1354,4.0612,4.007,4.007,4.007,4.007,4.007,4.007,4.007,4.007,4.007,4.007,3.8615,3.8527,3.8883,4.0424,4.0979,4.1539,4.253,4.3159,4.3497,4.3497,4.3497,4.3497,4.3497,4.3497,4.3497,4.3497,4.3497,4.3497,4.3497,4.3497,4.3497,4.3497,4.3497,4.3497,4.3497,4.3497,4.2853,4.1508,4.0158,3.8965,3.7966,3.7085,3.7414,3.8745,3.9897,4.118,4.2538,4.3164,4.3894,4.4553,4.3943,4.3631,4.3497,4.3497,4.3497,4.3497,4.3497,4.3497,4.3497,4.3497,4.3497,4.3497,4.3497,4.3497,4.3497,4.3497,4.3497,4.3497,4.3497,4.3497,4.3497,4.3497,4.3497,4.3497,4.3497,4.3497,4.3497,4.3497,4.3497,4.3345,4.2797,4.2032,4.1568,4.1834,4.1661,4.1761,4.2582,4.3151,4.3004,4.1606,4.0215,3.939,3.9404,3.6836,3.5783,3.7299,3.6139,3.604,3.7601,3.8781,3.9676,4.0284,4.1854,4.2044,4.0719,4.2551,4.3224,4.2713,4.3041,4.3296,4.3479,4.3041,4.2569,4.2119,4.129,4.0612,4.007,4.007,4.007,4.007,4.007,4.007,4.007,4.007,4.007,4.007,4.0021,3.9977,4.0333,4.1809,4.1969,4.2242,4.3327,4.3497,4.3497,4.3497,4.3497,4.3497,4.3497,4.3497,4.3497,4.3497,4.3497,4.3497,4.3497,4.3497,4.3497,4.3497,4.3497,4.3497,4.3497,4.3497,4.3045,4.21,4.0755,3.972,3.9044,3.8641,3.9063,4.0146,4.1379,4.2304,4.2991,4.3699,4.4146,4.4364,4.3744,4.3497,4.3497,4.3497,4.3497,4.3497,4.3497,4.3497,4.3497,4.3497,4.3497,4.3497,4.3497,4.3497,4.3497,4.3497,4.3497,4.3497,4.3497,4.3497,4.3497,4.3497,4.3497,4.3497,4.3497,4.3497,4.3497,4.3497,4.3497,4.3497,4.3497,4.2705,4.226,4.2834,4.2451,4.2286,4.2841,4.3244,4.3004,4.1606,4.0244,3.9589,3.9976,3.7573,3.677,3.8646,3.746,3.707,3.8109,3.9064,3.9788,4.0232,4.2063,4.2562,4.1515,4.2823,4.3497,4.3497,4.3497,4.3497,4.3497,4.3497,4.2878,4.1792,4.1359,4.0781,4.007,4.007,4.007,4.007,4.007,4.007,4.007,4.007,4.007,4.007,4.1212,4.1098,4.1349,4.3155,4.3093,4.2959,4.3419,4.3497,4.3497,4.3497,4.3497,4.3497,4.3497,4.3497,4.3497,4.3497,4.3497,4.3497,4.3497,4.3497,4.3497,4.3497,4.3497,4.3497,4.3497,4.3497,4.3479,4.3495,4.2125,4.1928,4.272,4.1391,4.102,4.15,4.1822,4.2742,4.3979,4.3998,4.3998,4.3986,4.3646,4.3497,4.3497,4.3497,4.3497,4.3497,4.3497,4.3497,4.3497,4.3497,4.3497,4.3497,4.3497,4.3497,4.3497,4.3497,4.3497,4.3497,4.3497,4.3497,4.3497,4.3497,4.3497,4.3497,4.3497,4.3497,4.3497,4.3497,4.3497,4.3497,4.3497,4.3479,4.3063,4.1746,4.2608,4.3005,4.1713,4.2679,4.3023,4.1661,4.0321,4.002,4.1354,3.9295,3.8965,4.1655,4.0854,4.0156,3.9985,3.9984,4.0597,4.1928,4.2003,4.1854,4.1497,4.2823,4.3497,4.3497,4.3497,4.3497,4.3497,4.3497,4.2878,4.181,4.1799,4.1171,4.007,4.007,4.007,4.007,4.007,4.007,4.007,4.007,4.007,4.007,4.2779,4.2733,4.282,4.3419,4.3361,4.3336,4.3477,4.3497,4.3497,4.3497,4.3497,4.3497,4.3497,4.3497,4.3497,4.3497,4.3497,4.3497,4.3497,4.3497,4.3497,4.3497,4.3497,4.3497,4.3497,4.3497,4.3497,4.3497,4.2162,4.1638,4.1898,4.1474,4.1832,4.289,4.2982,4.3398,4.3986,4.3758,4.3804,4.3986,4.3612,4.3497,4.3497,4.3497,4.3497,4.3497,4.3497,4.3497,4.3497,4.3497,4.3497,4.3497,4.3497,4.3497,4.3497,4.3497,4.3497,4.3497,4.3497,4.3497,4.3497,4.3497,4.3497,4.3497,4.3497,4.3497,4.3497,4.3497,4.3497,4.3497,4.3497,4.3497,4.3348,4.293,4.3198,4.3343,4.2902,4.2441,4.1624,4.0215,3.8931,3.8651,3.9935,3.8598,3.8361,4.0139,3.9089,3.8937,4.0208,4.0908,4.1079,4.0637,4.2171,4.2549,4.1499,4.2823,4.3497,4.3497,4.3497,4.3497,4.3497,4.3497,4.3096,4.2391,4.2002,4.1392,4.0629,4.0239,4.007,4.007,4.007,4.007,4.007,4.007,4.007,4.007,4.3497,4.3497,4.3497,4.3497,4.3497,4.3497,4.3497,4.3497,4.3497,4.3497,4.3497,4.3497,4.3497,4.3497,4.3497,4.3497,4.3497,4.3497,4.3497,4.3497,4.3497,4.3497,4.3497,4.3497,4.3497,4.3497,4.3497,4.3497,4.2664,4.2242,4.2242,4.2242,4.2719,4.3497,4.3497,4.3631,4.3804,4.3597,4.3612,4.3804,4.3597,4.3497,4.3497,4.3497,4.3497,4.3497,4.3497,4.3497,4.3497,4.3497,4.3497,4.3497,4.3497,4.3497,4.3497,4.3497,4.3497,4.3497,4.3497,4.3497,4.3497,4.3497,4.3497,4.3497,4.3497,4.3497,4.3497,4.3497,4.3497,4.3497,4.3497,4.3497,4.3497,4.3497,4.3497,4.3332,4.2823,4.2024,4.0983,3.9602,3.8747,3.8771,4.0078,3.9586,3.976,4.1089,4.056,4.0691,4.1911,4.1453,4.1297,4.1509,4.2936,4.3224,4.226,4.3078,4.3497,4.3497,4.3497,4.3497,4.3497,4.3497,4.3206,4.2681,4.2056,4.1482,4.0849,4.0341,4.007,4.007,4.007,4.007,4.007,4.007,4.007,4.007,4.3497,4.3497,4.3497,4.3497,4.3497,4.3497,4.3497,4.3497,4.3497,4.3497,4.3497,4.3497,4.3497,4.3497,4.3497,4.3497,4.3497,4.3497,4.3497,4.3497,4.3497,4.3497,4.3497,4.3497,4.3497,4.3497,4.3497,4.3497,4.3497,4.3497,4.3497,4.3497,4.3497,4.3497,4.3497,4.3497,4.3497,4.3497,4.3497,4.3497,4.3497,4.3497,4.3497,4.3497,4.3497,4.3497,4.3497,4.3497,4.3497,4.3497,4.3497,4.3497,4.3497,4.3497,4.3497,4.3497,4.3497,4.3497,4.3497,4.3497,4.3497,4.3497,4.3497,4.3497,4.3497,4.3497,4.3497,4.3497,4.3497,4.3497,4.3497,4.3497,4.3497,4.3497,4.3424,4.2915,4.1679,4.1434,4.0905,3.9662,3.95,4.0033,4.1371,4.1785,4.2499,4.3716,4.4175,4.4384,4.4384,4.1671,4.1292,4.3924,4.3962,4.3807,4.3497,4.3497,4.3497,4.3497,4.3497,4.3497,4.3497,4.3497,4.3224,4.2732,4.2061,4.1479,4.09,4.0358,4.007,4.007,4.007,4.007,4.007,4.007,4.007,4.007,4.3497,4.3497,4.3497,4.3497,4.3497,4.3497,4.3497,4.3497,4.3497,4.3497,4.3497,4.3497,4.3497,4.3497,4.3497,4.3497,4.3497,4.3497,4.3497,4.3497,4.3497,4.3497,4.3497,4.3497,4.3497,4.3497,4.3497,4.3497,4.3497,4.3497,4.3497,4.3497,4.3497,4.3497,4.3497,4.3497,4.3497,4.3497,4.3497,4.3497,4.3497,4.3497,4.3497,4.3497,4.3497,4.3497,4.3497,4.3497,4.3497,4.3497,4.3497,4.3497,4.3497,4.3497,4.3497,4.3497,4.3497,4.3497,4.3497,4.3497,4.3497,4.3497,4.3497,4.3497,4.3497,4.3497,4.3497,4.3497,4.3497,4.3497,4.3497,4.3497,4.3497,4.3497,4.2624,4.1878,4.1517,4.0609,3.9846,3.9538,3.95,4.0033,4.1371,4.1562,4.1751,4.2058,4.2164,4.224,4.224,4.153,4.2034,4.3932,4.3758,4.3587,4.3497,4.3497,4.3497,4.3497,4.3497,4.3497,4.3497,4.3497,4.3424,4.3243,4.2242,4.1716,4.1494,4.0493,4.007,4.007,4.007,4.007,4.007,4.007,4.007,4.007,4.3497,4.3497,4.3497,4.3497,4.3497,4.3497,4.3497,4.3497,4.3497,4.3497,4.3497,4.3497,4.3497,4.3497,4.3497,4.3497,4.3497,4.3497,4.3497,4.3497,4.3497,4.3497,4.3497,4.3497,4.3497,4.3497,4.3497,4.3497,4.3497,4.3497,4.3497,4.3497,4.3497,4.3497,4.3497,4.3497,4.3497,4.3497,4.3497,4.3497,4.3497,4.3497,4.3497,4.3497,4.3497,4.3497,4.3497,4.3497,4.3497,4.3497,4.3497,4.3497,4.3497,4.3497,4.3497,4.3497,4.3497,4.3497,4.3497,4.3497,4.3497,4.3497,4.3497,4.3497,4.3497,4.3497,4.3497,4.3497,4.3497,4.3497,4.3497,4.3497,4.3497,4.3497,4.2333,4.1467,4.1501,4.0324,3.9695,4.0337,4.0392,4.0937,4.2278,4.2422,4.2415,4.24,4.2414,4.2414,4.2414,4.2414,4.2847,4.3738,4.3575,4.3497,4.3497,4.3497,4.3497,4.3497,4.3497,4.3497,4.3497,4.3497,4.3497,4.3442,4.2278,4.1787,4.1698,4.0578,4.007,4.007,4.007,4.007,4.007,4.007,4.007,4.007,4.3497,4.3497,4.3497,4.3497,4.3497,4.3497,4.3497,4.3497,4.3497,4.3497,4.3497,4.3497,4.3497,4.3497,4.3497,4.3497,4.3497,4.3497,4.3497,4.3497,4.3497,4.3497,4.3497,4.3497,4.3497,4.3497,4.3497,4.3497,4.3497,4.3497,4.3497,4.3497,4.3497,4.3497,4.3497,4.3497,4.3497,4.3497,4.3497,4.3497,4.3497,4.3497,4.3497,4.3497,4.3497,4.3497,4.3497,4.3497,4.3497,4.3497,4.3497,4.3497,4.3497,4.3497,4.3497,4.3497,4.3497,4.3497,4.3497,4.3497,4.3497,4.3497,4.3497,4.3497,4.3497,4.3497,4.3497,4.3497,4.3497,4.3497,4.3497,4.3497,4.3424,4.3224,4.2006,4.1107,4.1188,4.0152,3.9916,4.1335,4.1679,4.226,4.3387,4.3497,4.3497,4.3497,4.3497,4.3497,4.3497,4.3497,4.3497,4.3497,4.3497,4.3497,4.3497,4.3497,4.3497,4.3497,4.3497,4.3497,4.3497,4.3497,4.3497,4.3442,4.237,4.1899,4.1715,4.0646,4.0189,4.007,4.007,4.007,4.007,4.007,4.007,4.007,4.3497,4.3497,4.3497,4.3497,4.3497,4.3497,4.3497,4.3497,4.3497,4.3497,4.3497,4.3497,4.3497,4.3497,4.3497,4.3497,4.3497,4.3497,4.3497,4.3497,4.3497,4.3497,4.3497,4.3497,4.3497,4.3497,4.3497,4.3497,4.3497,4.3497,4.3497,4.3497,4.3497,4.3497,4.3497,4.3497,4.3497,4.3497,4.3497,4.3497,4.3497,4.3497,4.3497,4.3497,4.3497,4.3497,4.3497,4.3497,4.3497,4.3497,4.3497,4.3497,4.3497,4.3497,4.3497,4.3497,4.3497,4.3497,4.3497,4.3497,4.3497,4.3497,4.3497,4.3497,4.3497,4.3497,4.3497,4.3497,4.3497,4.3497,4.3497,4.3497,4.3133,4.1988,4.063,3.9724,3.9783,3.958,3.991,4.1332,4.2514,4.3277,4.3479,4.3497,4.3497,4.3497,4.3497,4.3497,4.3497,4.3497,4.3497,4.3497,4.3497,4.3497,4.3497,4.3497,4.3497,4.3497,4.3497,4.3497,4.3497,4.3497,4.3497,4.3461,4.2823,4.2262,4.1732,4.1052,4.0493,4.007,4.007,4.007,4.007,4.007,4.007,4.007,4.3497,4.3497,4.3497,4.3497,4.3497,4.3497,4.3497,4.3497,4.3497,4.3497,4.3497,4.3497,4.3497,4.3497,4.3497,4.3497,4.3497,4.3497,4.3497,4.3497,4.3497,4.3497,4.3497,4.3497,4.3497,4.3497,4.3497,4.3497,4.3497,4.3497,4.3497,4.3497,4.3497,4.3497,4.3497,4.3497,4.3497,4.3497,4.3497,4.3497,4.3497,4.3497,4.3497,4.3497,4.3497,4.3497,4.3497,4.3497,4.3497,4.3497,4.3497,4.3497,4.3497,4.3497,4.3497,4.3497,4.3497,4.3497,4.3497,4.3497,4.3497,4.3497,4.3497,4.3497,4.3497,4.3497,4.3497,4.3497,4.3497,4.3497,4.3497,4.3497,4.3059,4.1679,4.0901,4.0468,4.0539,4.052,4.0992,4.2422,4.3114,4.3497,4.3497,4.3497,4.3497,4.3497,4.3497,4.3497,4.3497,4.3497,4.3497,4.3497,4.3497,4.3497,4.3497,4.3497,4.3497,4.3497,4.3497,4.3497,4.3497,4.3497,4.3497,4.3461,4.2915,4.2343,4.1748,4.1148,4.0849,4.0676,4.0676,4.0948,4.1285,4.1285,4.1287,4.1271,4.3497,4.3497,4.3497,4.3497,4.3497,4.3497,4.3497,4.3497,4.3497,4.3497,4.3497,4.3497,4.3497,4.3497,4.3497,4.3497,4.3497,4.3497,4.3497,4.3497,4.3497,4.3497,4.3497,4.3497,4.3497,4.3497,4.3497,4.3497,4.3497,4.3497,4.3497,4.3497,4.3497,4.3497,4.3497,4.3497,4.3497,4.3497,4.3497,4.3497,4.3497,4.3497,4.3497,4.3497,4.3497,4.3497,4.3497,4.3497,4.3513,4.3597,4.3631,4.3612,4.3744,4.3777,4.3744,4.3646,4.3631,4.3664,4.3744,4.3679,4.3646,4.3744,4.3679,4.3631,4.3631,4.3679,4.3712,4.3548,4.3563,4.3597,4.3513,4.3497,4.3041,4.1661,4.1407,4.1407,4.1426,4.1407,4.1933,4.3332,4.3497,4.3497,4.3497,4.3497,4.3497,4.3497,4.3497,4.3497,4.3497,4.3497,4.3497,4.3497,4.3497,4.3497,4.3497,4.3497,4.3497,4.3497,4.3497,4.3497,4.3497,4.3497,4.3589,4.3754,4.3353,4.2828,4.2296,4.1805,4.1595,4.1449,4.1429,4.1819,4.229,4.2311,4.2281,4.2286,4.3497,4.3497,4.3497,4.3497,4.3497,4.3497,4.3497,4.3497,4.3497,4.3497,4.3497,4.3497,4.3497,4.3497,4.3497,4.3497,4.3497,4.3497,4.3497,4.3497,4.3497,4.3497,4.3497,4.3497,4.3497,4.3497,4.3497,4.3497,4.3497,4.3497,4.3497,4.3497,4.3497,4.3497,4.3497,4.3497,4.3497,4.3497,4.3497,4.3497,4.3497,4.3497,4.3497,4.3497,4.3497,4.3497,4.3497,4.3497,4.3548,4.3849,4.3955,4.4046,4.4392,4.4501,4.4447,4.4076,4.3955,4.4028,4.4419,4.4252,4.4046,4.4419,4.4252,4.3955,4.3955,4.4252,4.4308,4.3631,4.3758,4.3881,4.3582,4.3497,4.3059,4.1716,4.1444,4.1426,4.148,4.1444,4.1933,4.3332,4.3497,4.3497,4.3497,4.3497,4.3497,4.3497,4.3497,4.3497,4.3497,4.3497,4.3497,4.3497,4.3497,4.3497,4.3497,4.3497,4.3497,4.3497,4.3497,4.3497,4.3497,4.3497,4.3901,4.4617,4.4563,4.4304,4.3918,4.3883,4.3214,4.2236,4.221,4.224,4.2274,4.2301,4.2303,4.2286,4.3497,4.3497,4.3497,4.3497,4.3497,4.3497,4.3497,4.3497,4.3497,4.3497,4.3497,4.3497,4.3497,4.3497,4.3497,4.3497,4.3497,4.3497,4.3497,4.3497,4.3497,4.3497,4.3497,4.3497,4.3497,4.3497,4.3497,4.3497,4.3497,4.3497,4.3497,4.3497,4.3497,4.3497,4.3497,4.3497,4.3497,4.3497,4.3497,4.3497,4.3497,4.3497,4.3497,4.3497,4.3612,4.3804,4.3804,4.3974,4.4194,4.4337,4.4373,4.4419,4.4553,4.458,4.4606,4.4663,4.4688,4.4762,4.514,4.4806,4.4419,4.4553,4.4501,4.4373,4.4373,4.4501,4.4527,4.4223,4.4277,4.4255,4.3869,4.3804,4.3296,4.1697,4.2168,4.2422,4.1535,4.2187,4.2896,4.3442,4.3497,4.3497,4.3497,4.3497,4.3497,4.3497,4.3497,4.3497,4.3497,4.3497,4.3497,4.3497,4.3497,4.3497,4.3497,4.3497,4.3497,4.3497,4.4011,4.425,4.4268,4.4764,4.5149,4.5443,4.5443,4.5146,4.47,4.4283,4.3912,4.3546,4.3122,4.3314,4.3736,4.3724,4.3707,4.3707,4.3497,4.3497,4.3497,4.3497,4.3497,4.3497,4.3497,4.3497,4.3497,4.3497,4.3497,4.3497,4.3497,4.3497,4.3497,4.3497,4.3497,4.3497,4.3497,4.3497,4.3497,4.3497,4.3497,4.3497,4.3497,4.3497,4.3497,4.3497,4.3497,4.3497,4.3497,4.3497,4.3497,4.3497,4.3497,4.3497,4.3497,4.3497,4.3497,4.3497,4.3497,4.3563,4.3646,4.3646,4.3899,4.4175,4.4175,4.4364,4.4624,4.4707,4.4776,4.4776,4.4896,4.483,4.4806,4.5161,4.518,4.518,4.5513,4.5263,4.4919,4.4919,4.483,4.4751,4.4764,4.4843,4.4834,4.4656,4.4682,4.4624,4.4252,4.4178,4.3752,4.2441,4.3041,4.3296,4.2223,4.2878,4.3497,4.3497,4.3497,4.3497,4.3497,4.3497,4.3497,4.3497,4.3497,4.3497,4.3497,4.3497,4.3497,4.3497,4.3497,4.3497,4.3497,4.3497,4.3626,4.3883,4.4452,4.4837,4.5112,4.5645,4.6049,4.6287,4.6287,4.6116,4.5779,4.5301,4.4971,4.4714,4.4247,4.43,4.4587,4.4587,4.4587,4.4587,4.3497,4.3497,4.3497,4.3497,4.3497,4.3497,4.3497,4.3497,4.3497,4.3497,4.3497,4.3497,4.3497,4.3497,4.3497,4.3497,4.3497,4.3497,4.3497,4.3497,4.3497,4.3497,4.3497,4.3497,4.3497,4.3497,4.3497,4.3497,4.3497,4.3497,4.3497,4.3497,4.3497,4.3497,4.3497,4.3497,4.3497,4.3497,4.3497,4.3497,4.3479,4.3693,4.4016,4.3998,4.4261,4.4606,4.4606,4.4624,4.4657,4.4988,4.5096,4.5161,4.5495,4.5362,4.518,4.5495,4.5362,4.518,4.5513,4.5586,4.5586,4.5586,4.5342,4.5094,4.5099,4.536,4.5399,4.4744,4.4861,4.5017,4.4675,4.4606,4.4462,4.4078,4.3989,4.3897,4.3534,4.3497,4.3497,4.3497,4.3497,4.3497,4.3497,4.3497,4.3497,4.3497,4.3497,4.3497,4.3497,4.3497,4.3497,4.3497,4.3497,4.3497,4.3497,4.3497,4.3901,4.4709,4.4727,4.5149,4.5902,4.592,4.6361,4.7131,4.7131,4.7208,4.7385,4.7385,4.6635,4.5511,4.5511,4.5142,4.4587,4.4587,4.4587,4.4587,4.3497,4.3497,4.3497,4.3497,4.3497,4.3497,4.3497,4.3497,4.3497,4.3497,4.3497,4.3497,4.3497,4.3497,4.3497,4.3497,4.3497,4.3497,4.3497,4.3497,4.3497,4.3497,4.3497,4.3497,4.3497,4.3497,4.3497,4.3497,4.3497,4.3497,4.3497,4.3497,4.3497,4.3497,4.3497,4.3497,4.3497,4.3497,4.3497,4.3513,4.3758,4.3893,4.4028,4.4318,4.4657,4.4943,4.4943,4.5096,4.5322,4.5419,4.5438,4.5476,4.5568,4.5531,4.5476,4.5568,4.5531,4.5457,4.5568,4.5586,4.5586,4.5586,4.5513,4.5457,4.5458,4.5532,4.5549,4.5323,4.5379,4.5358,4.4997,4.4968,4.4817,4.4471,4.4184,4.397,4.3879,4.366,4.3497,4.3497,4.3497,4.3497,4.3497,4.3497,4.3497,4.3497,4.3497,4.3497,4.3497,4.3497,4.3497,4.3497,4.4048,4.4342,4.4342,4.4342,4.447,4.4727,4.5847,4.6526,4.6764,4.7333,4.7719,4.7957,4.7957,4.7991,4.7995,4.7572,4.691,4.6112,4.5699,4.5142,4.4587,4.4587,4.4587,4.4587,4.3497,4.3497,4.3497,4.3497,4.3497,4.3497,4.3497,4.3497,4.3497,4.3497,4.3497,4.3497,4.3497,4.3497,4.3497,4.3497,4.3497,4.3497,4.3497,4.3497,4.3497,4.3497,4.3497,4.3497,4.3497,4.3497,4.3497,4.3497,4.3497,4.3497,4.3497,4.3497,4.3497,4.3497,4.3497,4.3497,4.3497,4.3497,4.3563,4.3726,4.3924,4.4175,4.4463,4.4707,4.5007,4.5302,4.5302,4.5419,4.5586,4.5586,4.5586,4.5586,4.5586,4.5586,4.5586,4.5586,4.5586,4.5586,4.5586,4.5586,4.5586,4.5586,4.5586,4.5586,4.5586,4.5586,4.5586,4.5586,4.5586,4.5528,4.5336,4.5297,4.5201,4.4857,4.4596,4.4383,4.4271,4.4069,4.3881,4.3717,4.3717,4.3656,4.3513,4.3497,4.3497,4.3497,4.3497,4.3497,4.3497,4.3497,4.3644,4.3956,4.4452,4.4856,4.5168,4.5498,4.5663,4.5681,4.6654,4.7297,4.7609,4.8086,4.8306,4.8306,4.8035,4.7937,4.7897,4.7281,4.6618,4.6014,4.5648,4.5142,4.4587,4.4587,4.4587,4.4587,4.3497,4.3497,4.3497,4.3497,4.3497,4.3497,4.3497,4.3497,4.3497,4.3497,4.3497,4.3497,4.3497,4.3497,4.3497,4.3497,4.3497,4.3497,4.3497,4.3497,4.3497,4.3497,4.3497,4.3497,4.3497,4.3497,4.3497,4.3497,4.3497,4.3497,4.3497,4.3497,4.3497,4.3497,4.3497,4.3497,4.3497,4.3497,4.3693,4.3998,4.4028,4.4463,4.5096,4.5118,4.5342,4.5586,4.5586,4.5586,4.5586,4.5586,4.5586,4.5586,4.5586,4.5586,4.5586,4.5586,4.5586,4.5586,4.5586,4.5586,4.5586,4.5586,4.5586,4.5586,4.5586,4.5586,4.5586,4.5586,4.5586,4.5586,4.5586,4.5586,4.549,4.5201,4.5124,4.4991,4.4703,4.4611,4.4452,4.4112,4.4036,4.3874,4.3579,4.3513,4.3497,4.3497,4.3497,4.3497,4.3497,4.3552,4.3938,4.469,4.4856,4.5278,4.5993,4.6819,4.7186,4.7113,4.7186,4.7609,4.8306,4.8306,4.8267,4.8172,4.7614,4.7385,4.7237,4.6664,4.6046,4.5511,4.5511,4.5142,4.4587,4.4587,4.4587,4.4587,4.3497,4.3497,4.3497,4.3497,4.3497,4.3497,4.3497,4.3497,4.3497,4.3497,4.3497,4.3497,4.3497,4.3497,4.3497,4.3497,4.3497,4.3497,4.3497,4.3497,4.3497,4.3497,4.3497,4.3497,4.3497,4.3497,4.3497,4.3497,4.3497,4.3497,4.3497,4.3497,4.3497,4.3497,4.3497,4.3497,4.3497,4.3497,4.3693,4.4046,4.4346,4.4732,4.5118,4.54,4.555,4.5586,4.5586,4.5586,4.5586,4.5586,4.5586,4.5586,4.5586,4.5586,4.5586,4.5586,4.5586,4.5586,4.5586,4.5586,4.5586,4.5586,4.5586,4.5586,4.5586,4.5586,4.5586,4.5586,4.5586,4.5586,4.5586,4.5586,4.5566,4.549,4.5278,4.5068,4.4991,4.4779,4.4567,4.4471,4.4195,4.3979,4.3912,4.3646,4.3497,4.3497,4.3497,4.3497,4.3497,4.4103,4.4525,4.4709,4.5938,4.6673,4.6856,4.7645,4.7737,4.7131,4.7755,4.8141,4.8306,4.8306,4.8035,4.7572,4.747,4.7106,4.6618,4.6478,4.6046,4.5511,4.5511,4.5142,4.4587,4.4587,4.4587,4.4587,4.3497,4.3497,4.3497,4.3497,4.3497,4.3497,4.3497,4.3497,4.3497,4.3497,4.3497,4.3497,4.3497,4.3497,4.3497,4.3497,4.3497,4.3497,4.3497,4.3497,4.3497,4.3497,4.3497,4.3497,4.3497,4.3497,4.3497,4.3497,4.3497,4.3497,4.3497,4.3497,4.3497,4.3532,4.3679,4.3646,4.3513,4.3886,4.4125,4.4318,4.4682,4.5052,4.5362,4.5531,4.5586,4.5586,4.5586,4.5586,4.5586,4.5586,4.5586,4.5586,4.5586,4.5586,4.5586,4.5586,4.5586,4.5586,4.5586,4.5586,4.5586,4.5586,4.5586,4.5586,4.5586,4.5586,4.5586,4.5586,4.5586,4.5586,4.5586,4.5586,4.5586,4.5586,4.5451,4.5336,4.5336,4.5189,4.5025,4.4853,4.4638,4.4455,4.429,4.3943,4.3758,4.3758,4.3597,4.3663,4.4048,4.447,4.5057,4.5828,4.6673,4.7297,4.7682,4.8104,4.8104,4.77,4.8104,4.8306,4.8306,4.8306,4.8132,4.7797,4.7194,4.671,4.6383,4.5783,4.5372,4.5089,4.5089,4.4852,4.4587,4.4587,4.4587,4.4587,4.3497,4.3497,4.3497,4.3497,4.3497,4.3497,4.3497,4.3497,4.3497,4.3497,4.3497,4.3497,4.3497,4.3497,4.3497,4.3497,4.3497,4.3497,4.3497,4.3497,4.3497,4.3497,4.3497,4.3497,4.3497,4.3497,4.3497,4.3497,4.3497,4.3497,4.3497,4.3497,4.3497,4.3513,4.3849,4.3868,4.3631,4.4308,4.4631,4.4707,4.5007,4.5302,4.5586,4.5586,4.5586,4.5586,4.5586,4.5586,4.5586,4.5586,4.5586,4.5586,4.5586,4.5586,4.5586,4.5586,4.5586,4.5586,4.5586,4.5586,4.5586,4.5586,4.5586,4.5586,4.5586,4.5586,4.5586,4.5586,4.5586,4.5586,4.5586,4.5586,4.5586,4.5586,4.5586,4.5586,4.5586,4.5586,4.5495,4.5222,4.5118,4.4966,4.4631,4.4308,4.4087,4.4087,4.3966,4.4143,4.4741,4.5053,4.579,4.7076,4.7298,4.7684,4.8306,4.8364,4.8364,4.8306,4.8306,4.8306,4.8306,4.8306,4.8249,4.8075,4.6892,4.6336,4.6143,4.5052,4.4587,4.4587,4.4587,4.4587,4.4587,4.4587,4.4587,4.4587,4.3497,4.3497,4.3497,4.3497,4.3497,4.3497,4.3497,4.3497,4.3497,4.3497,4.3497,4.3497,4.3497,4.3497,4.3497,4.3497,4.3497,4.3497,4.3497,4.3497,4.3497,4.3497,4.3497,4.3497,4.3497,4.3497,4.3497,4.3497,4.3497,4.3497,4.3497,4.3497,4.3497,4.3513,4.3849,4.3986,4.3955,4.4419,4.4776,4.5052,4.5074,4.5302,4.5586,4.5586,4.5586,4.5586,4.5586,4.5586,4.5586,4.5586,4.5586,4.5586,4.5586,4.5586,4.5586,4.5586,4.5586,4.5586,4.5586,4.5586,4.5586,4.5586,4.5586,4.5586,4.5586,4.5586,4.5586,4.5586,4.5586,4.5586,4.5586,4.5586,4.5586,4.5586,4.5586,4.5586,4.5586,4.5586,4.5586,4.555,4.5282,4.4966,4.4631,4.4553,4.4527,4.4527,4.5114,4.5377,4.5164,4.649,4.7231,4.7113,4.8103,4.8546,4.8306,4.8657,4.8621,4.8306,4.8306,4.8306,4.8306,4.8306,4.8035,4.747,4.671,4.6094,4.5545,4.4852,4.4587,4.4587,4.4587,4.4587,4.4587,4.4587,4.4587,4.4587,4.3497,4.3497,4.3497,4.3497,4.3497,4.3497,4.3497,4.3497,4.3497,4.3497,4.3497,4.3497,4.3497,4.3497,4.3563,4.3772,4.3772,4.3849,4.4095,4.4125,4.4125,4.4125,4.4125,4.4125,4.4125,4.4125,4.4125,4.4125,4.3899,4.366,4.3479,4.3693,4.3772,4.3804,4.4165,4.4337,4.4373,4.4924,4.514,4.5118,4.5302,4.5476,4.5586,4.5586,4.5586,4.5586,4.5586,4.5586,4.5586,4.5586,4.5586,4.5586,4.5586,4.5586,4.5586,4.5586,4.5586,4.5586,4.5586,4.5586,4.5586,4.5586,4.5586,4.5586,4.5586,4.5586,4.5586,4.5586,4.5586,4.5586,4.5586,4.5586,4.5586,4.5586,4.5586,4.5586,4.5586,4.5586,4.5586,4.5586,4.5476,4.5322,4.5161,4.4988,4.5086,4.5523,4.571,4.6129,4.688,4.7631,4.8159,4.8422,4.8744,4.8795,4.8621,4.8604,4.8495,4.8306,4.8306,4.8306,4.8306,4.8306,4.8153,4.7856,4.7237,4.6819,4.6495,4.5883,4.5597,4.5545,4.5232,4.4906,4.4587,4.4587,4.4587,4.4587]},{"header":{"parameterUnit":"m.s-1","parameterCategory":1,"la1":30.6,"la2":28.766,"lo1":-90.7593,"lo2":-88.6598,"dy":0.0162,"dx":0.0183,"nx":116,"ny":114,"refTime":"2023-08-22T12:00:00:Z","depth":0,"parameterNumber":3,"parameterNumberName":"V-component_of_WINDS"},"data":[0.0,0.0,0.0,0.0,0.0,0.0,0.0,0.0,0.0,0.0,0.0,0.0,0.0,0.0,0.0,0.0,0.0,0.0,0.0,0.0,0.0,0.0,0.0,0.0,0.0,0.0,0.0,0.0,0.0,0.0,0.0,0.0,0.0,0.0,0.0,0.0,0.0,0.0,0.0,0.0,0.0,0.0,0.0,0.0,0.0,0.0,0.0,0.0,0.0,0.0,0.0,0.0,0.0,0.0,0.0,0.0,0.0,0.0,0.0,0.0,0.0,0.0,0.0,0.0,0.0,0.0,0.0,0.0,0.0,0.0,0.0,0.0,0.0,0.0,0.0,0.0,0.0,0.0,0.0,0.0,0.0,0.0,0.0,0.0,0.0,0.0,0.0,0.0,0.0,0.0,0.0,0.0,0.0,0.0,0.0,0.0,0.0,0.0,0.0,0.0,0.0,0.0,0.0,0.0,0.0,0.0,0.0,0.0,0.0,0.0,0.0,0.0,0.0,0.0,0.0,0.0,0.0,0.0,0.0,0.0,0.0,0.0,0.0,0.0,0.0,0.0,0.0,0.0,0.0,0.0,0.0,0.0,0.0,0.0,0.0,0.0,0.0,0.0,0.0,0.0,0.0,0.0,0.0,0.0,0.0,0.0,0.0,0.0,0.0,0.0,0.0,0.0,0.0,0.0,0.0,0.0,0.0,0.0,0.0,0.0,0.0,0.0,0.0,0.0,0.0,0.0,0.0,0.0,0.0,0.0,0.0,0.0,0.0,0.0,0.0,0.0,0.0,0.0,0.0,0.0,0.0,0.0,0.0,0.0,0.0,0.0,0.0,0.0,0.0,0.0,0.0,0.0,0.0,0.0,0.0,0.0,0.0,0.0,0.0,0.0,0.0,0.0,0.0,0.0,0.0,0.0,0.0,0.0,0.0,0.0,0.0,0.0,0.0,0.0,0.0,0.0,0.0,0.0,0.0,0.0,0.0,0.0,0.0,0.0,0.0,0.0,0.0,0.0,0.0,0.0,0.0,0.0,0.0,0.0,0.0,0.0,0.0,0.0,0.0,0.0,0.0,0.0,0.0,0.0,0.0,0.0,0.0,0.0,0.0,0.0,0.0,0.0,0.0,0.0,0.0,0.0,0.0,0.0,0.0,0.0,0.0,0.0,0.0,0.0,0.0,0.0,0.0,0.0,0.0,0.0,0.0,0.0,0.0,0.0,0.0,0.0,0.0,0.0,0.0,0.0,0.0,0.0,0.0,0.0,0.0,0.0,0.0,0.0,0.0,0.0,0.0,0.0,0.0,0.0,0.0,0.0,0.0,0.0,0.0,0.0,0.0,0.0,0.0,0.0,0.0,0.0,0.0,0.0,0.0,0.0,0.0,0.0,0.0,0.0,0.0,0.0,0.0,0.0,0.0,0.0,0.0,0.0,0.0,0.0,0.0,0.0,0.0,0.0,0.0,0.0,0.0,0.0,0.0,0.0,0.0,0.0,0.0,0.0,0.0,0.0,0.0,0.0,0.0,0.0,0.0,0.0,0.0,0.0,0.0,0.0,0.0,0.0,0.0,0.0,0.0,0.0,0.0,0.0,0.0,0.0,0.0,0.0,0.0,0.0,0.0,0.0,0.0,0.0,0.0,0.0,0.0,0.0,0.0,0.0,0.0,0.0,0.0,0.0,0.0,0.0,0.0,0.0,0.0,0.0,0.0,0.0,0.0,0.0,0.0,0.0,0.0,0.0,0.0,0.0,0.0,0.0,0.0,0.0,0.0,0.0,0.0,0.0,0.0,0.0,0.0,0.0,0.0,0.0,0.0,0.0,0.0,0.0,0.0,0.0,0.0,0.0,0.0,0.0,0.0,0.0,0.0,0.0,0.0,0.0,0.0,0.0,0.0,0.0,0.0,0.0,0.0,0.0,0.0,0.0,0.0,0.0,0.0,0.0,0.0,0.0,0.0,0.0,0.0,0.0,0.0,0.0,0.0,0.0,0.0,0.0,0.0,0.0,0.0,0.0,0.0,0.0,0.0,0.0,0.0,0.0,0.0,0.0,0.0,0.0,0.0,0.0,0.0,0.0,0.0,0.0,0.0,0.0,0.0,0.0,0.0,0.0,0.0,0.0,0.0,0.0,0.0,0.0,0.0,0.0,0.0,0.0,0.0,0.0,0.0,0.0,0.0,0.0,0.0,0.0,0.0,0.0,0.0,0.0,0.0,0.0,0.0,0.0,0.0,0.0,0.0,0.0,0.0,0.0,0.0,0.0,0.0,0.0,0.0,0.0,0.0,0.0,0.0,0.0,0.0,0.0,0.0,0.0,0.0,0.0,0.0,0.0,0.0,0.0,0.0,0.0,0.0,0.0,0.0,0.0,0.0,0.0,0.0,0.0,0.0,0.0,0.0,0.0,0.0,0.0,0.0,0.0,0.0,0.0,0.0,0.0,0.0,0.0,0.0,0.0,0.0,0.0,0.0,0.0,0.0,0.0,0.0,0.0,0.0,0.0,0.0,0.0,0.0,0.0,0.0,0.0,0.0,0.0,0.0,0.0,0.0,0.0,0.0,0.0,0.0,0.0,0.0,0.0,0.0,0.0,0.0,0.0,0.0,0.0,0.0,0.0,0.0,0.0,0.0,0.0,0.0,0.0,0.0,0.0,0.0,0.0,0.0,0.0,0.0,0.0,0.0,0.0,0.0,0.0,0.0,0.0,0.0,0.0,0.0,0.0,0.0,0.0,0.0,0.0,0.0,0.0,0.0,0.0,0.0,0.0,0.0,0.0,0.0,0.0,0.0,0.0,0.0,0.0,0.0,0.0,0.0,0.0,0.0,0.0,0.0,0.0,0.0,0.0,0.0,0.0,0.0,0.0,0.0,0.0,0.0,0.0,0.0,0.0,0.0,0.0,0.0,0.0,0.0,0.0,0.0,0.0,0.0,0.0,0.0,0.0,0.0,0.0,0.0,0.0,0.0,0.0,0.0,0.0,0.0,0.0,0.0,0.0,0.0,0.0,0.0,0.0,0.0,0.0,0.0,0.0,0.0,0.0,0.0,0.0,0.0,0.0,0.0,0.0,0.0,0.0,0.0,0.0,0.0,0.0,0.0,0.0,0.0,0.0,0.0,0.0,0.0,0.0,0.0,0.0,0.0,0.0,0.0,0.0,0.0,0.0,0.0,0.0,0.0,0.0,0.0,0.0,0.0,0.0,0.0,0.0,0.0,0.0,0.0,0.0,0.0,0.0,0.0,0.0,0.0,0.0,0.0,0.0,0.0,0.0,0.0,0.0,0.0,0.0,0.0,0.0,0.0,0.0,0.0,0.0,0.0,0.0,0.0,0.0,0.0,0.0,0.0,0.0,0.0,0.0,0.0,0.0,0.0,0.0,0.0,0.0,0.0,0.0,0.0,0.0,0.0,0.0,0.0,0.0,0.0,0.0,0.0,0.0,0.0,0.0,0.0,0.0,0.0,0.0,0.0,0.0,0.0,0.0,0.0,0.0,0.0,0.0,0.0,0.0,0.0,0.0,0.0,0.0,0.0,0.0,0.0,0.0,0.0,0.0,0.0,0.0,0.0,0.0,0.0,0.0,0.0,0.0,0.0,0.0,0.0,0.0,0.0,0.0,0.0,0.0,0.0,0.0,0.0,0.0,0.0,0.0,0.0,0.0,0.0,0.0,0.0,0.0,0.0,0.0,0.0,0.0,0.0,0.0,0.0,0.0,0.0,0.0,0.0,0.0,0.0,0.0,0.0,0.0,0.0,0.0,0.0,0.0,0.0,0.0,0.0,0.0,0.0,0.0,0.0,0.0,0.0,0.0,0.0,0.0,0.0,0.0,0.0,0.0,0.0,0.0,0.0,0.0,0.0,0.0,0.0,0.0,0.0,0.0,0.0,0.0,0.0,0.0,0.0,0.0,0.0,0.0,0.0,0.0,0.0,0.0,0.0,0.0,0.0,0.0,0.0,0.0,0.0,0.0,0.0,0.0,0.0,0.0,0.0,0.0,0.0,0.0,0.0,0.0,0.0,0.0,0.0,0.0,0.0,0.0,0.0,0.0,0.0,0.0,0.0,0.0,0.0,0.0,0.0,0.0,0.0,0.0,0.0,0.0,0.0,0.0,0.0,0.0,0.0,0.0,0.0,0.0,0.0,0.0,0.0,0.0,0.0,0.0,0.0,0.0,0.0,0.0,0.0,0.0,0.0,0.0,0.0,0.0,0.0,0.0,0.0,0.0,0.0,0.0,0.0,0.0,0.0,0.0,0.0,0.0,0.0,0.0,0.0,0.0,0.0,0.0,0.0,0.0,0.0,0.0,0.0,0.0,0.0,0.0,0.0,0.0,0.0,0.0,0.0,0.0,0.0,0.0,0.0,0.0,0.0,0.0,0.0,0.0,0.0,0.0,0.0,0.0,0.0,0.0,0.0,0.0,0.0,0.0,0.0,0.0,0.0,0.0,0.0,0.0,0.0,0.0,0.0,0.0,0.0,0.0,0.0,0.0,0.0,0.0,0.0,0.0,0.0,0.0,0.0,0.0,0.0,0.0,0.0,0.0,0.0,0.0,0.0,0.0,0.0,0.0,0.0,0.0,0.0,0.0,0.0,0.0,0.0,0.0,0.0,0.0,0.0,0.0,0.0,0.0,0.0,0.0,0.0,0.0,0.0,0.0,0.0,0.0,0.0,0.0,0.0,0.0,0.0,0.0,0.0,0.0,0.0,0.0,0.0,0.0,0.0,0.0,0.0,0.0,0.0,0.0,0.0,0.0,0.0,0.0,0.0,0.0,0.0,0.0,0.0,0.0,0.0,0.0,0.0,0.0,0.0,0.0,0.0,0.0,0.0,0.0,0.0,0.0,0.0,0.0,0.0,0.0,0.0,0.0,0.0,0.0,0.0,0.0,0.0,0.0,0.0,0.0,0.0,0.0,0.0,0.0,0.0,0.0,0.0,0.0,0.0,0.0,0.0,0.0,0.0,0.0,0.0,0.0,0.0,0.0,0.0,0.0,0.0,0.0,0.0,0.0,0.0,0.0,0.0,0.0,0.0,0.0,0.0,0.0,0.0,0.0,0.0,0.0,0.0,0.0,0.0,0.0,0.0,0.0,0.0,0.0,0.0,0.0,0.0,0.0,0.0,0.0,0.0,0.0,0.0,0.0,0.0,0.0,0.0,0.0,0.0,0.0,0.0,0.0,0.0,0.0,0.0,0.0,0.0,0.0,0.0,0.0,0.0,0.0,0.0,0.0,0.0,0.0,0.0,0.0,0.0,0.0,0.0,0.0,0.0,0.0,0.0,0.0,0.0,0.0,0.0,0.0,0.0,0.0,0.0,0.0,0.0,0.0,0.0,0.0,0.0,0.0,0.0,0.0,0.0,0.0,0.0,0.0,0.0,0.0,0.0,0.0,0.0,0.0,0.0,0.0,0.0,0.0,0.0,0.0,0.0,0.0,0.0,0.0,0.0,0.0,0.0,0.0,0.0,0.0,0.0,0.0,0.0,0.0,0.0,0.0,0.0,0.0,0.0,0.0,0.0,0.0,0.0,0.0,0.0,0.0,0.0,0.0,0.0,0.0,0.0,0.0,0.0,0.0,0.0,0.0,0.0,0.0,0.0,0.0,0.0,0.0,0.0,0.0,0.0,0.0,0.0,0.0,0.0,0.0,0.0,0.0,0.0,0.0,0.0,0.0,0.0,0.0,0.0,0.0,0.0,0.0,0.0,0.0,0.0,0.0,0.0,0.0,0.0,0.0,0.0,0.0,0.0,0.0,0.0,0.0,0.0,0.0,0.0,0.0,0.0,0.0,0.0,0.0,0.0,0.0,0.0,0.0,0.0,0.0,0.0,0.0,0.0,0.0,0.0,0.0,0.0,0.0,0.0,0.0,0.0,0.0,0.0,0.0,0.0,0.0,0.0,0.0,0.0,0.0,0.0,0.0,0.0,0.0,0.0,0.0,0.0,0.0,0.0,0.0,0.0,0.0,0.0,0.0,0.0,0.0,0.0,0.0,0.0,0.0,0.0,0.0,0.0,0.0,0.0,0.0,0.0,0.0,0.0,0.0,0.0,0.0,0.0,0.0,0.0,0.0,0.0,0.0,0.0,0.0,0.0,0.0,0.0,0.0,-0.1407,-0.0063,0.0,0.0,0.0,0.0,0.0,0.0,0.0,0.0,0.0,0.0,0.0,0.0,0.0,0.0,0.0,0.0,0.0,0.0,0.0,0.0,0.0,0.0,0.0,0.0,0.0,0.0,0.0,0.0,0.0,0.0,0.0,0.0,0.0,0.0,0.0,0.0,0.0,0.0,0.0,0.0,0.0,0.0,0.0,0.0,0.0,0.0,0.0,0.0,0.0,0.0,0.0,0.0,0.0,0.0,0.0,0.0,0.0,0.0,0.0,0.0,0.0,0.0,0.0,0.0,0.0,0.0,0.0,0.0,0.0,0.0,0.0,0.0,0.0,0.0,0.0,0.0,0.0,0.0,0.0,0.0,0.0,0.0,0.0,0.0,0.0,0.0,0.0,0.0,0.0,0.0,0.0,0.0,0.0,0.0,0.0,0.0,0.0,0.0,0.0,0.0,0.0,0.0,0.0,0.0,0.0,0.0,0.0,0.0,0.0,0.0,0.0,0.0,0.0,0.0,-0.3696,-0.1909,0.0,0.0,0.0,0.0,0.0,0.0,0.0,0.0,0.0,0.0,0.0,0.0,0.0,0.0,0.0,0.0,0.0,0.0,0.0,0.0,0.0,0.0,0.0,0.0,0.0,0.0,0.0,0.0,0.0,0.0,0.0,0.0,0.0,0.0,0.0,0.0,0.0,0.0,0.0,0.0,0.0,0.0,0.0,0.0,0.0,0.0,0.0,0.0,0.0,0.0,0.0,0.0,0.0,0.0,0.0,0.0,0.0,0.0,0.0,0.0,0.0,0.0,0.0,0.0,0.0,0.0,0.0,0.0,0.0,0.0,0.0,0.0,0.0,0.0,0.0,0.0,0.0,0.0,0.0,0.0,0.0,0.0,0.0,0.0,0.0,0.0,0.0,0.0,0.0,0.0,0.0,0.0,0.0,0.0,0.0,0.0,0.0,0.0,0.0,0.0,0.0,0.0,0.0,0.0,0.0,0.0,0.0,0.0,-0.5892,-0.6752,-0.7566,-0.8908,-0.9122,-0.826,-0.6781,-0.4742,-0.2618,-0.2054,0.0,0.0,0.0,0.0,0.0,0.0,0.0,0.0,0.0,0.0,0.0,0.0,0.0,0.0,0.0,0.0,0.0,0.0,0.0,0.0,0.0,0.0,0.0,0.0,0.0,0.0,0.0,0.0,0.0,0.0,0.0,0.0,0.0,0.0,0.0,0.0,0.0,0.0,-0.513,-0.5202,-0.525,-0.5259,-0.6054,0.0,0.0,0.0,0.0,0.0,0.0,0.0,0.0,0.0,0.0,0.0,0.0,0.0,0.0,0.0,0.0,0.0,0.0,0.0,0.0,0.0,0.0,0.0,0.0,0.0,0.0,0.0,0.0,0.0,0.0,0.0,0.0,0.0,0.0,0.0,0.0,0.0,0.0,0.0,0.0,0.0,0.0,0.0,-0.4301,-0.3862,0.0,0.0,0.0,0.0,0.0,0.0,0.0,0.0,0.0,0.0,0.0,0.0,0.0,-0.4106,-0.5337,-0.539,-0.5244,-0.4968,-0.6353,-0.7577,-0.8553,-0.9974,-1.0991,-1.1579,-1.0557,0.0,-0.6293,-0.0761,0.0,0.0,0.0,0.0,0.0,0.0,0.0,0.0,0.0,0.0,0.0,0.0,0.0,0.0,0.0,0.0,0.0,0.0,0.0,0.0,0.0,0.0,0.0,0.0,0.0,0.0,0.0,0.0,0.0,0.0,0.0,0.0,0.0,0.0,0.0,0.0,-0.5938,-0.5657,-0.5738,-0.5741,-0.5774,-0.5907,-0.6215,-0.5902,-0.5117,-0.4821,0.0,0.0,0.0,0.0,0.0,0.0,0.0,0.0,0.0,0.0,0.0,0.0,0.0,0.0,0.0,0.0,0.0,0.0,0.0,0.0,0.0,0.0,0.0,0.0,0.0,0.0,0.0,0.0,0.0,0.0,0.0,0.0,0.0,0.0,0.0,0.0,0.0,0.0,0.0,-0.5036,-0.5509,-0.5301,-0.3228,-0.1623,0.0,0.0,0.0,0.0,0.0,0.0,0.0,0.0,0.0,-0.6275,-0.5368,-0.568,-0.7273,-0.7108,-0.7331,-0.788,-0.8422,-0.9314,-1.0406,-1.0927,-1.1778,-1.2812,-1.2338,-1.1566,-1.0288,-0.5183,-0.2266,-0.0978,0.0,0.0,0.0,0.0,-0.0208,-0.0207,0.0,0.0,0.0,0.0,0.0,0.0,0.0,0.0,0.0,0.0,0.0,0.0,0.0,0.0,0.0,-1.1106,0.0,0.0,0.0,0.0,0.0,0.0,0.0,0.0,0.0,0.0,0.0,0.0,-0.674,-0.6845,-0.7099,-0.7099,-0.7099,-0.7022,-0.6795,-0.616,-0.5297,-0.4944,-0.4529,0.0,0.0,0.0,0.0,0.0,0.0,0.0,0.0,0.0,0.0,0.0,0.0,0.0,0.0,0.0,0.0,0.0,0.0,0.0,0.0,0.0,0.0,0.0,0.0,0.0,0.0,0.0,0.0,0.0,0.0,0.0,0.0,0.0,0.0,0.0,0.0,0.0,0.0,-0.5404,-0.6164,-0.6305,-0.3012,-0.0993,0.0,0.0,0.0,0.0,0.0,0.0,-0.628,-0.4823,-0.4751,-0.6342,-0.6363,-0.72,-0.8741,-0.8699,-0.9152,-1.0115,-1.0514,-1.1083,-1.1662,-1.1882,-1.2493,-1.3327,-1.3152,-1.3146,-1.3088,-0.996,-0.7539,-0.5765,-0.4678,-0.4907,-0.5434,-0.3094,-0.214,-0.2136,0.0,0.0,0.0,0.0,0.0,0.0,0.0,0.0,0.0,0.0,0.0,0.0,0.0,0.0,-1.2786,-1.2786,-1.2529,-1.2163,0.0,0.0,0.0,0.0,0.0,0.0,0.0,0.0,0.0,-0.8597,-0.8916,-0.9125,-0.9145,-0.9145,-0.9145,-0.9069,-0.8161,-0.6828,-0.5384,-0.5436,-0.5119,-0.4541,0.0,0.0,0.0,0.0,0.0,0.0,0.0,0.0,0.0,0.0,0.0,0.0,0.0,0.0,0.0,0.0,0.0,0.0,0.0,0.0,0.0,0.0,0.0,0.0,0.0,0.0,0.0,0.0,0.0,0.0,0.0,0.0,0.0,0.0,0.0,0.0,0.0,0.0,0.0,-0.622,-0.4283,0.0,0.0,0.0,0.0,-0.3107,-0.3116,-0.4143,-0.6216,-0.6342,-0.6497,-0.6578,-0.661,-0.7237,-0.8376,-0.9352,-0.9847,-0.9938,-1.2062,-1.2473,-1.1576,-1.2907,-1.3539,-1.3552,-1.289,-1.3027,-1.3499,-1.2909,-1.2531,-1.1991,-0.7872,-0.6263,-0.6033,-0.3414,-0.2488,-0.2478,0.0,0.0,0.0,0.0,0.0,0.0,0.0,0.0,0.0,0.0,0.0,0.0,0.0,-1.2483,-1.2959,-1.2959,-1.2896,-1.2763,-1.2569,0.0,0.0,0.0,0.0,0.0,0.0,0.0,-1.1025,-1.1009,-0.9873,-0.9054,-0.8652,-0.9135,-0.9539,-0.9873,-0.9084,-0.8458,-0.7794,-0.619,-0.5377,-0.5137,-0.4621,-0.426,0.0,0.0,0.0,0.0,0.0,0.0,0.0,0.0,0.0,0.0,0.0,0.0,0.0,0.0,0.0,0.0,0.0,0.0,0.0,0.0,0.0,0.0,0.0,0.0,0.0,0.0,0.0,0.0,0.0,0.0,0.0,0.0,0.0,0.0,0.0,0.0,0.0,-0.6086,-0.4848,0.0,-0.418,-0.5483,-0.606,-0.5448,-0.5379,-0.5695,-0.6578,-0.661,-0.6634,-0.6634,-0.7375,-0.8109,-0.8683,-0.9781,-1.0429,-1.071,-1.1598,-1.2127,-1.2476,-1.3106,-1.3779,-1.4502,-1.4245,-1.432,-1.4482,-1.4309,-1.3788,-1.2765,-0.9815,-0.9137,-0.9459,-0.6344,-0.5702,-0.6167,0.0,0.0,0.0,0.0,0.0,0.0,0.0,0.0,0.0,0.0,0.0,-1.2378,-1.251,-1.3316,-1.3825,-1.3825,-1.3824,-1.3628,-1.3203,0.0,0.0,0.0,0.0,0.0,0.0,-1.0266,-1.1436,-1.2317,-1.0974,-1.0104,-0.9622,-1.011,-1.0519,-1.0929,-1.0137,-0.982,-0.9658,-0.7639,-0.655,-0.6163,-0.535,-0.464,-0.425,0.0,0.0,0.0,0.0,0.0,0.0,0.0,0.0,0.0,0.0,0.0,0.0,0.0,0.0,0.0,0.0,0.0,0.0,0.0,0.0,0.0,0.0,0.0,0.0,0.0,0.0,0.0,0.0,0.0,0.0,0.0,0.0,0.0,0.0,-0.4255,-0.4549,-0.6082,-0.5554,-0.4855,-0.4333,-0.5579,-0.6518,-0.6669,-0.6691,-0.6732,-0.6801,-0.6857,-0.7041,-0.7603,-0.7905,-0.8649,-0.9696,-1.0042,-1.0532,-1.1181,-1.1645,-1.2285,-1.3115,-1.3671,-1.4364,-1.5117,-1.5211,-1.5204,-1.511,-1.511,-1.4596,-1.3546,-1.1242,-1.0821,-1.1169,-0.8111,-0.7512,-0.8002,0.0,0.0,0.0,0.0,0.0,0.0,0.0,0.0,0.0,0.0,-1.3011,-1.3689,-1.4157,-1.4927,-1.541,-1.541,-1.541,-1.4888,-1.3633,-1.3482,0.0,0.0,0.0,0.0,-1.1703,-1.2107,-1.2328,-1.2305,-1.2305,-1.2305,-1.2305,-1.2305,-1.2305,-1.2238,-1.1329,-1.0875,-1.0812,-0.9765,-0.8784,-0.7774,-0.617,-0.5282,-0.4718,0.0,0.0,0.0,0.0,0.0,0.0,0.0,0.0,0.0,0.0,0.0,0.0,0.0,0.0,0.0,0.0,0.0,0.0,0.0,0.0,0.0,0.0,0.0,0.0,0.0,0.0,0.0,0.0,0.0,0.0,0.0,0.0,0.0,-0.4815,-0.5219,-0.5709,-0.627,-0.6515,-0.661,-0.661,-0.6745,-0.6813,-0.6705,-0.6719,-0.6787,-0.6939,-0.7078,-0.7838,-0.9345,-0.8255,-0.8893,-1.1201,-0.9996,-1.0001,-1.1303,-1.2489,-1.3132,-1.3247,-1.4714,-1.5411,-1.5424,-1.5705,-1.5671,-1.5411,-1.5411,-1.5244,-1.4804,-1.2301,-1.1375,-1.1007,-0.8613,-0.76,-0.7556,0.0,0.0,0.0,0.0,0.0,0.0,0.0,0.0,0.0,0.0,-1.3011,-1.3689,-1.4157,-1.4927,-1.541,-1.541,-1.541,-1.5129,-1.4431,0.0,0.0,0.0,0.0,0.0,-1.173,-1.2123,-1.2318,-1.2305,-1.2305,-1.2305,-1.2305,-1.2305,-1.233,-1.2283,-1.2309,-1.235,-1.2304,-1.1443,-1.0712,-1.006,-0.8003,-0.6843,-0.6243,0.0,0.0,0.0,0.0,0.0,0.0,0.0,0.0,0.0,0.0,0.0,0.0,0.0,0.0,0.0,0.0,0.0,0.0,0.0,0.0,0.0,0.0,0.0,0.0,0.0,0.0,0.0,0.0,0.0,0.0,0.0,-0.5609,-0.6264,-0.6122,-0.6257,-0.6472,-0.6544,-0.662,-0.6668,-0.6668,-0.6805,-0.6868,-0.7007,-0.7122,-0.7692,-0.8746,-0.8798,-0.9483,-1.0817,-1.0518,-1.0245,-1.0202,-1.0665,-1.0744,-1.0421,-1.2617,-1.3667,-1.3767,-1.5094,-1.5712,-1.5712,-1.5792,-1.5785,-1.5712,-1.5712,-1.5665,-1.5358,-1.3451,-1.266,-1.2285,-0.9895,-0.8426,-0.7587,0.0,0.0,0.0,0.0,0.0,0.0,0.0,0.0,0.0,0.0,-1.355,-1.3974,-1.463,-1.5148,-1.541,-1.541,-1.5235,-1.4876,-1.4231,0.0,0.0,0.0,0.0,-1.2274,-1.1959,-1.2211,-1.2305,-1.2305,-1.2305,-1.2305,-1.2305,-1.2337,-1.2401,-1.2573,-1.2963,-1.3124,-1.3035,-1.2552,-1.222,-1.1901,-1.0178,-0.8489,-0.6904,-0.5878,-0.5202,-0.4726,-0.4726,-0.4726,-0.4643,-0.4359,0.0,0.0,0.0,0.0,0.0,0.0,0.0,0.0,0.0,0.0,0.0,0.0,0.0,0.0,0.0,0.0,0.0,0.0,0.0,0.0,0.0,0.0,0.0,0.0,-0.6241,-0.6912,-0.6722,-0.6735,-0.6777,-0.6692,-0.681,-0.6885,-0.6885,-0.7082,-0.7244,-0.7326,-0.7953,-0.8714,-0.9537,-1.0104,-1.1076,-1.2483,-1.1368,-1.0958,-1.1552,-1.1072,-1.1134,-1.1648,-1.3193,-1.4166,-1.4752,-1.5439,-1.5832,-1.5832,-1.5832,-1.5832,-1.5832,-1.5832,-1.5832,-1.5602,0.0,0.0,0.0,0.0,-0.8866,-0.7689,0.0,0.0,0.0,0.0,0.0,0.0,0.0,0.0,0.0,0.0,0.0,-1.4408,-1.5312,-1.541,-1.541,-1.541,-1.4942,-1.4341,0.0,0.0,0.0,-1.2396,-1.2395,-1.2326,-1.2298,-1.2305,-1.2305,-1.2305,-1.2305,-1.2318,-1.2358,-1.2359,-1.2599,-1.3033,-1.3403,-1.3466,-1.3307,-1.3307,-1.3293,-1.318,-1.2117,-0.9995,-0.7182,-0.6225,-0.5393,-0.4913,-0.4913,-0.4913,-0.4837,-0.4823,0.0,0.0,0.0,0.0,0.0,0.0,0.0,0.0,0.0,0.0,0.0,0.0,0.0,0.0,0.0,0.0,0.0,0.0,0.0,0.0,0.0,0.0,0.0,0.0,-0.6573,-0.7077,-0.6959,-0.6861,-0.6776,-0.6776,-0.7007,-0.7173,-0.719,-0.7451,-0.7719,-0.7809,-0.8929,-0.975,-1.0214,-1.1357,0.0,0.0,0.0,-1.1361,-1.368,-1.1361,-1.1453,-1.3878,-1.407,-1.4752,-1.5832,-1.5832,-1.5832,-1.5832,-1.5832,-1.5832,-1.5832,-1.5832,-1.5832,-1.5635,-1.4364,-1.3878,-1.3584,-1.097,-0.9213,-0.8028,0.0,0.0,0.0,0.0,0.0,0.0,0.0,0.0,0.0,-1.4403,-1.4247,-1.4408,-1.5312,-1.541,-1.541,-1.541,-1.4942,-1.427,0.0,0.0,-1.2381,-1.2424,-1.238,-1.2318,-1.2305,-1.2305,-1.2305,-1.2305,-1.2305,-1.2499,-1.2748,-1.2457,-1.283,-1.3844,-1.3913,-1.3974,-1.3921,-1.3921,-1.3781,-1.3391,-1.2392,-1.09,-0.9106,-0.8021,-0.6991,-0.602,-0.602,-0.602,-0.5924,-0.5507,-0.5388,-0.5448,-0.4944,0.0,0.0,0.0,0.0,0.0,0.0,0.0,0.0,0.0,0.0,0.0,0.0,0.0,0.0,0.0,0.0,0.0,0.0,0.0,0.0,-0.6555,-0.6979,-0.7115,-0.7265,-0.7261,-0.7241,-0.7241,-0.7292,-0.7373,-0.7499,-0.7668,-0.8247,-0.9283,-0.9707,-1.0868,-1.3025,-1.3318,-1.3634,-1.3872,-1.2328,-1.175,-1.2237,-1.175,-1.2328,-1.3878,-1.4949,0.0,-1.5832,-1.5832,-1.5832,-1.5832,-1.5832,-1.5832,-1.5832,-1.5832,-1.5832,-1.5635,-1.4364,-1.3878,-1.3584,-1.097,-0.978,-0.9457,0.0,0.0,0.0,0.0,0.0,0.0,0.0,0.0,0.0,0.0,-1.4286,-1.4317,-1.4697,-1.4887,-1.4831,-1.4486,-1.4277,0.0,0.0,-1.3462,-1.3424,-1.3064,-1.3013,-1.2806,-1.2305,-1.2305,-1.2305,-1.2305,-1.2305,-1.2378,-1.2614,-1.2832,-1.314,-1.3628,-1.4008,-1.4135,-1.4088,-1.4088,-1.4001,-1.3778,-1.3265,-1.2258,-1.074,-0.9468,-0.8544,-0.7918,-0.7375,-0.7588,-0.8045,-0.6623,-0.6957,-0.7774,-0.6662,-0.6608,-0.6729,0.0,0.0,0.0,0.0,0.0,0.0,0.0,0.0,0.0,0.0,0.0,0.0,0.0,0.0,-0.2947,-0.3593,0.0,-0.5808,-0.7013,-0.7257,-0.7309,-0.7465,-0.7485,-0.7485,-0.7485,-0.755,-0.79,-0.8638,-0.8222,-0.8698,-1.072,-1.0914,-1.1843,-1.3776,-1.4459,-1.4854,-1.4854,-1.359,-1.3204,-1.3884,-1.3204,-1.359,-1.4854,-1.5534,-1.5832,-1.5832,-1.5985,-1.6052,-1.6052,-1.6052,-1.6052,-1.6039,-1.5892,-1.5832,-1.573,-1.514,-1.4076,-1.2716,-1.1458,-1.0096,-0.892,0.0,0.0,0.0,0.0,0.0,0.0,0.0,0.0,0.0,0.0,-1.4304,-1.4277,-1.4198,-1.4354,-1.4277,0.0,0.0,0.0,0.0,-1.432,-1.4552,-1.4004,-1.3954,-1.3673,-1.2879,-1.2879,-1.2879,-1.2879,-1.2879,-1.2833,-1.2695,-1.3104,-1.3331,-1.3407,-1.3788,-1.4028,-1.4088,-1.4088,-1.4088,-1.4088,-1.4088,-1.3394,-1.2252,-1.0936,-1.02,-0.9691,-0.8736,-0.903,-0.9521,-0.7902,-0.847,-0.9631,-0.8564,-0.8777,-0.9173,-0.7774,-0.8089,0.0,0.0,0.0,0.0,0.0,0.0,0.0,0.0,-0.6747,-0.5786,-0.4577,-0.4298,-0.4318,-0.4248,-0.5884,-0.7253,-0.7383,-0.7385,-0.7468,-0.7617,-0.7827,-0.8026,-0.8058,-0.8137,-0.8586,-0.9765,-0.9229,-0.9702,-1.2139,-1.2334,-1.2909,-1.4166,-1.5242,-1.573,-1.5439,-1.4459,-1.4364,-1.5439,-1.4412,-1.4635,-1.5919,-1.5972,-1.5999,-1.6005,-1.6246,-1.6359,-1.6359,-1.6359,-1.6359,-1.6339,-1.6099,-1.5965,-1.5912,-1.5912,-1.4418,-1.2334,-1.2334,-1.0774,-0.8726,0.0,0.0,0.0,0.0,0.0,0.0,0.0,0.0,0.0,0.0,0.0,0.0,0.0,0.0,0.0,0.0,0.0,0.0,-1.4473,-1.4873,-1.5081,-1.5021,-1.5021,-1.495,-1.4879,-1.4879,-1.4879,-1.4879,-1.4879,-1.4535,-1.3962,-1.2907,-1.2959,-1.3974,-1.3484,-1.3566,-1.4088,-1.4088,-1.4088,-1.4088,-1.4088,-1.3824,-1.3389,-1.3235,-1.1897,-1.0165,-0.9999,-0.9207,-0.8426,-0.9422,-0.9185,-0.8617,-0.9756,-0.9942,-0.9523,-0.8409,0.0,-0.7066,-0.5969,-0.6655,-0.8168,-1.0188,-0.9852,-0.9185,0.0,-0.9891,-0.9252,-0.7187,-0.6715,-0.6732,-0.6708,-0.7028,-0.7397,-0.7415,-0.7497,-0.7624,-0.7767,-0.8833,-0.9556,-0.9722,-0.9614,-0.9686,-0.9951,-1.0863,-1.2037,-1.3584,-1.3686,-1.4268,-1.5534,-1.573,-1.5242,-1.4166,-1.3974,-1.3974,-1.407,-1.4199,-1.4912,-1.6226,-1.6486,-1.6607,-1.6607,-1.664,-1.666,-1.666,-1.666,-1.666,-1.6653,-1.662,-1.6453,-1.6226,-1.6226,-1.5171,-1.3686,-1.3686,-1.2716,-1.1263,0.0,0.0,0.0,0.0,0.0,0.0,0.0,0.0,0.0,0.0,0.0,0.0,0.0,0.0,0.0,0.0,0.0,0.0,-1.4736,-1.6026,-1.6585,-1.607,-1.5508,-1.495,-1.4314,-1.381,-1.381,-1.4314,-1.4314,-1.4168,-1.3881,-1.3554,-1.3348,-1.3311,-1.34,-1.3649,-1.4042,-1.3852,-1.3669,-1.3506,-1.2991,-1.2723,-1.256,-1.2038,-1.1264,-1.0371,-1.0064,-0.9647,0.0,0.0,-0.9727,-1.045,-1.1249,-1.1288,-1.0751,-0.9548,-0.8928,-0.8702,-0.916,-0.908,-0.9346,-1.113,-1.1263,-1.0902,-1.113,-1.0836,-1.0228,-0.934,-0.8696,-0.8103,-0.7364,-0.7371,-0.7542,-0.7629,-0.7698,-0.7773,-0.7923,-0.9108,-0.9909,-0.9989,-1.1279,-1.2219,-1.2216,-1.2037,-1.2721,-1.4854,-1.4364,-1.4459,-1.573,-1.5832,-1.5534,-1.5045,-1.5204,-1.5293,-1.5293,-1.5566,-1.6011,-1.6526,-1.6647,-1.6707,-1.6714,-1.6881,-1.6967,-1.6967,-1.6967,-1.6867,-1.6707,-1.6707,-1.6633,-1.6526,-1.6526,-1.6144,-1.5392,-1.428,-1.3006,-1.1755,0.0,0.0,0.0,0.0,0.0,0.0,0.0,0.0,0.0,0.0,0.0,0.0,0.0,0.0,0.0,0.0,0.0,0.0,0.0,-1.643,-1.689,-1.621,-1.5587,-1.4879,-1.4099,-1.3448,-1.3448,-1.4099,-1.4099,-1.3954,-1.368,-1.3918,-1.355,-1.2662,-1.2986,-1.3311,-1.3571,-1.3299,-1.3121,-1.2883,-1.208,-1.1769,-1.1804,-1.0952,-1.0363,-0.994,-0.9888,-0.9741,0.0,0.0,-0.9602,-1.0762,-1.1409,-1.1485,-1.1048,-0.9653,-0.8886,-0.8867,-1.0324,-1.0301,-1.022,-1.1585,-1.2319,-1.2609,-1.2494,-1.1981,-1.1357,-1.0758,-1.0168,-0.9232,-0.7707,-0.7556,-0.7692,-0.7794,-0.7845,-0.801,-0.8513,-0.9702,-1.0681,-1.1068,-1.3102,-1.4459,-1.4459,-1.3596,-1.3788,-1.5635,-1.4949,-1.4854,-1.573,-1.5832,-1.5865,-1.5945,-1.6159,-1.6313,-1.6393,-1.668,-1.6827,-1.6827,-1.6907,-1.6947,-1.6954,-1.7174,-1.7268,-1.7268,-1.7268,-1.7148,-1.6947,-1.6947,-1.6901,-1.6827,-1.6827,-1.678,-1.6554,-1.5127,-1.3751,-1.2417,0.0,0.0,0.0,0.0,0.0,0.0,0.0,0.0,0.0,0.0,0.0,0.0,0.0,0.0,0.0,0.0,0.0,0.0,0.0,-1.5491,-1.5283,-1.5217,-1.5234,-1.5163,-1.5163,-1.5163,-1.5163,-1.5163,-1.5163,-1.4665,-1.3673,-1.368,-1.3174,-1.2311,-1.2317,-1.2318,-1.2324,-1.2324,-1.2324,-1.2263,-1.1542,-1.1498,-1.1804,-1.0952,-0.9747,-0.8578,-0.9786,0.0,0.0,0.0,-0.8719,-0.7888,-0.9324,-0.976,0.0,-0.7996,-0.6698,-0.5985,-0.7274,-0.8757,-1.022,-1.1585,-1.2965,-1.4068,-1.4062,-1.4196,-1.3692,-1.1295,-1.1026,-1.0445,-0.8056,-0.7709,-0.7804,-0.7811,-0.7936,-0.8425,-0.9805,-1.1072,-1.2334,-1.3584,-1.4949,-1.573,-1.573,-1.573,-1.573,-1.5825,-1.573,-1.573,-1.5832,-1.5832,-1.5965,-1.6253,-1.6266,-1.6406,-1.6693,-1.6987,-1.7134,-1.7141,-1.7422,-1.7555,-1.7555,-1.7562,-1.7569,-1.7569,-1.7569,-1.7562,-1.7555,-1.7555,-1.7388,-1.7134,-1.7134,-1.6961,-1.6707,-1.6687,-1.5581,-1.401,0.0,0.0,0.0,0.0,0.0,0.0,0.0,0.0,0.0,0.0,0.0,0.0,0.0,0.0,0.0,0.0,0.0,0.0,0.0,-1.5485,-1.5774,-1.5214,-1.4545,-1.4171,-1.4171,-1.3593,-1.3593,-1.4171,-1.4171,-1.4027,-1.3673,-1.3673,-1.3214,-1.2282,-1.2282,-1.2335,-1.227,-1.227,-1.1538,-1.0286,-1.0105,-0.9832,-0.9393,-0.8513,-0.7922,-0.762,0.0,0.0,0.0,-0.7834,-0.7892,-0.778,-0.9214,-0.9005,-0.8001,-0.6628,-0.653,-0.7153,-0.8697,-1.0175,-1.1541,-1.2985,-1.3906,-1.4376,-1.4376,-1.4603,-1.4174,-1.1626,-1.0948,-1.0168,-0.7966,-0.7426,-0.7421,-0.7714,-0.8615,-0.9509,-0.9903,-1.1843,-1.3392,-1.3878,-1.5045,-1.5832,-1.5832,-1.5832,-1.5832,-1.5832,-1.5832,-1.5832,-1.5832,-1.6019,-1.6166,-1.6273,-1.6653,-1.6901,-1.7001,-1.7288,-1.7442,-1.7442,-1.7535,-1.7582,-1.7582,-1.7582,-1.7582,-1.7582,-1.7582,-1.7582,-1.7582,-1.7582,-1.7522,-1.7442,-1.7442,-1.7375,-1.7268,-1.7068,-1.6724,-1.5948,0.0,0.0,0.0,0.0,0.0,0.0,0.0,0.0,0.0,0.0,0.0,0.0,0.0,0.0,0.0,0.0,0.0,0.0,0.0,0.0,-1.5029,-1.4504,-1.3839,-1.3542,-1.3542,-1.2913,-1.2977,-1.3738,-1.3585,-1.3502,-1.3509,-1.3259,-1.2879,-1.2305,-1.2305,-1.2305,-1.2305,-1.2305,-1.1304,-0.978,-0.9693,-0.9072,-0.8265,-0.743,-0.7096,0.0,0.0,0.0,0.0,-0.6892,-0.7026,-0.7064,-0.8013,-0.7611,-0.6764,-0.6371,-0.694,-0.8111,-1.0041,-1.1335,-1.2453,-1.3854,-1.4462,-1.4676,-1.4676,-1.4903,-1.4559,-1.2509,-1.1415,-1.0348,-0.861,-0.7677,-0.7321,-0.756,-0.831,-0.9376,-1.0979,-1.2123,-1.3284,-1.4447,-1.5337,-1.5832,-1.5832,-1.5832,-1.5832,-1.5832,-1.5832,-1.5832,-1.5832,-1.6112,-1.6319,-1.6426,-1.6901,-1.7201,-1.7301,-1.7488,-1.7582,-1.7582,-1.7582,-1.7582,-1.7582,-1.7582,-1.7582,-1.7582,-1.7582,-1.7582,-1.7582,-1.7582,-1.7582,-1.7582,-1.7582,-1.7582,-1.7562,-1.7375,-1.7301,-1.7111,0.0,0.0,0.0,0.0,0.0,0.0,0.0,0.0,0.0,0.0,0.0,0.0,0.0,0.0,0.0,0.0,0.0,0.0,0.0,0.0,0.0,-1.3263,-1.3243,-1.3258,-1.3258,-1.3258,-1.3443,-1.3892,-1.3355,-1.316,-1.3083,-1.2532,-1.2298,-1.2284,-1.2284,-1.2298,-1.2311,-1.2238,-1.1636,-1.0695,-1.0057,-0.9288,-0.8484,-0.7601,0.0,0.0,0.0,0.0,0.0,0.0,-0.618,-0.5929,-0.5937,-0.5848,-0.593,-0.7212,-0.7886,-0.8721,-1.1209,-1.2306,-1.2949,-1.4182,-1.4756,-1.4983,-1.4983,-1.5211,-1.5028,-1.3566,-1.2335,-1.1059,-0.9666,-0.8249,-0.7327,-0.738,-0.7227,-0.8444,-1.2531,-1.2041,-1.2352,-1.5406,-1.5832,-1.5832,-1.5832,-1.5832,-1.5832,-1.5832,-1.5832,-1.5838,-1.5852,-1.6132,-1.6426,-1.672,-1.7014,-1.7301,-1.7582,-1.7582,-1.7582,-1.7582,-1.7582,-1.7582,-1.7582,-1.7582,-1.7582,-1.7582,-1.7582,-1.7582,-1.7582,-1.7582,-1.7582,-1.7582,-1.7582,-1.7582,-1.7582,-1.7582,-1.7582,-1.739,0.0,0.0,0.0,0.0,0.0,0.0,0.0,0.0,0.0,0.0,0.0,0.0,0.0,0.0,0.0,0.0,0.0,0.0,0.0,0.0,0.0,0.0,0.0,0.0,0.0,-1.3701,-1.3768,-1.3892,0.0,-1.3494,-1.3176,-1.2742,-1.2387,-1.2101,-1.1935,-1.2035,-1.228,-1.181,-1.1505,-1.1134,0.0,-0.8794,-0.7983,0.0,0.0,0.0,0.0,0.0,0.0,0.0,0.0,-0.6023,-0.6145,-0.6719,-0.7451,-0.7863,-0.9408,-1.1039,-1.1857,-1.3012,-1.4069,-1.4415,-1.491,-1.5284,-1.5284,-1.5511,-1.5016,-1.2537,-1.1359,-1.0121,-0.8006,-0.7217,-0.6969,-0.7373,-0.9239,-1.0976,-1.2068,-1.3605,-1.4867,-1.5724,-1.5832,-1.5832,-1.5832,-1.5832,-1.5832,-1.5832,-1.5832,-1.5925,-1.6146,-1.644,-1.6727,-1.7027,-1.7321,-1.7508,-1.7582,-1.7582,-1.7582,-1.7582,-1.7582,-1.7582,-1.7582,-1.7582,-1.7582,-1.7582,-1.7582,-1.7582,-1.7582,-1.7582,-1.7582,-1.7582,-1.7582,-1.7582,-1.7582,-1.7582,-1.7582,-1.7555,0.0,0.0,0.0,0.0,0.0,0.0,0.0,0.0,0.0,0.0,0.0,0.0,0.0,0.0,0.0,0.0,0.0,0.0,0.0,0.0,0.0,0.0,0.0,0.0,0.0,-1.4253,-1.4371,-1.4559,0.0,0.0,0.0,-1.3389,-1.2956,-1.2508,-1.2216,-1.2142,-1.2146,-1.179,0.0,0.0,0.0,0.0,0.0,0.0,0.0,0.0,0.0,0.0,0.0,0.0,0.0,-0.6373,-0.6311,-0.6761,-0.7544,-0.8754,-1.0085,-1.1484,-1.2794,-1.3918,-1.4743,-1.4877,-1.5251,-1.5418,-1.4694,-1.4667,-1.4056,-1.1795,-1.0465,-0.924,-0.7689,-0.7049,-0.6845,-0.7364,-0.9347,-1.1228,-1.2304,-1.3642,-1.4905,-1.5717,-1.5832,-1.5832,-1.5832,-1.5832,-1.5832,-1.5832,-1.5832,-1.5959,-1.6259,-1.6547,-1.684,-1.7141,-1.7428,-1.7582,-1.7582,-1.7582,-1.7582,-1.7582,-1.7582,-1.7582,-1.7582,-1.7582,-1.7582,-1.7582,-1.7582,-1.7582,-1.7582,-1.7582,-1.7582,-1.7582,-1.7582,-1.7582,-1.7582,-1.7582,-1.7582,-1.7582,0.0,0.0,0.0,0.0,0.0,0.0,0.0,0.0,0.0,0.0,0.0,0.0,0.0,0.0,0.0,0.0,0.0,0.0,0.0,0.0,0.0,0.0,0.0,0.0,0.0,-1.4765,-1.5001,-1.541,0.0,0.0,0.0,0.0,0.0,0.0,0.0,0.0,0.0,0.0,0.0,0.0,0.0,0.0,0.0,0.0,0.0,0.0,0.0,0.0,0.0,0.0,-0.7209,-0.6745,-0.6527,-0.6621,-0.723,-0.9418,-1.0259,-1.1,-1.3566,-1.4553,-1.4843,-1.5042,-1.5324,-1.51,-1.3507,-1.3109,-1.267,-1.1063,-0.9554,-0.8393,-0.7853,-0.7184,-0.6888,-0.7318,-0.8589,-1.0416,-1.2747,-1.3214,-1.4002,-1.5602,-1.5832,-1.5832,-1.5832,-1.5832,-1.5832,-1.5832,-1.5832,-1.5979,-1.6313,-1.6567,-1.686,-1.7194,-1.7455,-1.7582,-1.7582,-1.7582,-1.7582,-1.7582,-1.7582,-1.7582,-1.7582,-1.7582,-1.7582,-1.7582,-1.7582,-1.7582,-1.7582,-1.7582,-1.7582,-1.7582,-1.7582,-1.7582,-1.7582,-1.7582,-1.7582,-1.7582,0.0,0.0,0.0,0.0,0.0,0.0,0.0,0.0,0.0,0.0,-1.1927,-1.1927,0.0,0.0,0.0,0.0,0.0,0.0,0.0,0.0,0.0,0.0,0.0,0.0,-1.5284,-1.5294,-1.5294,-1.541,-1.5303,0.0,0.0,0.0,0.0,0.0,0.0,0.0,0.0,0.0,0.0,0.0,0.0,0.0,0.0,0.0,0.0,0.0,0.0,0.0,0.0,0.0,-0.7278,-0.6919,-0.6949,-0.7692,-0.8578,-0.8957,-0.9842,-1.0956,-1.2633,-1.3278,-1.355,-1.371,-1.3974,-1.3838,-1.2205,-1.1822,-1.131,-0.9401,-0.8781,-0.8154,-0.6849,-0.6473,-0.6509,-0.7088,-0.9183,-1.1019,-1.1966,-1.3927,-1.5475,-1.5724,-1.5832,-1.5832,-1.5832,-1.5832,-1.5832,-1.5832,-1.5832,-1.6066,-1.66,-1.6673,-1.6954,-1.7488,-1.7555,-1.7582,-1.7582,-1.7582,-1.7582,-1.7582,-1.7582,-1.7582,-1.7582,-1.7582,-1.7582,-1.7582,-1.7582,-1.7582,-1.7582,-1.7582,-1.7582,-1.7582,-1.7582,-1.7582,-1.7582,-1.7582,-1.7582,-1.7582,0.0,0.0,0.0,0.0,0.0,0.0,0.0,-1.1217,-1.1074,-1.1074,-1.1074,-1.1217,-1.1669,-1.1728,-1.1728,0.0,0.0,0.0,0.0,0.0,0.0,0.0,0.0,-1.477,-1.4735,-1.5187,-1.5177,-1.4656,0.0,-1.5197,-1.4764,-1.4821,-1.4591,-1.4134,-1.3515,-1.2949,0.0,0.0,0.0,0.0,-1.1009,-1.0541,0.0,0.0,0.0,0.0,0.0,0.0,0.0,0.0,-0.7423,-0.7204,-0.7092,-0.7489,-0.8101,-0.8715,-0.9301,-1.0121,-1.1595,-1.2193,-1.2341,-1.2585,-1.2731,-1.2432,-1.0629,-1.0216,-0.9717,-0.7797,-0.7175,-0.6731,-0.5808,-0.58,0.0,-0.6315,-0.8997,-1.1157,-1.1753,-1.4088,-1.5832,-1.5832,-1.5832,-1.5832,-1.5832,-1.5832,-1.5832,-1.5832,-1.5832,-1.6086,-1.6673,-1.6994,-1.7288,-1.7575,-1.7582,-1.7582,-1.7582,-1.7582,-1.7582,-1.7582,-1.7582,-1.7582,-1.7582,-1.7582,-1.7582,-1.7582,-1.7582,-1.7582,-1.7582,-1.7582,-1.7582,-1.7582,-1.7582,-1.7582,-1.7582,-1.7582,-1.7582,-1.7582,0.0,0.0,0.0,0.0,0.0,0.0,0.0,-1.0718,-1.0522,-1.0522,-1.0522,-1.0718,-1.1368,-1.1427,-1.1427,0.0,0.0,0.0,0.0,0.0,0.0,0.0,0.0,-1.4202,-1.411,0.0,0.0,-1.401,-1.4715,0.0,0.0,0.0,0.0,0.0,-1.3887,-1.3459,-1.3184,-1.2506,0.0,0.0,0.0,-1.0989,0.0,0.0,0.0,0.0,0.0,0.0,0.0,0.0,-0.7438,-0.7371,-0.7229,-0.6993,-0.7138,-0.8039,-0.8404,-0.8914,-1.0461,-1.1062,-1.1182,-1.1405,-1.1463,-1.0948,-0.8962,-0.8619,-0.8162,-0.6376,-0.5792,-0.5488,-0.5115,-0.5218,-0.5526,0.0,-0.8265,-1.0543,-1.1591,-1.3767,-1.5367,-1.5724,-1.5832,-1.5832,-1.5832,-1.5832,-1.5832,-1.5832,-1.5945,-1.6219,-1.668,-1.7261,-1.7582,-1.7582,-1.7582,-1.7562,-1.7627,-1.7562,-1.764,-1.756,-1.7647,-1.7562,-1.7627,-1.7562,-1.7582,-1.7582,-1.7582,-1.7582,-1.7582,-1.7582,-1.7582,-1.7582,-1.7582,-1.7582,-1.7582,-1.7582,-1.7582,-1.7582,0.0,0.0,0.0,0.0,0.0,0.0,0.0,-1.0522,-1.0522,-1.0522,-1.0522,-1.0522,-1.0624,-1.0616,-1.0616,0.0,0.0,0.0,0.0,0.0,0.0,0.0,0.0,0.0,0.0,0.0,0.0,-1.401,-1.407,0.0,0.0,0.0,0.0,0.0,0.0,-1.4085,-1.4341,-1.3614,0.0,0.0,0.0,0.0,0.0,0.0,0.0,0.0,0.0,0.0,0.0,0.0,0.0,-0.6984,-0.7238,-0.6837,-0.635,-0.6478,0.0,0.0,-0.91,-0.9849,-0.9949,-1.0147,-1.0194,-0.9606,-0.7268,-0.7051,-0.688,-0.5419,-0.5398,-0.5514,-0.5148,-0.4958,-0.5117,-0.6195,-0.6988,-0.8475,-1.1263,-1.2565,-1.3896,-1.5602,-1.5832,-1.5832,-1.5832,-1.5832,-1.5832,-1.5832,-1.6319,-1.6647,-1.67,-1.7261,-1.7582,-1.7582,-1.7582,-1.7607,-1.7633,-1.76,-1.7603,-1.7645,-1.7617,-1.7593,-1.7639,-1.7607,-1.7582,-1.7582,-1.7582,-1.7582,-1.7582,-1.7582,-1.7582,-1.7582,-1.7582,-1.7582,-1.7582,-1.7582,-1.7582,-1.7582,0.0,0.0,0.0,0.0,0.0,0.0,-1.0522,-1.0522,-1.0522,-1.0522,-1.0522,-1.0522,-1.0522,-1.0522,-1.0522,-1.0522,0.0,0.0,0.0,0.0,0.0,0.0,0.0,0.0,0.0,0.0,-1.3377,-1.3164,-1.3709,0.0,0.0,0.0,0.0,0.0,0.0,-1.3692,-1.3872,-1.3224,0.0,0.0,0.0,0.0,0.0,0.0,0.0,0.0,0.0,0.0,-0.8377,0.0,0.0,0.0,-0.6725,-0.6282,0.0,0.0,-0.6659,-0.6776,-0.804,-0.8523,-0.8739,-0.8806,-0.8481,-0.7939,-0.6786,-0.6486,-0.6179,-0.5401,-0.5254,-0.5115,-0.4841,-0.451,-0.4564,-0.5238,-0.6355,-0.7681,-0.9173,-1.0357,-1.1844,-1.3731,-1.397,-1.4477,-1.5697,-1.5832,-1.5832,-1.5832,-1.6213,-1.6526,-1.6693,-1.7261,-1.7582,-1.7582,-1.7573,-1.7576,-1.7605,-2.0798,-2.0869,-1.759,-2.0893,-2.0806,-1.7612,-1.7592,-1.7627,-1.7627,-1.7627,-1.7627,-1.7627,-1.7627,-1.7627,-1.7627,-1.7627,-1.7605,-1.7617,-1.7617,-1.7586,-1.7582,0.0,0.0,0.0,0.0,0.0,-1.0522,-1.0522,-1.0522,-1.0522,-1.0522,-1.0522,-1.0522,-1.0522,-1.0522,-1.0522,-1.0522,-1.0522,0.0,0.0,0.0,0.0,0.0,0.0,0.0,0.0,0.0,-1.2915,-1.2621,-1.3285,-1.3407,0.0,0.0,-1.3588,-1.3588,0.0,0.0,0.0,0.0,0.0,0.0,0.0,0.0,0.0,0.0,0.0,0.0,0.0,0.0,0.0,0.0,0.0,0.0,0.0,0.0,0.0,0.0,-0.6692,-0.6649,-0.7346,-0.778,-0.8038,-0.8038,-0.7527,-0.6867,-0.6406,-0.6147,-0.5809,-0.5072,-0.4711,-0.4406,-0.4038,-0.4014,-0.4204,-0.462,-0.5529,-0.6715,-0.7906,-0.8818,-0.9965,-1.1727,-1.298,-1.4204,-1.5685,-1.5758,-1.5805,-1.5758,-1.6025,-1.6306,-1.6474,-1.7143,-1.7563,-1.76,-1.7612,-1.8401,-1.9997,-2.3838,-2.3797,-2.0061,-2.3824,-2.3723,-1.9954,-2.0016,-2.0047,-2.0047,-2.0047,-2.0047,-2.0047,-2.0047,-2.0047,-2.0047,-2.0047,-2.0053,-1.9766,-1.817,-1.7825,-1.8094,0.0,0.0,0.0,0.0,0.0,0.0,-1.0522,-1.0522,-1.0522,-1.0522,-1.0522,-1.0522,-1.0522,-1.0522,-1.0522,-1.0522,-1.0522,0.0,0.0,0.0,0.0,0.0,0.0,0.0,0.0,0.0,-1.2241,-1.2621,-1.2629,-1.2621,-1.2629,-1.2621,-1.2621,-1.2621,0.0,0.0,0.0,0.0,0.0,0.0,0.0,0.0,0.0,0.0,0.0,0.0,0.0,0.0,0.0,0.0,0.0,0.0,0.0,0.0,0.0,0.0,-0.6224,-0.6385,-0.7161,-0.7699,-0.8038,-0.8038,-0.7527,-0.6774,0.0,0.0,-0.5559,-0.4126,-0.3532,-0.3154,-0.2583,-0.3307,-0.412,-0.462,-0.4453,-0.5331,-0.8444,-0.8398,-0.848,-0.9691,-1.3354,-1.5746,-1.5826,-1.5778,-1.5758,-1.5778,-1.5812,-1.5776,-1.5816,-1.6908,-1.7638,-1.7592,-1.7599,-2.017,-2.5509,-2.5686,-2.5653,-2.5635,-2.5672,-2.5676,-2.5628,-2.5585,-2.5597,-2.5597,-2.5597,-2.5597,-2.5597,-2.5597,-2.5597,-2.5597,-2.5597,-2.5597,-2.4979,-1.9538,-1.8433,-1.942,0.0,0.0,0.0,0.0,0.0,0.0,0.0,-1.0522,-1.0522,-1.0522,-1.0522,-1.0522,-1.0522,-1.0522,-1.0522,-1.0522,-1.0522,0.0,0.0,0.0,0.0,0.0,0.0,0.0,0.0,0.0,-1.2233,-1.2621,-1.2621,-1.2621,-1.2621,-1.2621,-1.2621,-1.2621,-1.2621,-1.2621,0.0,0.0,0.0,0.0,0.0,0.0,-1.0608,0.0,0.0,0.0,0.0,0.0,0.0,0.0,0.0,0.0,0.0,0.0,0.0,0.0,0.0,0.0,-0.6648,-0.7163,-0.7428,-0.753,-0.6764,-0.5927,-0.594,0.0,-0.44,-0.3864,-0.2354,-0.1493,-0.3091,-0.3687,-0.395,-0.4202,-0.4112,-0.4418,-0.54,-0.5392,-0.5344,-0.5709,-1.1679,-1.5776,-1.5814,-1.8851,-1.9377,-1.6056,-1.5821,-1.7276,-2.066,-2.2311,-2.3161,-2.3141,-2.3116,-2.3918,-2.5727,-2.5739,-2.5702,-2.5742,-2.5712,-2.5741,-2.5664,-2.5653,-2.5691,-2.5691,-2.5691,-2.5691,-2.5691,-2.5691,-2.5691,-2.5691,-2.5691,-2.5698,-2.5377,-2.2332,-2.161,-2.1587,0.0,0.0,0.0,0.0,0.0,0.0,0.0,-1.0522,-1.0522,-1.0522,-1.0522,-1.0522,-1.0522,-1.0522,-1.0522,-1.0522,-1.0522,0.0,0.0,0.0,0.0,0.0,0.0,0.0,0.0,-1.2436,-1.2348,-1.2621,-1.2621,-1.2621,-1.2621,-1.2621,-1.2621,-1.2621,-1.2621,-1.2498,0.0,0.0,0.0,0.0,0.0,0.0,-0.9454,0.0,0.0,0.0,0.0,0.0,0.0,0.0,0.0,0.0,0.0,0.0,0.0,0.0,-0.4695,-0.4778,0.0,-0.679,-0.7143,-0.7241,-0.65,0.0,0.0,0.0,0.0,-0.3773,-0.2512,-0.1884,-0.3536,-0.3806,-0.3806,-0.3938,-0.4093,-0.4067,-0.3976,-0.3882,-0.5012,-0.7994,-1.2791,-1.6555,-1.8406,-2.1309,-2.1835,-1.8789,-1.8568,-1.992,-2.2902,-2.473,-2.5684,-2.571,-2.5701,-2.5681,-2.5681,-2.5723,-2.5742,-2.5742,-2.5742,-2.5742,-2.5742,-2.5742,-2.5742,-2.5742,-2.5742,-2.5742,0.0,-2.5742,-2.5742,-2.5742,-2.5742,-2.5742,-2.5446,-2.3647,-2.3067,-2.3007,0.0,0.0,0.0,0.0,0.0,0.0,0.0,-1.0573,-1.0573,-1.0573,-1.0522,-1.0522,-1.0522,-1.0522,-1.0522,-1.0522,0.0,0.0,0.0,0.0,0.0,0.0,0.0,0.0,-1.2697,-1.27,-1.2643,-1.256,-1.256,-1.2621,-1.2621,-1.2621,-1.2621,-1.2621,-1.2621,-1.2297,0.0,0.0,0.0,0.0,0.0,0.0,0.0,0.0,0.0,0.0,0.0,0.0,0.0,0.0,0.0,0.0,0.0,0.0,0.0,0.0,0.0,0.0,0.0,-0.6585,-0.7078,-0.7078,-0.6452,-0.5936,0.0,0.0,0.0,0.0,0.0,0.0,-0.3781,-0.3766,-0.3873,-0.3955,-0.4103,-0.4127,-0.3825,-0.4287,-0.7424,-1.4873,-1.6082,-1.8145,-2.2656,-2.3123,-2.31,-2.313,-2.3102,-2.3076,-2.3145,-2.4598,-2.5581,-2.569,-2.572,-2.5713,-2.5742,-2.5742,-2.5742,-2.5742,-2.5742,-2.5742,-2.5742,-2.5742,-2.5742,-2.5742,-2.5742,-2.5742,-2.5742,-2.5742,-2.5742,-2.5742,-2.5742,-2.5742,-2.5528,-2.3799,-2.352,-2.3683,0.0,0.0,0.0,0.0,0.0,0.0,0.0,0.0,0.0,0.0,-1.0972,-1.082,-1.0522,-1.0522,-1.0522,0.0,0.0,0.0,0.0,0.0,0.0,0.0,0.0,0.0,-1.1872,-1.244,-1.2521,-1.2251,-1.2498,-1.2621,-1.2621,-1.2621,-1.2621,-1.2621,-1.2621,-1.1958,0.0,0.0,0.0,0.0,0.0,0.0,0.0,0.0,0.0,0.0,-0.663,-0.6135,0.0,0.0,0.0,0.0,0.0,0.0,0.0,0.0,-0.3348,-0.3501,-0.4905,0.0,-0.6481,-0.6481,-0.6351,-0.5902,0.0,0.0,0.0,0.0,0.0,0.0,0.0,-0.3804,-0.3832,-0.388,-0.3878,-0.3848,-0.3842,-0.9134,-1.3724,-1.5568,-1.9118,-2.1882,-2.3017,-2.3124,-2.3115,-2.3135,-2.3135,-2.3104,-2.3062,-2.3457,-2.4297,-2.567,-2.5674,-2.5661,-2.5732,-2.5742,-2.5742,-2.5742,-2.5742,-2.5742,-2.5742,-2.5742,-2.5742,-2.5742,-2.5742,-2.5742,-2.5742,-2.5742,-2.5742,-2.5742,-2.5742,-2.5742,-2.5635,-2.5197,-2.5109,-2.502,0.0,0.0,0.0,0.0,0.0,0.0,0.0,0.0,0.0,0.0,0.0,0.0,0.0,0.0,0.0,0.0,0.0,0.0,0.0,0.0,0.0,0.0,0.0,-1.1402,-1.1351,-1.1904,-1.2092,-1.1872,-1.2189,-1.2375,-1.2375,-1.2498,-1.2621,-1.2567,-1.2251,-1.1399,0.0,0.0,0.0,0.0,-0.7478,0.0,0.0,0.0,0.0,0.0,-0.6135,-0.5681,0.0,-0.5425,-0.516,-0.496,0.0,0.0,0.0,0.0,-0.3387,-0.3501,-0.4276,-0.533,-0.6278,-0.6271,-0.6274,-0.5883,0.0,0.0,0.0,0.0,0.0,0.0,0.0,0.0,-0.3949,-0.3792,-0.3777,-0.5052,-0.8806,-1.3022,-1.6642,-1.8875,-2.1536,-2.3121,-2.3075,-2.3125,-2.3135,-2.3135,-2.3135,-2.3125,-2.3123,-2.3089,-2.3525,-2.4463,-2.5243,-2.5678,-2.5732,-2.5742,-2.5742,-2.5742,-2.5742,-2.5742,-2.5742,-2.5742,-2.5742,-2.5742,-2.5742,-2.5742,-2.5742,-2.5742,-2.5742,-2.5742,-2.5742,-2.5742,-2.5742,-2.5742,-2.5742,-2.5635,0.0,0.0,0.0,0.0,0.0,0.0,0.0,0.0,0.0,0.0,0.0,0.0,0.0,0.0,0.0,0.0,0.0,0.0,0.0,0.0,0.0,0.0,-1.0902,-1.1048,-1.0914,-1.1357,-1.1585,-1.1498,-1.1941,-1.2127,-1.2127,-1.2375,-1.2498,-1.2436,-1.1677,-1.073,0.0,-0.9075,-0.8366,-0.7591,-0.7559,0.0,0.0,0.0,0.0,0.0,0.0,0.0,0.0,-0.5289,-0.4824,-0.4422,-0.49,0.0,0.0,0.0,0.0,0.0,-0.3804,-0.501,-0.625,-0.6119,-0.6109,-0.5721,0.0,0.0,0.0,0.0,0.0,0.0,0.0,-0.4027,0.0,-0.3824,-0.4801,-0.7708,-1.3622,-1.4482,-1.5994,-2.0176,-2.2138,-2.3142,-2.3076,-2.3135,-2.3135,-2.3135,-2.3135,-2.3135,-2.3135,-2.3133,-2.3118,-2.3076,-2.4492,-2.5451,-2.5673,-2.5684,-2.5742,-2.5742,-2.5742,-2.5742,-2.5742,-2.5742,-2.5742,-2.5742,-2.5742,-2.5742,-2.5742,-2.5742,-2.5742,-2.5742,-2.5742,-2.5742,-2.5742,-2.5742,-2.5742,-2.5742,0.0,0.0,0.0,0.0,0.0,0.0,0.0,0.0,0.0,0.0,0.0,0.0,0.0,0.0,0.0,0.0,0.0,0.0,0.0,0.0,0.0,-1.0555,-1.0854,-1.088,-1.0594,-1.1201,-1.1413,-1.1185,-1.1809,-1.2127,-1.2127,-1.2127,-1.2003,-1.1747,-1.085,-1.0401,-1.0085,-0.8871,-0.8236,-0.8057,-0.7855,0.0,0.0,0.0,0.0,0.0,0.0,0.0,0.0,-0.4891,-0.4556,-0.422,-0.3687,0.0,0.0,0.0,0.0,0.0,-0.3951,-0.4996,-0.5846,-0.5294,-0.524,-0.4929,-0.3995,0.0,0.0,0.0,0.0,0.0,0.0,-0.3879,-0.3826,0.0,-0.9554,-1.268,-0.8943,-0.8419,-0.8727,-0.9468,-1.7536,-2.3096,-2.3144,-2.3135,-2.3135,-2.3135,-2.3135,-2.3135,-2.3135,-2.3096,-2.3065,-2.3066,-2.3329,-2.418,-2.5694,-2.5727,-2.5742,-2.5742,-2.5742,-2.5742,-2.5742,-2.5742,-2.5742,-2.5742,-2.5742,-2.5742,-2.5742,-2.5742,-2.5742,-2.5742,-2.5742,-2.5742,-2.5742,-2.5742,-2.5742,-2.5742,0.0,0.0,0.0,0.0,0.0,0.0,0.0,0.0,0.0,0.0,0.0,0.0,0.0,0.0,0.0,0.0,0.0,0.0,0.0,0.0,-0.9926,-1.03,-1.0777,-1.0982,-1.0785,-1.1049,-1.1102,-1.0814,-1.131,-1.156,-1.156,-1.1747,-1.149,-1.085,-1.0465,-0.9888,-0.9128,-0.849,-0.7977,-0.7621,0.0,0.0,0.0,0.0,0.0,0.0,0.0,0.0,0.0,0.0,-0.4558,-0.422,-0.3754,0.0,0.0,0.0,0.0,0.0,-0.4138,-0.4696,-0.51,-0.5278,-0.5377,-0.5388,-0.5058,0.0,0.0,0.0,0.0,0.0,0.0,0.0,-0.3872,-0.4062,-1.069,-1.581,-1.5708,-1.5728,-1.5772,-1.5772,-2.0105,-2.3067,-2.3135,-2.3135,-2.3135,-2.3135,-2.3142,-2.312,-2.312,-2.3123,-2.3093,-2.3071,-2.3075,-2.3505,-2.4283,-2.7891,-2.8391,-2.5727,-2.5727,-2.573,-2.5732,-2.572,-2.574,-2.5742,-2.5742,-2.5742,-2.5742,-2.5742,-2.5742,-2.5742,-2.5742,-2.5742,-2.5742,-2.5742,-2.5742,-2.5742,0.0,0.0,0.0,0.0,0.0,0.0,0.0,0.0,0.0,0.0,0.0,0.0,0.0,0.0,0.0,0.0,0.0,0.0,0.0,0.0,-0.9771,-1.0089,-1.0755,-1.1047,-1.0996,-1.1076,-1.0998,-1.0751,-1.0996,-1.1122,-1.1122,-1.124,-1.0919,-1.0148,-0.9894,-0.9186,-0.8172,-0.8163,-0.7726,-0.7157,0.0,0.0,0.0,0.0,0.0,0.0,0.0,0.0,0.0,0.0,0.0,0.0,0.0,0.0,0.0,-0.3518,-0.3574,-0.3607,-0.422,-0.4401,-0.4659,-0.5325,0.0,-0.5667,-0.5877,0.0,0.0,0.0,0.0,0.0,0.0,-0.5396,-0.6694,-0.6982,-1.2915,-1.8824,-2.2528,-2.3084,-2.3106,-2.3086,-2.3086,-2.3076,-2.3135,-2.3135,-2.3135,-2.3135,-2.3071,-2.3588,-2.465,-2.4681,-2.4666,-2.4666,-2.4671,-2.4714,-2.4693,-2.9777,-3.0136,-2.5691,-2.5691,-2.6327,-2.7352,-2.6263,-2.568,-2.5661,-2.5661,-2.5661,-2.5671,-2.5663,-2.5702,-2.5712,-2.5703,-2.5742,-2.5742,-2.5742,-2.5742,-2.5742,0.0,0.0,0.0,0.0,0.0,0.0,0.0,0.0,0.0,0.0,0.0,0.0,0.0,0.0,0.0,0.0,0.0,0.0,0.0,0.0,-0.9841,-1.0208,-1.0748,-1.0974,-1.1003,-1.1363,-1.1413,-1.1059,-1.1059,-1.1122,-1.1059,-1.0598,-1.0212,-0.9773,-0.8812,-0.8296,-0.8182,-0.7937,-0.7453,-0.6933,-0.7346,0.0,0.0,0.0,0.0,0.0,0.0,0.0,0.0,0.0,0.0,0.0,0.0,0.0,-0.3262,-0.3446,-0.3499,-0.3593,-0.4134,-0.4533,-0.4851,-0.5368,0.0,0.0,-0.5722,-0.5706,0.0,-0.748,0.0,0.0,0.0,-1.0123,-1.4971,-1.4943,-1.9229,-2.2685,-2.3012,-2.3115,-2.3144,-2.3144,-2.3144,-2.3144,-2.3135,-2.3135,-2.3135,-2.3135,-2.3071,-2.4904,-2.9063,-2.932,-2.9284,-2.9284,-2.9307,-2.9295,-2.9318,-2.9834,-2.8585,-2.572,-2.572,-2.8127,-3.2388,-2.7764,-2.5696,-2.5717,-2.5717,-2.5717,-2.5655,-2.5728,-2.569,-2.5729,-2.5692,-2.5742,-2.5742,-2.5742,-2.5742,-2.5742,0.0,0.0,0.0,0.0,0.0,0.0,0.0,0.0,0.0,0.0,0.0,0.0,0.0,0.0,0.0,0.0,0.0,0.0,0.0,-0.9187,-0.954,-0.9897,-1.0429,-1.0863,-1.1062,-1.1183,-1.1122,-1.0807,-1.0807,-1.0807,-1.0751,-1.0225,-0.9773,-0.9268,-0.856,-0.7987,-0.7578,-0.7341,-0.6946,-0.6529,-0.6314,-0.5819,0.0,0.0,0.0,0.0,0.0,0.0,0.0,0.0,-0.383,-0.3845,-0.3404,-0.3293,-0.3336,-0.3462,-0.3536,-0.3674,-0.4304,-0.4676,-0.4785,-0.4946,0.0,0.0,0.0,0.0,-0.7331,-0.7879,-0.9719,0.0,0.0,-0.7632,-1.2587,-1.9247,-2.1896,-2.3094,-2.3105,-2.3106,-2.3135,-2.3135,-2.3135,-2.3135,-2.3135,-2.3135,-2.3135,-2.3135,-2.3063,-2.5059,-2.9582,-2.9837,-2.9824,-2.9824,-2.9824,-2.9824,-2.9787,-2.9788,-2.9253,-2.8277,-2.9624,-3.1252,-3.3015,-3.1175,-3.0264,-3.0339,-3.0262,-3.0262,-3.0274,-3.0341,-2.8477,-2.566,-2.5379,-2.5322,-2.5293,-2.5019,-2.4912,-2.4912,0.0,0.0,0.0,0.0,0.0,0.0,0.0,0.0,0.0,0.0,0.0,0.0,0.0,0.0,0.0,0.0,0.0,0.0,-0.8938,-0.9218,-0.9512,-0.9806,-1.0342,-1.0657,-1.0667,-1.0674,-1.0611,-1.0485,-1.0421,-1.0428,-1.0561,-0.9907,-0.9268,-0.8823,-0.8179,-0.7531,-0.6933,-0.6928,-0.6591,-0.6135,-0.5695,-0.5187,0.0,0.0,0.0,0.0,0.0,0.0,0.0,0.0,-0.3629,-0.3645,-0.3363,-0.3336,-0.3393,-0.354,-0.3605,-0.3726,-0.4445,-0.4257,-0.4123,0.0,0.0,0.0,0.0,0.0,-1.0485,-1.0499,-1.3325,-1.4155,-0.8902,-0.7296,-1.0455,-2.1369,-2.3066,-2.3055,-2.3076,-2.3135,-2.3135,-2.3135,-2.3135,-2.3135,-2.3135,-2.3135,-2.3135,-2.3135,-2.3112,-2.5031,-2.9544,-2.9811,-2.9792,-2.9792,-2.9792,-2.9792,-2.9792,-2.9792,-2.9827,-2.9829,-3.1354,-3.2064,-3.2031,-3.2042,-3.2413,-3.3059,-3.3107,-3.3118,-3.313,-3.3088,-2.9977,-2.5252,-2.5031,-2.4863,-2.4824,-2.4531,-2.4414,-2.4414,0.0,0.0,0.0,0.0,0.0,0.0,0.0,0.0,0.0,0.0,0.0,0.0,0.0,0.0,0.0,0.0,0.0,0.0,-0.9218,-0.9519,-0.982,-1.0107,-1.0401,-1.0358,-0.9837,-0.9773,-0.9964,-1.0268,-0.9964,-1.0034,-1.0561,-0.9466,-0.8818,-0.8436,-0.7606,-0.692,-0.6444,-0.6728,-0.6533,-0.5907,-0.5723,-0.5141,-0.4287,0.0,0.0,0.0,0.0,0.0,0.0,0.0,-0.3228,-0.3191,-0.3369,-0.3367,-0.3489,-0.3685,-0.3703,-0.3734,-0.437,-0.3295,0.0,0.0,0.0,0.0,0.0,0.0,-1.5765,-1.5798,-1.5839,-1.5803,-1.5874,-1.0706,-1.0133,-2.1268,-2.3067,-2.3135,-2.3135,-2.3135,-2.3135,-2.3135,-2.3135,-2.3135,-2.3135,-2.3135,-2.3135,-2.3135,-2.3112,-2.5031,-2.9544,-2.9811,-2.9792,-2.9792,-2.9792,-2.9792,-2.9792,-2.9792,-2.9792,-2.9792,-2.9792,-2.9804,-2.9764,-2.9764,-3.0979,-3.3079,-3.3079,-3.3079,-3.3036,-3.3046,-2.9636,-2.4416,-2.4369,-2.4404,-2.4414,-2.4404,-2.4404,-2.4404,0.0,0.0,0.0,0.0,0.0,0.0,0.0,0.0,0.0,0.0,0.0,0.0,0.0,0.0,0.0,0.0,0.0,0.0,-0.9176,-0.9706,-1.0027,-1.0114,-1.0401,-1.0358,-0.9837,-0.9069,-0.8877,-0.9396,-0.9268,-0.9338,-0.9466,-0.849,-0.8053,-0.8009,-0.7192,-0.6579,-0.6297,-0.6356,-0.6087,-0.5651,-0.4971,-0.452,-0.422,0.0,0.0,0.0,0.0,0.0,0.0,0.0,0.0,0.0,-0.3176,-0.3471,-0.3565,-0.3642,-0.3697,-0.3581,-0.2896,0.0,0.0,0.0,0.0,0.0,0.0,-1.3001,0.0,0.0,-1.7167,-1.8896,-2.0639,-1.9376,-1.9175,-2.2543,-2.3065,-2.3135,-2.3135,-2.3135,-2.3135,-2.3135,-2.3135,-2.3135,-2.3135,-2.3135,-2.3135,-2.3135,-2.3112,-2.5031,-2.9544,-2.9811,-2.9792,-2.9792,-2.9792,-2.9792,-2.9792,-2.9792,-2.9792,-2.9792,-2.9792,-2.9814,-2.9766,-2.9843,-3.0171,-3.0753,-3.0804,-3.081,-3.0766,-3.077,-2.7917,-2.3516,-2.3939,-2.4068,-2.3935,-2.3633,-2.3516,-2.3516,0.0,0.0,0.0,0.0,0.0,0.0,0.0,0.0,0.0,0.0,0.0,0.0,0.0,0.0,0.0,0.0,0.0,0.0,0.0,-0.9551,-0.9916,-1.0287,-1.0461,-1.0238,-0.9524,-0.8619,-0.8236,-0.8431,-0.8565,-0.8818,-0.8952,-0.8194,-0.7774,-0.7695,-0.6814,-0.6312,-0.5994,-0.5905,-0.5758,-0.5491,-0.4791,-0.4422,-0.422,0.0,0.0,0.0,0.0,0.0,0.0,0.0,0.0,0.0,-0.3317,-0.3544,-0.3634,-0.3673,-0.3728,-0.3789,-0.3534,0.0,0.0,0.0,0.0,-1.0988,-1.2521,0.0,0.0,0.0,-1.7908,-1.9696,-2.1759,-2.2653,-2.3057,-2.314,-2.3085,-2.3135,-2.3135,-2.3135,-2.3135,-2.3135,-2.3104,-2.3075,-2.3125,-2.3104,-2.3075,-2.3135,-2.3063,-2.5088,-2.9556,-2.9788,-2.9786,-2.9792,-2.9792,-2.9792,-2.9792,-2.9792,-2.9792,-2.9792,-2.9792,-2.9792,-2.9792,-2.977,-2.9779,-2.9791,-2.9806,-2.9801,-2.9838,-2.9837,-2.771,-2.4426,-2.4563,-2.4415,-2.426,-2.4409,-2.4478,-2.4478,0.0,0.0,0.0,0.0,0.0,0.0,0.0,0.0,0.0,0.0,0.0,0.0,0.0,0.0,0.0,0.0,0.0,0.0,0.0,0.0,-0.9643,-1.0478,-1.0498,-0.9983,-0.9017,-0.8431,-0.7912,-0.7521,-0.7912,-0.8376,-0.8863,-0.8148,-0.7646,-0.7344,-0.6592,-0.6012,-0.5606,-0.5596,-0.5501,-0.5362,-0.4964,-0.4625,-0.4287,-0.3956,0.0,0.0,0.0,0.0,0.0,0.0,0.0,0.0,-0.3761,-0.3714,-0.3656,-0.3746,-0.3783,-0.4152,-0.5507,0.0,0.0,0.0,0.0,0.0,-1.5448,-1.592,-1.6292,-1.7505,-1.8126,-1.9043,-2.0454,-2.2073,-2.3135,-2.3135,-2.3135,-2.3135,-2.3135,-2.3135,-2.3125,-2.3096,-2.3071,-2.3288,-2.3687,-2.3338,-2.3067,-2.3066,-2.3087,-2.485,-2.9011,-2.9553,-2.9816,-2.9804,-2.9792,-2.9792,-2.9792,-2.9792,-2.9792,-2.9792,-2.9792,-2.9792,-2.9792,-2.9792,-2.9792,-2.9792,-2.9792,-2.9792,-2.9817,-2.9829,-2.8626,-2.6741,-2.5804,-2.5258,-2.5041,-2.6141,-2.6483,-2.6483,0.0,0.0,0.0,0.0,0.0,0.0,0.0,0.0,0.0,0.0,0.0,0.0,0.0,0.0,0.0,0.0,0.0,0.0,0.0,0.0,-0.9336,-0.9964,-0.9594,-0.921,-0.9017,-0.8107,-0.7587,-0.7521,-0.7587,-0.7805,-0.8048,-0.7269,-0.7036,-0.7171,-0.6273,-0.5854,-0.5749,-0.5637,-0.5501,-0.5362,-0.4964,-0.4625,-0.4287,-0.422,-0.3876,0.0,0.0,0.0,0.0,0.0,0.0,0.0,-0.3699,-0.3677,-0.3738,-0.3767,-0.3867,-0.4148,0.0,-0.6916,0.0,0.0,0.0,-1.4064,-1.5514,-1.6574,-1.7412,-1.7591,-1.9289,-2.0792,-2.1078,-2.2208,-2.3135,-2.3135,-2.3135,-2.3135,-2.3135,-2.3135,-2.3124,-2.3107,-2.3093,-2.4461,-2.7992,-2.5142,-2.314,-2.3133,-2.3103,-2.3533,-2.4519,-2.7873,-2.9789,-2.9792,-2.9792,-2.9792,-2.9792,-2.9792,-2.9792,-2.9792,-2.9792,-2.9792,-2.9792,-2.9792,-2.9792,-2.9792,-2.9792,-2.9792,-2.9792,-2.9802,-2.9547,-2.8915,-2.7013,-2.6251,-2.6141,-2.6389,-2.6483,-2.6483,0.0,0.0,0.0,0.0,0.0,0.0,0.0,0.0,0.0,0.0,0.0,0.0,0.0,0.0,0.0,0.0,0.0,0.0,0.0,0.0,-0.8812,-0.9134,-0.8877,-0.8624,-0.8361,-0.7842,-0.7635,-0.7612,-0.7574,-0.7499,-0.7505,-0.707,-0.6849,-0.6722,-0.6053,-0.5766,-0.5691,-0.5542,-0.5437,-0.5362,-0.5163,-0.4931,-0.4713,-0.4642,-0.4245,-0.3712,-0.3706,0.0,0.0,0.0,0.0,0.0,0.0,0.0,-0.3765,-0.3771,-0.3353,-0.3446,0.0,0.0,0.0,0.0,0.0,-1.4949,-1.5635,-1.721,-1.8596,-1.8596,-2.0034,-2.148,-2.2031,-2.2677,-2.3135,-2.3135,-2.3135,-2.3135,-2.3135,-2.3135,-2.3095,-2.3093,-2.4956,-2.7254,-2.9569,-2.7706,-2.6313,-2.6319,-2.4304,-2.4054,-2.6218,-2.8545,-2.9774,-2.9804,-2.9792,-2.9792,-2.9792,-2.9792,-2.9792,-2.9792,-2.9792,-2.9792,-2.9792,-2.9792,-2.9792,-2.9792,-2.9792,-2.9792,-2.9792,-2.9792,-2.977,-2.9714,-2.8536,-2.7667,-2.7128,-2.7855,-2.8051,-2.8051,0.0,0.0,0.0,0.0,0.0,0.0,0.0,0.0,0.0,0.0,0.0,0.0,0.0,0.0,0.0,0.0,0.0,0.0,0.0,0.0,0.0,-0.8361,-0.8296,-0.8096,-0.7637,-0.7512,-0.7541,-0.7658,-0.7517,-0.7403,-0.7232,-0.7204,-0.6937,-0.6486,-0.6072,-0.5768,-0.5579,-0.5426,-0.5428,-0.5428,-0.5456,-0.5267,-0.5095,-0.5117,-0.4717,-0.4176,-0.4176,-0.3946,-0.3648,-0.3648,0.0,0.0,0.0,0.0,-0.3765,-0.3771,-0.3158,-0.3065,0.0,0.0,0.0,0.0,-1.389,0.0,-1.5832,-1.7576,-1.9222,-1.9497,-2.0666,-2.1943,-2.295,-2.3135,-2.3135,-2.3135,-2.3135,-2.3135,-2.3135,-2.3135,-2.3095,-2.3093,-2.7099,-2.976,-2.9791,-2.9779,-2.9474,-2.8722,-2.5243,-2.4756,-2.841,-2.9352,-2.9807,-2.9817,-2.9792,-2.9792,-2.9792,-2.9792,-2.9792,-2.9792,-2.9792,-2.9792,-2.9792,-2.9792,-2.9792,-2.9792,-2.9792,-2.9792,-2.9792,-2.9792,-2.9811,-2.9824,-2.9839,-2.9045,-2.8136,-2.9328,-2.9792,-2.9792,0.0,0.0,0.0,0.0,0.0,0.0,0.0,0.0,0.0,0.0,0.0,0.0,0.0,0.0,0.0,0.0,0.0,0.0,-0.7534,0.0,0.0,-0.7837,-0.7507,-0.7312,-0.7246,-0.6802,-0.6692,-0.7052,-0.7257,-0.7269,0.0,0.0,-0.7186,-0.7163,-0.6365,-0.5883,-0.5579,-0.5426,-0.5428,-0.5439,-0.5504,-0.5359,-0.5035,-0.5506,-0.5134,-0.4281,-0.4584,-0.4277,-0.3744,-0.3744,-0.3752,0.0,0.0,0.0,-0.3765,-0.3771,-0.4362,-0.5087,0.0,0.0,0.0,0.0,-1.389,-1.5832,0.0,0.0,-1.8234,-1.9314,-2.1311,-2.295,-2.3047,-2.3135,-2.3135,-2.3135,-2.3135,-2.3135,-2.3135,-2.3135,-2.3095,-2.3093,-2.7059,-2.9762,-2.9763,-2.9782,-2.8196,-2.4261,-2.3444,-2.3339,-2.3939,-2.7667,-2.9814,-2.9792,-2.9792,-2.9792,-2.9792,-2.9792,-2.9792,-2.9792,-2.9792,-2.9792,-2.9792,-2.9792,-2.9792,-2.9792,-2.9792,-2.9792,-2.9792,-2.9792,-2.9817,-2.9789,-2.9817,-2.9702,-2.9509,-2.9702,-2.9792,-2.9792,0.0,0.0,0.0,0.0,0.0,0.0,0.0,0.0,0.0,0.0,0.0,0.0,0.0,0.0,0.0,-0.7207,-0.7326,-0.7426,-0.7517,-0.7587,-0.7391,-0.6999,-0.6802,-0.6671,-0.647,-0.6214,-0.6332,-0.6764,-0.681,0.0,0.0,-0.717,-0.701,-0.6903,-0.6541,-0.6287,-0.6064,-0.5789,-0.5744,-0.5766,-0.5631,-0.5714,-0.5839,-0.567,-0.529,-0.4954,-0.467,-0.4269,-0.3763,-0.3763,-0.3763,-0.3763,-0.3763,0.0,0.0,0.0,-0.4379,-0.5235,-0.6199,0.0,0.0,0.0,-1.3301,-1.4949,-1.5635,-1.6763,-1.787,-1.8411,-2.0404,-2.2306,-2.296,-2.3135,-2.3135,-2.3135,-2.3135,-2.3135,-2.3135,-2.3135,-2.3095,-2.3093,-2.4798,-2.6067,-2.6054,-2.8351,-2.8941,-2.6971,-2.4506,-2.4221,-2.6736,-2.8742,-2.977,-2.9792,-2.9792,-2.9792,-2.9792,-2.9792,-2.9792,-2.9792,-2.9792,-2.9792,-2.9792,-2.9792,-2.9792,-2.9792,-2.9792,-2.9792,-2.9792,-2.9792,-2.9792,-2.9792,-2.9792,-2.9792,-2.9792,-2.9792,-2.9792,-2.9792,0.0,0.0,0.0,0.0,0.0,0.0,0.0,0.0,0.0,0.0,0.0,0.0,0.0,0.0,0.0,0.0,-0.7436,-0.7456,-0.733,-0.7195,-0.6872,-0.6284,-0.6195,-0.6066,-0.576,-0.58,-0.606,-0.6475,0.0,0.0,-0.7303,-0.7015,-0.6822,0.0,-0.6675,-0.663,-0.6485,-0.6219,-0.6113,-0.6143,-0.6051,-0.6153,-0.6454,-0.5802,-0.5536,-0.5421,-0.4698,-0.4151,-0.3763,-0.3763,-0.3763,-0.3763,-0.3763,-0.3841,0.0,0.0,0.0,-0.5031,0.0,0.0,0.0,-1.1347,-1.2723,-1.3998,0.0,-1.6574,-1.7318,-1.7598,-1.9405,-2.1212,-2.2403,-2.2862,-2.3135,-2.3135,-2.3135,-2.3135,-2.3135,-2.3135,-2.3134,-2.3127,-2.3097,-2.3138,-2.3132,-2.6143,-2.8092,-2.809,-2.6041,-2.6284,-2.9646,-2.9831,-2.9845,-2.9804,-2.9792,-2.9792,-2.9792,-2.9792,-2.9792,-2.9792,-2.9792,-2.9792,-2.9792,-2.9792,-2.9792,-2.9792,-2.9792,-2.9792,-2.9792,-2.9792,-2.9792,-2.9792,-2.9792,-2.9792,-2.9792,-2.9792,-2.9792,-2.9792,0.0,0.0,0.0,0.0,0.0,0.0,0.0,0.0,0.0,0.0,0.0,0.0,-0.7121,-0.7212,-0.7297,-0.7488,-0.7517,-0.733,-0.6946,-0.635,-0.5954,-0.5954,-0.5773,0.0,-0.5432,-0.5573,-0.5716,-0.5969,0.0,0.0,-0.6444,-0.6758,-0.6885,-0.6894,-0.6894,-0.6785,-0.6664,-0.6664,-0.6557,-0.6406,-0.6876,-0.6846,-0.6488,-0.6207,-0.5853,-0.5421,-0.4698,-0.4151,-0.3763,-0.3763,-0.3763,-0.3763,-0.3763,-0.4075,-0.4384,0.0,0.0,0.0,0.0,0.0,0.0,-1.081,-1.2221,0.0,0.0,-1.5825,-1.6197,-1.7404,-1.868,-1.9943,-2.1203,-2.2306,-2.3135,-2.3135,-2.3135,-2.3135,-2.3135,-2.3135,-2.3135,-2.3115,-2.3115,-2.3065,-2.3138,-2.3348,-2.3473,-2.3453,-2.7149,-2.9565,-2.9828,-2.9824,-2.9817,-2.9792,-2.9792,-2.9792,-2.9792,-2.9792,-2.9792,-2.9792,-2.9792,-2.9792,-2.9792,-2.9792,-2.9792,-2.9792,-2.9792,-2.9792,-2.9792,-2.9792,-2.9792,-2.9792,-2.9792,-2.9792,-2.9792,-2.9792,-2.9792,-2.9792,0.0,0.0,0.0,0.0,0.0,0.0,0.0,0.0,0.0,0.0,0.0,0.0,0.0,-0.7035,-0.7062,-0.7134,-0.7138,-0.6942,-0.6618,-0.6451,-0.6194,-0.5896,-0.5916,-0.5791,-0.5432,-0.5416,-0.5483,0.0,0.0,-0.576,-0.6086,-0.642,-0.6683,-0.6885,-0.7274,-0.7436,-0.7373,-0.7294,-0.7103,-0.6942,-0.7036,-0.6973,-0.68,-0.5999,-0.5993,-0.6317,-0.5131,-0.4589,-0.4426,-0.4426,-0.4181,-0.3763,-0.3763,-0.4073,-0.454,-0.501,-0.5246,-0.5614,0.0,0.0,0.0,-0.9472,-1.0965,-1.2415,-1.3903,-1.5078,-1.592,-1.6386,-1.749,-1.868,-1.9943,-2.1765,-2.3135,-2.3135,-2.3135,-2.3135,-2.3135,-2.3135,-2.3135,-2.3135,-2.3135,-2.3096,-2.3142,-2.3122,-2.312,-2.3063,-2.4577,-2.6745,-2.9663,-2.9794,-2.9829,-2.9829,-2.9839,-2.9792,-2.9792,-2.9792,-2.9792,-2.9792,-2.9792,-2.9792,-2.9792,-2.9792,-2.9792,-2.9792,-2.9792,-2.9792,-2.9792,-2.9792,-2.9792,-2.9792,-2.9792,-2.9792,-2.9792,-2.9792,-2.9792,-2.9792,0.0,0.0,0.0,0.0,0.0,0.0,0.0,0.0,0.0,-0.7107,0.0,0.0,0.0,0.0,-0.6946,-0.7073,-0.6749,-0.6486,-0.642,-0.6254,-0.6067,-0.5763,-0.5848,-0.5791,-0.5432,-0.5413,-0.5413,-0.5428,0.0,0.0,0.0,-0.6218,-0.6581,-0.6847,-0.7582,-0.7881,-0.7896,-0.7895,-0.766,-0.7279,-0.7507,-0.7388,-0.7037,-0.6028,-0.608,-0.6471,-0.53,-0.4816,-0.4799,-0.5124,-0.488,-0.4503,-0.4194,-0.4286,-0.454,-0.5401,-0.5637,-0.5755,-0.6418,0.0,0.0,0.0,-0.9657,-1.0899,-1.2936,-1.4222,-1.511,-1.569,-1.685,-1.7963,-1.8772,-2.0854,-2.2589,-2.3047,-2.3135,-2.3135,-2.3135,-2.3135,-2.3135,-2.3135,-2.3135,-2.3135,-2.3135,-2.3135,-2.3134,-2.3071,-2.3113,-2.4409,-2.7383,-2.7568,-2.8274,-2.9764,-2.9791,-2.9839,-2.9792,-2.9792,-2.9792,-2.9792,-2.9792,-2.9792,-2.9792,-2.9792,-2.9792,-2.9792,-2.9792,-2.9792,-2.9792,-2.9792,-2.9792,-2.9792,-2.9792,-2.9792,-2.9792,-2.9792,-2.9792,-2.9792,0.0,0.0,0.0,0.0,0.0,0.0,0.0,0.0,-0.7112,-0.692,0.0,0.0,0.0,0.0,0.0,-0.7456,-0.6478,-0.602,-0.6354,-0.5763,-0.5432,-0.5428,-0.5508,-0.5518,-0.5432,-0.5508,-0.5511,-0.5428,-0.5428,-0.5428,-0.5428,-0.6094,-0.6518,-0.6753,-0.764,-0.8089,-0.8103,-0.8321,-0.8076,-0.7545,-0.8183,-0.7848,-0.6979,-0.6315,-0.6023,-0.5908,-0.5254,-0.4976,-0.5007,-0.5744,-0.5902,-0.5761,-0.5014,-0.4632,-0.454,-0.5401,-0.5637,-0.5715,0.0,0.0,0.0,-0.806,-0.8233,-0.8923,-1.2471,-1.326,-1.3793,-1.5389,-1.6727,-1.7569,-1.7684,-1.9579,-2.1569,-2.2775,-2.3047,-2.3135,-2.3135,-2.3135,-2.3135,-2.3135,-2.3135,-2.3135,-2.3135,-2.3135,-2.3135,-2.3135,-2.309,-2.3063,-2.3063,-2.3089,-2.5137,-2.9438,-2.9764,-2.9774,-2.9817,-2.9792,-2.9792,-2.9792,-2.9792,-2.9792,-2.9792,-2.9792,-2.9792,-2.9792,-2.9792,-2.9792,-2.9804,-2.9792,-2.9792,-2.9792,-2.9792,-2.9792,-2.9792,-2.9792,-2.9792,-2.9792,0.0,0.0,0.0,0.0,0.0,0.0,-0.6573,-0.6603,-0.6624,0.0,0.0,0.0,-0.6486,-0.6552,-0.6618,-0.6679,-0.6218,-0.5822,-0.569,-0.5599,-0.5477,-0.5432,-0.5508,-0.5518,-0.5432,-0.5403,-0.5403,-0.5428,-0.5428,-0.5428,-0.5428,-0.5947,-0.623,-0.6287,-0.7431,-0.7728,-0.7453,-0.7939,-0.7897,-0.7545,-0.7843,-0.7584,-0.7081,-0.679,-0.6979,-0.7372,-0.6662,-0.6468,-0.6539,-0.7692,-0.6719,-0.5007,-0.462,-0.4668,-0.4927,-0.5479,-0.5873,-0.6106,-0.6261,0.0,0.0,0.0,0.0,0.0,-0.9676,-1.0823,-1.2164,-1.3774,-1.4337,-1.5192,-1.7316,-1.8234,-1.9139,-2.0314,-2.1952,-2.3135,-2.3135,-2.3135,-2.3135,-2.3135,-2.3135,-2.3135,-2.3135,-2.3135,-2.3135,-2.3135,-2.3134,-2.3085,-2.3085,-2.3103,-2.3669,-2.493,-2.8078,-2.9819,-2.9799,-2.9774,-2.9792,-2.9792,-2.9792,-2.9792,-2.9792,-2.9792,-2.9792,-2.9792,-2.9792,-2.9786,-2.9774,-2.9827,-2.9792,-2.9792,-2.9792,-2.9792,-2.9792,-2.9792,-2.9792,-2.9792,0.0,0.0,0.0,0.0,0.0,-0.61,-0.6338,-0.642,-0.6354,0.0,0.0,0.0,-0.6156,-0.6218,-0.6218,-0.6416,-0.5958,-0.5693,-0.5627,-0.5578,-0.5454,-0.5432,-0.5447,-0.5454,-0.5428,-0.5428,-0.5428,-0.5428,-0.5423,-0.5423,-0.5432,-0.5924,-0.6169,-0.625,0.0,0.0,-0.7338,-0.7516,-0.7484,-0.7308,-0.7669,-0.7496,-0.718,-0.7633,-0.8126,-0.8401,-0.8562,-0.866,-0.8808,-0.9793,-0.8438,-0.6329,-0.6166,-0.5639,-0.5082,-0.5479,-0.5792,-0.6028,-0.6261,-0.6338,-0.6338,-0.6338,0.0,0.0,-0.9317,-1.0344,-1.1669,-1.3933,-1.4371,-1.4935,-1.6598,-1.7318,-1.7956,-1.8588,-2.0645,-2.234,-2.3017,-2.3115,-2.3135,-2.3135,-2.3135,-2.3135,-2.3135,-2.3135,-2.3135,-2.3135,-2.3135,-2.3135,-2.3135,-2.3122,-2.3113,-2.3109,-2.5628,-2.7918,-2.978,-2.9813,-2.9794,-2.9794,-2.9794,-2.9794,-2.9794,-2.9794,-2.9794,-2.9794,-2.9794,-2.9825,-2.9626,-2.7749,-2.8104,-2.9782,-2.9766,-2.9804,-2.9794,-2.9794,-2.9794,-2.9665,0.0,0.0,-0.5649,-0.58,-0.5822,-0.5954,-0.6218,-0.6284,-0.6152,0.0,-0.5888,-0.5888,-0.5888,-0.5888,-0.6024,-0.6288,-0.576,-0.5491,-0.5826,-0.5561,-0.5428,-0.5428,-0.5428,-0.5428,-0.5428,-0.5428,-0.5428,-0.5428,-0.5515,-0.5518,-0.5459,-0.5969,-0.6259,-0.6338,0.0,0.0,-0.7253,-0.6942,-0.6806,-0.6894,-0.7513,-0.758,-0.7453,-0.8675,-0.925,-0.9409,-1.0612,-1.1031,-1.1111,-1.1652,-1.0505,-0.8915,-0.8487,-0.7058,-0.562,-0.5575,-0.5733,-0.5986,-0.6268,-0.6338,-0.6338,-0.6338,-0.6338,0.0,-0.9868,-1.0469,-1.131,-1.4364,-1.4958,-1.5078,-1.5236,-1.6171,-1.6992,-1.6992,-1.8784,-2.0814,-2.2862,-2.3084,-2.3135,-2.3135,-2.3106,-2.3086,-2.3086,-2.3067,-2.3135,-2.3135,-2.3135,-2.3135,-2.3135,-2.3135,-2.3085,-2.3113,-2.3073,-2.5051,-2.8988,-2.9047,-2.9023,-2.9023,-2.9023,-2.9023,-2.9023,-2.9023,-2.9023,-2.9023,-2.9023,-2.9047,-2.8716,-2.4791,-2.5744,-2.9745,-2.9282,-2.9051,-2.9023,-2.9023,-2.9023,-2.8751,-0.5443,0.0,-0.5456,-0.5488,-0.5495,-0.5495,-0.5561,-0.5627,-0.5561,-0.5495,-0.5756,-0.5888,-0.5888,-0.5888,-0.5954,-0.602,-0.5624,-0.5428,-0.5495,-0.5428,-0.5428,-0.5428,-0.5428,-0.5428,-0.5428,-0.5428,-0.5428,-0.5428,-0.5515,-0.5576,-0.5552,-0.5557,-0.5615,-0.5619,-0.5831,-0.5912,-0.6022,-0.6244,-0.6465,-0.6808,-0.7083,-0.7837,-0.8781,-0.9577,-1.04,-1.1332,-1.1671,-1.1753,-1.1672,-1.1204,-1.1456,-1.1447,-0.851,-0.843,-0.8866,-0.6307,-0.6734,-0.7757,-0.6634,-0.6338,-0.6338,-0.6338,-0.6338,0.0,-0.7111,-0.7217,-0.7725,-0.9647,-1.0001,-1.0364,-1.1685,-1.2102,-1.2272,-1.2272,-1.4845,-1.8255,-2.2453,-2.3128,-2.31,-2.31,-2.3099,-2.3063,-2.3063,-2.3076,-2.3135,-2.3135,-2.3135,-2.3135,-2.3135,-2.3135,-2.3105,-2.3124,-2.3107,-2.3547,-2.4409,-2.4398,-2.4426,-2.4426,-2.4426,-2.4426,-2.4426,-2.4426,-2.4426,-2.4426,-2.4426,-2.4409,-2.4367,-2.3432,-2.5744,-2.9402,-2.5853,-2.4445,-2.4426,-2.4426,-2.4426,-2.4323,-0.5428,-0.5428,-0.5428,-0.5428,-0.5428,-0.5428,-0.5428,-0.5428,-0.5428,-0.5428,-0.5561,-0.5627,-0.5627,-0.5627,-0.5627,-0.5627,-0.5495,-0.5428,-0.5428,-0.5428,-0.5428,-0.5428,-0.5428,-0.5463,-0.5474,-0.5477,-0.5443,-0.5306,-0.5664,-0.5555,-0.5136,-0.5408,-0.5345,-0.5139,-0.526,-0.5395,-0.5637,-0.5786,-0.6576,-0.771,-0.7962,-0.8549,-0.9483,-1.1301,-1.2328,-1.3011,-1.3596,-1.3884,-1.3747,-1.3479,-1.2683,-1.169,-1.0743,-1.0018,-0.9192,-0.76,-0.7781,-0.8252,-0.6727,-0.6338,-0.6338,-0.6338,-0.6338,0.0,0.0,-0.7426,-0.7922,-0.9442,-0.9779,-1.001,-1.0828,-1.1225,-1.1311,-1.1042,-1.2815,-1.5404,-1.8968,-1.9479,-1.9488,-1.9488,-1.9472,-2.0395,-2.2815,-2.3127,-2.3092,-2.3055,-2.3115,-2.3135,-2.3135,-2.3135,-2.3135,-2.3135,-2.3055,-2.314,-2.314,-2.3067,-2.3073,-2.3073,-2.3073,-2.3073,-2.3073,-2.3073,-2.3073,-2.3073,-2.3073,-2.3077,-2.313,-2.3133,-2.4449,-2.6245,-2.3959,-2.3082,-2.3073,-2.3073,-2.3073,-2.3073,-0.5428,-0.5428,-0.5428,-0.5428,-0.5428,-0.5428,-0.5428,-0.5428,-0.5428,-0.5428,-0.5428,-0.5428,-0.5428,-0.561,-0.578,-0.578,-0.6034,-0.6124,-0.5891,-0.5891,-0.5745,-0.5514,-0.5447,-0.5504,-0.563,-0.563,-0.5476,-0.5225,-0.5661,-0.5448,-0.4619,-0.514,-0.5115,-0.4722,-0.4857,-0.5129,-0.5404,-0.5614,-0.6823,-0.8625,-0.9185,-0.9812,-1.0482,-1.3009,-1.407,-1.4364,-1.5439,-1.5832,-1.5717,-1.5409,-1.3641,-1.156,-1.2297,-1.1079,-0.9331,-0.8449,-0.8569,-0.8669,-0.682,-0.6338,-0.6338,-0.6338,-0.6338,-0.6631,0.0,0.0,0.0,-0.9947,-1.0189,-1.0189,-1.0273,-1.0531,-1.0531,-1.0273,-1.0932,-1.2014,-1.3696,-1.5001,-1.5777,-1.5777,-1.5805,-1.7348,-2.1309,-2.1708,-2.2087,-2.3019,-2.3066,-2.3086,-2.3115,-2.3076,-2.3135,-2.3135,-2.3135,-2.3135,-2.3135,-2.3135,-2.3135,-2.3135,-2.3135,-2.3135,-2.3135,-2.3135,-2.3135,-2.3135,-2.3135,-2.3135,-2.3135,-2.3135,-2.3135,-2.3115,-2.309,-2.3063,-2.3135,-2.3135,-2.3135,-2.3135,-0.5428,-0.5428,-0.5428,-0.5428,-0.5428,-0.5428,-0.5428,-0.5428,-0.5428,-0.5428,-0.5428,-0.5428,-0.5428,-0.6482,-0.7227,-0.7227,-0.8471,-0.8749,-0.7625,-0.7539,-0.6965,-0.5827,-0.5752,-0.5759,-0.5776,-0.5776,-0.5571,-0.5225,-0.5365,-0.5199,-0.4742,-0.464,-0.4533,-0.4453,-0.474,-0.4725,-0.4631,-0.5644,-0.6979,-0.864,-1.0154,-1.1673,-1.3071,-1.3679,-1.4561,-1.5629,-1.573,-1.5832,-1.5556,-1.4191,-1.3393,-1.269,-0.9996,-1.0828,-1.2048,-0.7817,-0.8552,-1.0105,-0.7115,-0.6338,-0.6338,-0.6338,-0.6338,-0.6345,-0.6535,0.0,-0.7161,-0.7352,0.0,-0.7438,-0.7831,0.0,0.0,-0.7504,-0.7247,-0.7073,-0.7371,-1.2234,-1.577,-1.577,-1.5805,-1.6056,-1.661,-1.6602,-1.8451,-2.2819,-2.3115,-2.3073,-2.3063,-2.3076,-2.3135,-2.3135,-2.3135,-2.3135,-2.3135,-2.3135,-2.3135,-2.3135,-2.3135,-2.3135,-2.3135,-2.3135,-2.3135,-2.3135,-2.3135,-2.3135,-2.3135,-2.3135,-2.3135,-2.3135,-2.3096,-2.3105,-2.3135,-2.3135,-2.3135,-2.3135,-0.5428,-0.5428,-0.5428,-0.5428,-0.5428,-0.5428,-0.5428,-0.5428,-0.5428,-0.5428,-0.5428,-0.5428,-0.5428,-0.6028,-0.669,-0.7425,-0.8291,-0.851,-0.7868,-0.7961,-0.7372,-0.5882,-0.58,-0.5844,-0.5932,-0.5932,-0.5754,-0.5466,-0.5524,-0.5166,-0.455,-0.4441,-0.4307,-0.4081,-0.4608,-0.4901,-0.5062,-0.5823,-0.72,-0.896,-1.0438,-1.1937,-1.3538,-1.4546,-1.5337,-1.5832,-1.5832,-1.5832,-1.569,-1.5065,-1.3532,-1.207,-1.2589,-1.1794,-1.0449,-0.9322,-0.9317,-0.9105,-0.692,-0.6931,-0.7422,-0.6535,-0.7167,-0.7807,-0.6832,-0.6945,-0.7249,-0.7249,0.0,0.0,0.0,0.0,0.0,0.0,-0.747,-0.7346,-0.6455,-1.1781,-1.5791,-1.5791,-1.2581,-1.1736,-1.5466,-1.5793,-1.5164,-1.351,-1.678,-2.0087,-2.2984,-2.3133,-2.3105,-2.3144,-2.3135,-2.3135,-2.3135,-2.3135,-2.3135,-2.3135,-2.3135,-2.3135,-2.3135,-2.3135,-2.3135,-2.3135,-2.3135,-2.3135,-2.3135,-2.3135,-2.3135,-2.3135,-2.3135,-2.3135,-2.3135,-2.3135,-2.3135,-2.3135,-0.5428,-0.5428,-0.5428,-0.5428,-0.5428,-0.5428,-0.5428,-0.5428,-0.5428,-0.5491,-0.5596,-0.5621,-0.5624,-0.6472,-0.7381,-0.8245,-0.9344,-0.9602,-0.8651,-0.8768,-0.8159,-0.6648,-0.6191,-0.6162,-0.674,-0.6284,-0.5917,-0.5637,-0.5637,-0.5165,-0.4384,-0.4538,-0.4307,-0.3849,-0.4772,-0.5204,-0.5374,-0.603,-0.7411,-0.9114,-1.0176,-1.152,-1.3071,-1.5029,-1.5832,-1.5832,-1.5832,-1.5832,-1.5704,-1.5263,-1.3635,-1.1949,-1.3921,-1.2426,-1.01,-1.0813,-1.0469,-0.9442,-0.7509,-0.7729,-0.8239,-0.6794,-0.7588,-0.8343,-0.7305,-0.7403,-0.7638,-0.7638,-0.7638,0.0,0.0,0.0,-0.7702,-0.7544,0.0,-0.8278,-0.7092,-1.0917,-1.3682,-1.3214,-0.9083,-0.882,-1.5198,-1.5805,-1.3133,-0.6768,-1.2198,-1.7311,-2.0934,-2.2385,-2.313,-2.3066,-2.3057,-2.3115,-2.3135,-2.3135,-2.3135,-2.3135,-2.3135,-2.3135,-2.3135,-2.3135,-2.3135,-2.3135,-2.3135,-2.3135,-2.3135,-2.3135,-2.3135,-2.3135,-2.3135,-2.3135,-2.3135,-2.3135,-2.3135,-2.3135,-0.5428,-0.5428,-0.5428,-0.5428,-0.5428,-0.5428,-0.5428,-0.5428,-0.5495,-0.5822,-0.6022,-0.6123,-0.6062,-0.8883,-1.0718,-1.0311,-1.3065,-1.3523,-1.0705,-1.0502,-0.9902,-0.8543,-0.71,-0.7006,-0.8457,-0.7021,-0.6099,-0.5637,-0.5637,-0.5165,-0.4384,-0.4771,-0.4538,-0.3849,-0.5344,-0.5621,-0.4885,-0.6396,-0.7735,-0.8938,-0.9406,-1.0338,-1.187,-1.4735,-1.5832,-1.5832,-1.5832,-1.5832,-1.5549,-1.3958,-1.3387,-1.3093,-1.157,-1.2164,-1.2968,-1.1435,-1.2059,-1.2572,-0.9424,-0.8565,-0.832,-0.7177,-0.6949,-0.703,-0.7407,-0.7791,-0.8102,-0.8102,-0.8102,-0.8178,-0.8627,-0.8003,-0.7774,-0.8546,-0.866,0.0,0.0,-0.8765,-0.8322,-0.6788,-0.6434,-0.8795,-1.5212,-1.5756,-1.3149,-0.6764,-1.2198,-1.5879,-1.6003,-2.0531,-2.3119,-2.313,-2.3121,-2.3104,-2.3144,-2.3135,-2.3135,-2.3135,-2.3135,-2.3135,-2.3135,-2.3135,-2.3135,-2.3135,-2.3135,-2.3135,-2.3135,-2.3135,-2.3135,-2.3135,-2.3135,-2.3135,-2.3135,-2.3135,-2.3135,-2.3135,-0.5428,-0.5163,-0.5096,-0.5362,-0.5428,-0.5428,-0.5428,-0.5447,-0.5924,-0.712,-0.7445,-0.7952,-0.8985,-1.0183,-1.1139,-1.1891,-1.3161,-1.3034,-1.0867,-1.0841,-1.0229,-0.8849,-0.7179,-0.7021,-0.8565,-0.7115,-0.6261,-0.6025,-0.5715,-0.5323,-0.4771,-0.4927,-0.4693,-0.4238,-0.5505,-0.6048,-0.5956,-0.6747,-0.7493,-0.8128,-0.9169,-1.0472,-1.1776,-1.3558,-1.4216,-1.4358,-1.5402,-1.5832,-1.5704,-1.5217,-1.4235,-1.3507,-1.4049,-1.3099,-1.1926,-1.2443,-1.2198,-1.156,-1.0469,-1.0945,-1.117,-0.8616,-0.9064,-0.9615,-0.7897,-0.7795,-0.8178,-0.8479,-0.8479,-0.8551,-0.8703,-0.847,-0.8389,-0.8627,-0.8713,-0.8713,0.0,-0.8718,-0.8484,-0.7923,-0.7874,-0.8702,-1.0925,-1.2553,-1.1494,-0.6622,-1.2193,-1.5798,-1.5824,-1.7387,-1.831,-1.8265,-2.1401,-2.3092,-2.3104,-2.3125,-2.3135,-2.3135,-2.3135,-2.3135,-2.3135,-2.3135,-2.3135,-2.3135,-2.3135,-2.3135,-2.3135,-2.3135,-2.3135,-2.3135,-2.3135,-2.3135,-2.3135,-2.3135,-2.3135,-2.3135,-0.5428,-0.5163,-0.5096,-0.5362,-0.5406,-0.5443,-0.5443,-0.5569,-0.6264,-0.7991,-0.8358,-0.9106,-1.0681,-1.1511,-1.2261,-1.2952,-1.3724,-1.3266,-1.0992,-1.1456,-1.1234,-0.9729,-0.8604,-0.8673,-1.0239,-0.8231,-0.7119,-0.7119,-0.623,-0.5634,-0.524,-0.5395,-0.5162,-0.4623,-0.5734,-0.6263,-0.652,-0.6962,-0.738,-0.7815,-0.8649,-0.9723,-1.0963,-1.2271,-1.3105,-1.3682,-1.5269,-1.5832,-1.5832,-1.5832,-1.5097,-1.4383,-1.5516,-1.4364,-1.295,-1.3939,-1.3519,-1.2578,-1.2042,-1.2583,-1.2814,-1.0288,-1.0668,-1.1122,-0.9077,-0.8769,-0.8888,-0.8732,-0.8551,-0.8551,-0.8703,-0.8713,-0.8718,-0.8703,-0.8703,-0.8703,0.0,-0.8703,-0.8703,-0.8703,-0.8663,-0.8688,-0.8729,-0.9572,-1.0065,-0.9708,-1.3479,-1.5768,-1.5819,-1.5803,-1.5765,-1.5759,-1.8902,-2.1347,-2.3085,-2.3113,-2.3086,-2.3086,-2.3086,-2.3135,-2.3135,-2.3135,-2.3135,-2.3135,-2.3135,-2.3135,-2.3135,-2.3135,-2.3135,-2.3135,-2.3135,-2.3135,-2.3135,-2.3135,-2.3135,-2.3135,-0.5439,-0.5446,-0.5382,-0.5382,-0.5504,-0.5599,-0.5599,-0.5722,-0.6503,-0.8514,-0.8989,-0.9692,-1.1322,-1.3079,-1.3997,-1.3519,-1.4933,-1.4494,-1.1326,-1.2578,-1.2713,-1.1202,-1.1063,-1.1789,-1.3375,-1.0234,-0.8574,-0.8574,-0.7029,-0.6025,-0.5637,-0.6106,-0.5867,-0.5082,-0.5944,-0.6335,-0.6502,-0.6854,-0.7366,-0.7943,-0.792,-0.8372,-0.9331,-1.1089,-1.2595,-1.3924,-1.5246,-1.5832,-1.5832,-1.5832,-1.5832,-1.5832,-1.5832,-1.5832,-1.5832,-1.5832,-1.5832,-1.551,-1.3933,-1.3519,-1.3213,-1.2088,-1.1791,-1.1582,-1.0767,-1.0578,-1.0209,-0.9077,-0.8535,-0.8381,-0.8737,-0.8755,-0.8679,-0.8713,-0.8703,-0.8703,-0.8703,-0.8703,-0.8703,-0.8703,-0.8694,-0.8726,-0.8702,-0.7548,-0.9091,-1.475,-1.5206,-1.5411,-1.5768,-1.58,-1.5812,-1.5778,-1.5765,-1.801,-2.2712,-2.2749,-2.2815,-2.313,-2.3086,-2.3067,-2.3135,-2.3135,-2.3135,-2.3135,-2.3135,-2.3135,-2.3135,-2.3135,-2.3135,-2.3135,-2.3135,-2.3135,-2.3135,-2.3135,-2.3135,-2.3135,-0.5508,-0.5616,-0.5617,-0.5335,-0.558,-0.5745,-0.5745,-0.5874,-0.698,-0.9918,-1.0383,-1.1521,-1.4318,-1.5093,-1.5324,-1.5217,-1.5549,-1.5036,-1.3146,-1.3241,-1.3326,-1.302,-1.1679,-1.1789,-1.3375,-1.0234,-0.8574,-0.8574,-0.7029,-0.6025,-0.5637,-0.6106,-0.6025,-0.5479,-0.6025,-0.6227,-0.6223,-0.6307,-0.6592,-0.6992,-0.8613,-0.9235,-0.9553,-1.2411,-1.3544,-1.3924,-1.5246,-1.5832,-1.5832,-1.5832,-1.5832,-1.5832,-1.5832,-1.5832,-1.5832,-1.5832,-1.5832,-1.5697,-1.5263,-1.5217,-1.4795,-1.3321,-1.2921,-1.2697,-1.1599,-1.1404,-1.1365,-1.14,-1.1294,-1.0853,-0.9777,-0.9124,-0.8704,-0.8698,-0.8718,-0.8703,-0.8703,-0.8703,-0.8703,-0.8703,-0.8665,-0.868,-0.869,-1.1534,-1.1403,-0.677,-0.7469,-1.0329,-1.5557,-1.5777,-1.5812,-1.5846,-1.5825,-1.6371,-1.7695,-1.7667,-1.9495,-2.313,-2.3073,-2.3134,-2.3135,-2.3135,-2.3135,-2.3135,-2.3135,-2.3135,-2.3135,-2.3135,-2.3135,-2.3135,-2.3135,-2.3135,-2.3135,-2.3135,-2.3135,-2.3135,-0.5654,-0.58,-0.5828,-0.5609,-0.6357,-0.6995,-0.6922,-0.6486,-0.727,-1.0475,-1.0963,-1.1937,-1.4494,-1.5383,-1.5832,-1.5832,-1.5832,-1.5168,-1.3644,-1.4155,-1.4167,-1.362,-1.3314,-1.3519,-1.4383,-1.1949,-1.0349,-0.9657,-0.804,-0.6853,-0.5951,-0.6183,-0.6183,-0.5948,-0.6183,-0.6344,-0.6383,-0.6634,-0.6672,-0.6707,-0.8974,-1.0088,0.0,-1.3164,-1.4295,-1.4747,-1.5481,-1.5832,-1.5832,-1.5832,-1.5832,-1.5832,-1.5832,-1.5832,-1.5832,-1.5832,-1.5832,-1.5832,-1.5832,-1.5832,-1.5556,-1.4657,-1.4482,-1.416,-1.2998,-1.2791,-1.2639,-1.2404,-1.2186,-1.1935,-1.1505,-0.9543,-0.8133,-0.8625,-0.8713,-0.8703,-0.8703,-0.8703,-0.8703,-0.8703,-0.8697,-0.8324,-0.7342,-0.9916,-0.9566,-0.4503,-0.7784,-1.0303,-1.1176,-1.4161,-1.581,-1.581,-1.5821,-1.5776,-1.5772,-1.5762,-1.7153,-1.9886,-2.2104,-2.3063,-2.3115,-2.3096,-2.3135,-2.3135,-2.3135,-2.3135,-2.3135,-2.3135,-2.3135,-2.3135,-2.3135,-2.3135,-2.3135,-2.3135,-2.3135,-2.3135,-0.5803,-0.5956,-0.6061,-0.6061,-0.743,-0.8611,-0.8729,-0.7711,-0.8015,-1.0935,-1.1305,-1.1926,-1.3525,-1.4946,-1.5832,-1.5832,-1.5832,-1.523,-1.3799,-1.5065,-1.5217,-1.3787,-1.5078,-1.5832,-1.5832,-1.4222,-1.2583,-1.0956,-0.9424,-0.7825,-0.6338,-0.6338,-0.6338,-0.6338,-0.6338,-0.6424,-0.6652,-0.7168,-0.7073,-0.6982,-0.9379,-1.091,-1.1925,-1.3665,-1.4922,-1.5832,-1.5832,-1.5832,-1.5832,-1.5832,-1.5832,-1.5832,-1.5832,-1.5832,-1.5832,-1.5832,-1.5832,-1.5832,-1.5832,-1.5832,-1.5832,-1.5832,-1.5832,-1.551,-1.4545,-1.4345,-1.4025,-1.3,-1.2476,-1.247,-1.333,-1.0158,-0.7813,-0.8667,-0.8933,-0.8952,-0.9,-0.9005,-0.8908,-0.8702,-0.8689,0.0,-0.5612,-0.593,-0.6099,-0.5582,-1.1075,-1.1891,-0.6025,-1.1338,-1.492,-1.5805,-1.5819,-1.5378,-1.4571,-1.5399,-1.5812,-1.5855,-2.0116,-2.2499,-2.3079,-2.3086,-2.3067,-2.3096,-2.3067,-2.3135,-2.3135,-2.3135,-2.3135,-2.3135,-2.3135,-2.3135,-2.3135,-2.3135,-2.3135,-2.3135,-0.5959,-0.6115,-0.622,-0.622,-0.7513,-0.9078,-1.0388,-1.0319,-1.0828,-1.2713,-1.2974,-1.3635,-1.5223,-1.567,-1.5832,-1.5832,-1.5832,-1.569,-1.5396,-1.5677,-1.5684,-1.5389,-1.5677,-1.5832,-1.5832,-1.4222,-1.2583,-1.0956,-0.9424,-0.7825,-0.6338,-0.6338,-0.6338,-0.6338,-0.6338,-0.6265,-0.621,-0.5969,-0.6787,-0.8292,-1.0457,-1.2005,-1.3247,-1.492,-1.5644,-1.5832,-1.5832,-1.5832,-1.5832,-1.5832,-1.5832,-1.5832,-1.5832,-1.5832,-1.5832,-1.5832,-1.5832,-1.5832,-1.5832,-1.5832,-1.5832,-1.5832,-1.5832,-1.571,-1.551,-1.549,-1.5457,-1.5258,-1.5145,-1.4718,-1.3621,-1.1261,-0.9509,-0.9697,-0.9938,-1.0293,-1.0616,-1.0663,-1.0191,-0.8864,-0.8737,-0.7842,-0.5619,-0.596,-0.625,-0.6173,-0.6797,-0.7174,-0.7126,-0.7701,-1.0405,-1.5665,-1.5812,-1.3269,-0.804,-1.313,-1.5814,-1.5824,-1.6635,-1.9191,-2.3076,-2.3075,-2.3076,-2.3092,-2.3057,-2.3135,-2.3135,-2.3135,-2.3135,-2.3135,-2.3135,-2.3135,-2.3135,-2.3135,-2.3135,-2.3135,-0.6135,-0.621,-0.6539,-0.7327,-0.8781,-1.0359,-1.2037,-1.2968,-1.3501,-1.3387,-1.3387,-1.3671,-1.4488,-1.5263,-1.5832,-1.5832,-1.5832,-1.5832,-1.5832,-1.5832,-1.5832,-1.5832,-1.5832,-1.5832,-1.5832,-1.5071,-1.3495,-1.0956,-1.0229,-0.8655,-0.6338,-0.6338,-0.6412,-0.6648,-0.6734,-0.6566,-0.6136,-0.7191,-0.8023,-0.8915,-1.1615,-1.3128,-1.3818,-1.5233,-1.5832,-1.5832,-1.5832,-1.5832,-1.5832,-1.5832,-1.5832,-1.5832,-1.5832,-1.5832,-1.5832,-1.5832,-1.5832,-1.5832,-1.5832,-1.5832,-1.5832,-1.5832,-1.5832,-1.5832,-1.5832,-1.5832,-1.5832,-1.5832,-1.5832,-1.5363,-1.4047,-1.2152,-1.0899,-1.1144,-1.0614,-1.0526,-1.1555,-1.1707,-1.1912,-1.2356,-0.9446,-0.7368,-0.7165,-0.7338,-0.7397,-0.6982,-0.6641,-0.6982,-0.8065,-1.0123,-1.2623,-1.5729,-1.5776,-1.4322,-1.1296,-1.0988,-1.2542,-1.5844,-1.5787,-1.838,-2.3046,-2.0503,-2.0659,-2.314,-2.3104,-2.3076,-2.3135,-2.3135,-2.3135,-2.3135,-2.3135,-2.3135,-2.3135,-2.3135,-2.3135,-2.3135,-0.6731,-0.656,-0.6957,-0.8781,-1.0164,-1.1614,-1.3129,-1.4782,-1.537,-1.4074,-1.3927,-1.3927,-1.3927,-1.5071,-1.5832,-1.5832,-1.5832,-1.5832,-1.5832,-1.5832,-1.5832,-1.5832,-1.5832,-1.5832,-1.5832,-1.5832,-1.4371,-1.1543,-1.1181,-0.9563,-0.6867,-0.6457,-0.6677,-0.7289,-0.7082,-0.6937,-0.6912,-0.8639,-0.9469,-0.975,-1.2745,-1.407,-1.4459,-1.5439,-1.5832,-1.5832,-1.5832,-1.5832,-1.5832,-1.5832,-1.5832,-1.5832,-1.5832,-1.5832,-1.5832,-1.5832,-1.5832,-1.5832,-1.5832,-1.5832,-1.5832,-1.5832,-1.5832,-1.5832,-1.5832,-1.5832,-1.5832,-1.5832,-1.5832,-1.5457,-1.4151,-1.2981,-1.214,-1.202,-1.1343,-1.1304,-1.2843,-1.3069,-1.3773,-1.5554,-1.1398,-0.8382,-0.8649,-0.8374,-0.807,-0.7787,-0.8699,-0.8985,-0.8201,-1.3004,-1.5798,-1.5798,-1.5826,-1.5762,-1.5831,-1.0808,-1.0842,-1.5785,-1.5798,-1.7822,-2.1377,-1.7559,-1.7879,-2.1599,-2.2626,-2.3094,-2.3135,-2.3135,-2.3135,-2.3135,-2.3135,-2.3135,-2.3135,-2.3135,-2.3135,-2.3135,-0.8133,-0.7343,-0.7392,-1.0264,-1.102,-1.172,-1.3158,-1.4782,-1.571,-1.5563,-1.5556,-1.5556,-1.5556,-1.5697,-1.5832,-1.5832,-1.5832,-1.5832,-1.5832,-1.5832,-1.5832,-1.5832,-1.5832,-1.5832,-1.5832,-1.5832,-1.4939,-1.3219,-1.169,-1.0208,-0.8593,-0.7077,-0.7104,-0.8359,-0.6847,-0.7332,-0.9146,-0.9023,-0.9995,-1.1788,-1.3278,-1.4561,-1.5635,-1.573,-1.5832,-1.5832,-1.5832,-1.5832,-1.5832,-1.5832,-1.5832,-1.5832,-1.5832,-1.5832,-1.5832,-1.5832,-1.5832,-1.5832,-1.5832,-1.5832,-1.5832,-1.5832,-1.5832,-1.5832,-1.5832,-1.5832,-1.5832,-1.5832,-1.5832,-1.5356,-1.3762,-1.373,-1.3266,-1.1462,-1.2622,-1.4142,-1.532,-1.5503,-1.5524,-1.5798,-1.5248,-1.3266,-0.911,-0.735,-0.7134,-0.8519,-1.2621,-1.2501,-0.6843,-1.2415,-1.5835,-1.5805,-1.5826,-1.5831,-1.5814,-1.5239,-1.5245,-1.5798,-1.5841,-1.6053,-1.6441,-1.6026,-1.6042,-1.6729,-2.1185,-2.3094,-2.3135,-2.3135,-2.3135,-2.3135,-2.3135,-2.3135,-2.3135,-2.3135,-2.3135,-2.3135,-0.9897,-0.9606,-0.9875,-1.207,-1.2529,-1.3097,-1.4644,-1.5389,-1.5832,-1.5832,-1.5832,-1.5832,-1.5832,-1.5832,-1.5832,-1.5832,-1.5832,-1.5832,-1.5832,-1.5832,-1.5832,-1.5832,-1.5832,-1.5832,-1.5832,-1.5832,-1.4965,-1.3387,-1.18,-1.0259,-0.8765,-0.8052,-0.8552,-1.002,-0.9763,-0.9602,-0.9625,-1.1263,-1.1864,-1.2042,-1.4172,-1.5343,-1.5832,-1.5832,-1.5832,-1.5832,-1.5832,-1.5832,-1.5832,-1.5832,-1.5832,-1.5832,-1.5832,-1.5832,-1.5832,-1.5832,-1.5832,-1.5832,-1.5832,-1.5832,-1.5832,-1.5832,-1.5832,-1.5832,-1.5832,-1.5832,-1.5832,-1.5832,-1.5832,-1.5563,-1.4946,-1.4166,-1.3707,-1.3896,-1.3738,-1.4176,-1.5604,-1.5812,-1.5759,-1.5763,-1.5841,-1.3563,-0.7838,-1.0129,-1.0684,-0.7504,-0.9937,-1.0847,-0.9201,-1.3353,-1.405,-1.0231,-1.0145,-1.1957,-1.5732,-1.5803,-1.5839,-1.5758,-1.5772,-1.5758,-1.5825,-1.5772,-1.581,-1.6063,-2.0925,-2.3094,-2.3135,-2.3135,-2.3135,-2.3135,-2.3135,-2.3135,-2.3135,-2.3135,-2.3135,-2.3135,-1.157,-1.1369,-1.1756,-1.3787,-1.3738,-1.4032,-1.5556,-1.5832,-1.5832,-1.5832,-1.5832,-1.5832,-1.5832,-1.5832,-1.5832,-1.5832,-1.5832,-1.5832,-1.5832,-1.5832,-1.5832,-1.5832,-1.5832,-1.5832,-1.5832,-1.5832,-1.5243,-1.4087,-1.246,-1.1202,-1.0188,-0.9634,-1.0193,-1.1701,-1.1865,-1.1533,-1.0918,-1.3048,-1.3392,-1.2721,-1.4956,-1.5832,-1.5832,-1.5832,-1.5832,-1.5832,-1.5832,-1.5832,-1.5832,-1.5832,-1.5832,-1.5832,-1.5832,-1.5832,-1.5832,-1.5832,-1.5832,-1.5832,-1.5832,-1.5832,-1.5832,-1.5832,-1.5832,-1.5832,-1.5832,-1.5832,-1.5832,-1.5832,-1.5832,-1.5832,-1.5832,-1.4913,-1.4345,-1.4958,-1.4513,-1.4149,-1.4334,-1.5207,-1.5759,-1.5763,-1.4548,-1.1727,-0.6779,-1.0685,-1.1594,-0.6901,-0.7792,-0.9071,-1.0211,-1.2881,-1.2736,-0.9196,-0.7322,-0.9338,-1.5729,-1.5798,-1.5832,-1.5832,-1.5832,-1.5832,-1.5832,-1.5832,-1.5819,-1.6043,-2.096,-2.3073,-2.3135,-2.3135,-2.3135,-2.3135,-2.3135,-2.3135,-2.3135,-2.3135,-2.3135,-2.3135,-1.3093,-1.2271,-1.2248,-1.5282,-1.4628,-1.4166,-1.5589,-1.5832,-1.5832,-1.5832,-1.5832,-1.5832,-1.5832,-1.5832,-1.5832,-1.5832,-1.5832,-1.5832,-1.5832,-1.5832,-1.5832,-1.5832,-1.5832,-1.5832,-1.5832,-1.5832,-1.5825,-1.5724,-1.4197,-1.3421,-1.3572,-1.1966,-1.2053,-1.3284,-1.2091,-1.2357,-1.3866,-1.3872,-1.3872,-1.3974,-1.5242,-1.5832,-1.5832,-1.5832,-1.5832,-1.5832,-1.5832,-1.5832,-1.5832,-1.5832,-1.5832,-1.5832,-1.5832,-1.5832,-1.5832,-1.5832,-1.5832,-1.5832,-1.5832,-1.5832,-1.5832,-1.5832,-1.5832,-1.5832,-1.5832,-1.5832,-1.5832,-1.5832,-1.5832,-1.5832,-1.5832,-1.5825,-1.5249,-1.3665,-1.4775,-1.4703,-1.147,-1.3764,-1.5765,-1.5784,-1.1657,-0.8142,-0.6457,-0.7372,-0.7839,-0.7158,-0.7849,-0.8352,-0.8408,-1.0062,-1.2509,-1.5572,-0.9601,-0.9375,-1.5722,-1.5798,-1.5832,-1.5832,-1.5832,-1.5832,-1.5832,-1.5832,-1.5819,-1.605,-2.0954,-2.3057,-2.3135,-2.3135,-2.3135,-2.3135,-2.3135,-2.3135,-2.3135,-2.3135,-2.3135,-2.3135,-1.4939,-1.4714,-1.464,-1.5589,-1.5461,-1.524,-1.5717,-1.5832,-1.5832,-1.5832,-1.5832,-1.5832,-1.5832,-1.5832,-1.5832,-1.5832,-1.5832,-1.5832,-1.5832,-1.5832,-1.5832,-1.5832,-1.5832,-1.5832,-1.5832,-1.5832,-1.5832,-1.5832,-1.421,-1.3429,-1.3513,-1.2977,-1.3592,-1.4978,-1.459,-1.4206,-1.3974,-1.4854,-1.4657,-1.3974,-1.5337,-1.5832,-1.5832,-1.5832,-1.5832,-1.5832,-1.5832,-1.5832,-1.5832,-1.5832,-1.5832,-1.5832,-1.5832,-1.5832,-1.5832,-1.5832,-1.5832,-1.5832,-1.5832,-1.5832,-1.5832,-1.5832,-1.5832,-1.5832,-1.5832,-1.5832,-1.5832,-1.5832,-1.5832,-1.5832,-1.5832,-1.5832,-1.567,-1.5097,-1.551,-1.5455,-1.4459,-1.5133,-1.577,-1.5841,-1.0614,-0.8569,-1.24,-1.3102,-1.2003,-0.8899,-0.8935,-0.8721,-0.7998,-1.0389,-1.1199,-0.9944,-1.1794,-1.3722,-1.5826,-1.5798,-1.5832,-1.5832,-1.5832,-1.5832,-1.5832,-1.5832,-1.5792,-1.6061,-2.0942,-2.3062,-2.3104,-2.3115,-2.3135,-2.3135,-2.3135,-2.3135,-2.3135,-2.3135,-2.3135,-2.3135,-1.5832,-1.5832,-1.5832,-1.5832,-1.5832,-1.5832,-1.5832,-1.5832,-1.5832,-1.5832,-1.5832,-1.5832,-1.5832,-1.5832,-1.5832,-1.5832,-1.5832,-1.5832,-1.5832,-1.5832,-1.5832,-1.5832,-1.5832,-1.5832,-1.5832,-1.5832,-1.5832,-1.5832,-1.4795,-1.4339,-1.4339,-1.4339,-1.4814,-1.5832,-1.5832,-1.5343,-1.4657,-1.5439,-1.5337,-1.4657,-1.5439,-1.5832,-1.5832,-1.5832,-1.5832,-1.5832,-1.5832,-1.5832,-1.5832,-1.5832,-1.5832,-1.5832,-1.5832,-1.5832,-1.5832,-1.5832,-1.5832,-1.5832,-1.5832,-1.5832,-1.5832,-1.5832,-1.5832,-1.5832,-1.5832,-1.5832,-1.5832,-1.5832,-1.5832,-1.5832,-1.5832,-1.5832,-1.5832,-1.5832,-1.5832,-1.5772,-1.5798,-1.5817,-1.4917,-1.2486,-1.0837,-1.1393,-1.5385,-1.5196,-1.369,-1.101,-1.049,-1.0051,-0.9387,-1.0624,-1.068,-0.9393,-1.3538,-1.5839,-1.58,-1.5785,-1.5832,-1.5832,-1.5832,-1.5832,-1.5832,-1.5832,-1.5833,-1.5958,-1.9055,-2.1364,-2.3111,-2.3057,-2.3135,-2.3135,-2.3135,-2.3135,-2.3135,-2.3135,-2.3135,-2.3135,-1.5832,-1.5832,-1.5832,-1.5832,-1.5832,-1.5832,-1.5832,-1.5832,-1.5832,-1.5832,-1.5832,-1.5832,-1.5832,-1.5832,-1.5832,-1.5832,-1.5832,-1.5832,-1.5832,-1.5832,-1.5832,-1.5832,-1.5832,-1.5832,-1.5832,-1.5832,-1.5832,-1.5832,-1.5832,-1.5832,-1.5832,-1.5832,-1.5832,-1.5832,-1.5832,-1.5832,-1.5832,-1.5832,-1.5832,-1.5832,-1.5832,-1.5832,-1.5832,-1.5832,-1.5832,-1.5832,-1.5832,-1.5832,-1.5832,-1.5832,-1.5832,-1.5832,-1.5832,-1.5832,-1.5832,-1.5832,-1.5832,-1.5832,-1.5832,-1.5832,-1.5832,-1.5832,-1.5832,-1.5832,-1.5832,-1.5832,-1.5832,-1.5832,-1.5832,-1.5832,-1.5832,-1.5832,-1.5832,-1.5832,-1.5805,-1.5832,-1.5791,-1.5388,-1.2897,-0.6993,-1.1888,-1.577,-1.5777,-1.4286,-1.3298,-1.3261,-1.2459,-1.1996,-1.1996,-1.0874,-1.1161,-1.3115,-1.4923,-1.5836,-1.5832,-1.5832,-1.5832,-1.5832,-1.5832,-1.5832,-1.5832,-1.5832,-1.5839,-1.5765,-1.5831,-1.8576,-2.314,-2.3066,-2.3135,-2.3135,-2.3135,-2.3135,-2.3135,-2.3135,-2.3135,-2.3135,-1.5832,-1.5832,-1.5832,-1.5832,-1.5832,-1.5832,-1.5832,-1.5832,-1.5832,-1.5832,-1.5832,-1.5832,-1.5832,-1.5832,-1.5832,-1.5832,-1.5832,-1.5832,-1.5832,-1.5832,-1.5832,-1.5832,-1.5832,-1.5832,-1.5832,-1.5832,-1.5832,-1.5832,-1.5832,-1.5832,-1.5832,-1.5832,-1.5832,-1.5832,-1.5832,-1.5832,-1.5832,-1.5832,-1.5832,-1.5832,-1.5832,-1.5832,-1.5832,-1.5832,-1.5832,-1.5832,-1.5832,-1.5832,-1.5832,-1.5832,-1.5832,-1.5832,-1.5832,-1.5832,-1.5832,-1.5832,-1.5832,-1.5832,-1.5832,-1.5832,-1.5832,-1.5832,-1.5832,-1.5832,-1.5832,-1.5832,-1.5832,-1.5832,-1.5832,-1.5832,-1.5832,-1.5832,-1.5832,-1.5832,-1.5831,-1.5762,-1.5833,-1.1645,-0.8016,-0.6439,-1.1888,-1.577,-1.5777,-1.5436,-1.4682,-1.3463,-1.3193,-1.3015,-1.3015,-1.2796,-1.2751,-1.3222,-1.4854,-1.5757,-1.5832,-1.5832,-1.5832,-1.5832,-1.5832,-1.5832,-1.5832,-1.5832,-1.5805,-1.5846,-1.5793,-1.8573,-2.3119,-2.3144,-2.3135,-2.3135,-2.3135,-2.3135,-2.3135,-2.3135,-2.3135,-2.3135,-1.5832,-1.5832,-1.5832,-1.5832,-1.5832,-1.5832,-1.5832,-1.5832,-1.5832,-1.5832,-1.5832,-1.5832,-1.5832,-1.5832,-1.5832,-1.5832,-1.5832,-1.5832,-1.5832,-1.5832,-1.5832,-1.5832,-1.5832,-1.5832,-1.5832,-1.5832,-1.5832,-1.5832,-1.5832,-1.5832,-1.5832,-1.5832,-1.5832,-1.5832,-1.5832,-1.5832,-1.5832,-1.5832,-1.5832,-1.5832,-1.5832,-1.5832,-1.5832,-1.5832,-1.5832,-1.5832,-1.5832,-1.5832,-1.5832,-1.5832,-1.5832,-1.5832,-1.5832,-1.5832,-1.5832,-1.5832,-1.5832,-1.5832,-1.5832,-1.5832,-1.5832,-1.5832,-1.5832,-1.5832,-1.5832,-1.5832,-1.5832,-1.5832,-1.5832,-1.5832,-1.5832,-1.5832,-1.5832,-1.5832,-1.5828,-1.5298,-1.3785,-0.9402,-0.7357,-1.0338,-1.3711,-1.5817,-1.5807,-1.5756,-1.5438,-1.46,-1.4501,-1.4501,-1.4501,-1.4501,-1.444,-1.4423,-1.5324,-1.5832,-1.5832,-1.5832,-1.5832,-1.5832,-1.5832,-1.5832,-1.5832,-1.5832,-1.5832,-1.5812,-1.5807,-1.8605,-2.3114,-2.3075,-2.3135,-2.3135,-2.3135,-2.3135,-2.3135,-2.3135,-2.3135,-2.3135,-1.5832,-1.5832,-1.5832,-1.5832,-1.5832,-1.5832,-1.5832,-1.5832,-1.5832,-1.5832,-1.5832,-1.5832,-1.5832,-1.5832,-1.5832,-1.5832,-1.5832,-1.5832,-1.5832,-1.5832,-1.5832,-1.5832,-1.5832,-1.5832,-1.5832,-1.5832,-1.5832,-1.5832,-1.5832,-1.5832,-1.5832,-1.5832,-1.5832,-1.5832,-1.5832,-1.5832,-1.5832,-1.5832,-1.5832,-1.5832,-1.5832,-1.5832,-1.5832,-1.5832,-1.5832,-1.5832,-1.5832,-1.5832,-1.5832,-1.5832,-1.5832,-1.5832,-1.5832,-1.5832,-1.5832,-1.5832,-1.5832,-1.5832,-1.5832,-1.5832,-1.5832,-1.5832,-1.5832,-1.5832,-1.5832,-1.5832,-1.5832,-1.5832,-1.5832,-1.5832,-1.5832,-1.5832,-1.5805,-1.5839,-1.581,-1.486,-1.2103,-0.9454,-0.9767,-1.5147,-1.5791,-1.58,-1.5792,-1.5832,-1.5832,-1.5832,-1.5832,-1.5832,-1.5832,-1.5832,-1.5832,-1.5832,-1.5832,-1.5832,-1.5832,-1.5832,-1.5832,-1.5832,-1.5832,-1.5832,-1.5832,-1.5832,-1.5832,-1.5812,-1.5841,-1.8545,-2.3123,-2.3113,-2.3086,-2.3135,-2.3135,-2.3135,-2.3135,-2.3135,-2.3135,-2.3135,-1.5832,-1.5832,-1.5832,-1.5832,-1.5832,-1.5832,-1.5832,-1.5832,-1.5832,-1.5832,-1.5832,-1.5832,-1.5832,-1.5832,-1.5832,-1.5832,-1.5832,-1.5832,-1.5832,-1.5832,-1.5832,-1.5832,-1.5832,-1.5832,-1.5832,-1.5832,-1.5832,-1.5832,-1.5832,-1.5832,-1.5832,-1.5832,-1.5832,-1.5832,-1.5832,-1.5832,-1.5832,-1.5832,-1.5832,-1.5832,-1.5832,-1.5832,-1.5832,-1.5832,-1.5832,-1.5832,-1.5832,-1.5832,-1.5832,-1.5832,-1.5832,-1.5832,-1.5832,-1.5832,-1.5832,-1.5832,-1.5832,-1.5832,-1.5832,-1.5832,-1.5832,-1.5832,-1.5832,-1.5832,-1.5832,-1.5832,-1.5832,-1.5832,-1.5832,-1.5832,-1.5832,-1.5832,-1.5806,-1.5803,-1.58,-1.5648,-1.5172,-1.4602,-1.4723,-1.5659,-1.579,-1.5752,-1.5825,-1.5832,-1.5832,-1.5832,-1.5832,-1.5832,-1.5832,-1.5832,-1.5832,-1.5832,-1.5832,-1.5832,-1.5832,-1.5832,-1.5832,-1.5832,-1.5832,-1.5832,-1.5832,-1.5832,-1.5832,-1.5818,-1.5798,-1.8596,-2.3133,-2.3108,-2.3144,-2.3135,-2.3135,-2.3135,-2.3135,-2.3135,-2.3135,-2.3135,-1.5832,-1.5832,-1.5832,-1.5832,-1.5832,-1.5832,-1.5832,-1.5832,-1.5832,-1.5832,-1.5832,-1.5832,-1.5832,-1.5832,-1.5832,-1.5832,-1.5832,-1.5832,-1.5832,-1.5832,-1.5832,-1.5832,-1.5832,-1.5832,-1.5832,-1.5832,-1.5832,-1.5832,-1.5832,-1.5832,-1.5832,-1.5832,-1.5832,-1.5832,-1.5832,-1.5832,-1.5832,-1.5832,-1.5832,-1.5832,-1.5832,-1.5832,-1.5832,-1.5832,-1.5832,-1.5832,-1.5832,-1.5832,-1.5832,-1.5832,-1.5832,-1.5832,-1.5832,-1.5832,-1.5832,-1.5832,-1.5832,-1.5832,-1.5832,-1.5832,-1.5832,-1.5832,-1.5832,-1.5832,-1.5832,-1.5832,-1.5832,-1.5832,-1.5832,-1.5832,-1.5832,-1.5832,-1.5779,-1.5791,-1.5803,-1.5839,-1.5765,-1.5758,-1.5838,-1.5756,-1.5799,-1.5832,-1.5832,-1.5832,-1.5832,-1.5832,-1.5832,-1.5832,-1.5832,-1.5832,-1.5832,-1.5832,-1.5832,-1.5832,-1.5832,-1.5832,-1.5832,-1.5832,-1.5832,-1.5832,-1.5832,-1.5832,-1.5832,-1.5818,-1.5832,-1.7864,-2.1272,-2.2574,-2.3347,-2.3841,-2.3841,-2.388,-2.4077,-2.4077,-2.3957,-2.3828,-1.5832,-1.5832,-1.5832,-1.5832,-1.5832,-1.5832,-1.5832,-1.5832,-1.5832,-1.5832,-1.5832,-1.5832,-1.5832,-1.5832,-1.5832,-1.5832,-1.5832,-1.5832,-1.5832,-1.5832,-1.5832,-1.5832,-1.5832,-1.5832,-1.5832,-1.5832,-1.5832,-1.5832,-1.5832,-1.5832,-1.5832,-1.5832,-1.5832,-1.5832,-1.5832,-1.5832,-1.5832,-1.5832,-1.5832,-1.5832,-1.5832,-1.5832,-1.5832,-1.5832,-1.5832,-1.5832,-1.5832,-1.5832,-1.573,-1.5439,-1.5343,-1.5337,-1.4956,-1.486,-1.4956,-1.5242,-1.5343,-1.5248,-1.4956,-1.5146,-1.5242,-1.4956,-1.5146,-1.5343,-1.5343,-1.5146,-1.5051,-1.5635,-1.5534,-1.5439,-1.573,-1.5832,-1.5772,-1.5784,-1.5791,-1.5791,-1.5798,-1.5791,-1.5782,-1.5772,-1.5832,-1.5832,-1.5832,-1.5832,-1.5832,-1.5832,-1.5832,-1.5832,-1.5832,-1.5832,-1.5832,-1.5832,-1.5832,-1.5832,-1.5832,-1.5832,-1.5832,-1.5832,-1.5832,-1.5832,-1.5832,-1.5832,-1.5865,-1.5925,-1.5886,-1.7304,-1.9611,-2.2345,-2.3774,-2.4415,-2.4526,-2.4633,-2.4911,-2.4799,-2.4657,-2.4414,-1.5832,-1.5832,-1.5832,-1.5832,-1.5832,-1.5832,-1.5832,-1.5832,-1.5832,-1.5832,-1.5832,-1.5832,-1.5832,-1.5832,-1.5832,-1.5832,-1.5832,-1.5832,-1.5832,-1.5832,-1.5832,-1.5832,-1.5832,-1.5832,-1.5832,-1.5832,-1.5832,-1.5832,-1.5832,-1.5832,-1.5832,-1.5832,-1.5832,-1.5832,-1.5832,-1.5832,-1.5832,-1.5832,-1.5832,-1.5832,-1.5832,-1.5832,-1.5832,-1.5832,-1.5832,-1.5832,-1.5832,-1.5832,-1.5635,-1.4459,-1.407,-1.3782,-1.2624,-1.2237,-1.2431,-1.3686,-1.407,-1.3776,-1.2528,-1.3108,-1.3782,-1.2528,-1.3108,-1.407,-1.407,-1.3108,-1.2915,-1.5343,-1.4854,-1.4364,-1.554,-1.5832,-1.5779,-1.5805,-1.5805,-1.5798,-1.5819,-1.5805,-1.5782,-1.5772,-1.5832,-1.5832,-1.5832,-1.5832,-1.5832,-1.5832,-1.5832,-1.5832,-1.5832,-1.5832,-1.5832,-1.5832,-1.5832,-1.5832,-1.5832,-1.5832,-1.5832,-1.5832,-1.5832,-1.5832,-1.5832,-1.5832,-1.5979,-1.6239,-1.633,-1.7452,-1.9439,-2.2844,-2.4325,-2.4385,-2.474,-2.4881,-2.4901,-2.4545,-2.4424,-2.4414,-1.5832,-1.5832,-1.5832,-1.5832,-1.5832,-1.5832,-1.5832,-1.5832,-1.5832,-1.5832,-1.5832,-1.5832,-1.5832,-1.5832,-1.5832,-1.5832,-1.5832,-1.5832,-1.5832,-1.5832,-1.5832,-1.5832,-1.5832,-1.5832,-1.5832,-1.5832,-1.5832,-1.5832,-1.5832,-1.5832,-1.5832,-1.5832,-1.5832,-1.5832,-1.5832,-1.5832,-1.5832,-1.5832,-1.5832,-1.5832,-1.5832,-1.5832,-1.5832,-1.5832,-1.5337,-1.4657,-1.4657,-1.4076,-1.3301,-1.2818,-1.2619,-1.2528,-1.2042,-1.1945,-1.1848,-1.1551,-1.1453,-1.1161,-0.9801,-1.1068,-1.2528,-1.2042,-1.2237,-1.2619,-1.2619,-1.2237,-1.2139,-1.3204,-1.3431,-1.3636,-1.4148,-1.5083,-1.5758,-1.5798,-1.5766,-1.5756,-1.584,-1.5773,-1.5825,-1.5812,-1.5832,-1.5832,-1.5832,-1.5832,-1.5832,-1.5832,-1.5832,-1.5832,-1.5832,-1.5832,-1.5832,-1.5832,-1.5832,-1.5832,-1.5832,-1.5832,-1.5832,-1.5832,-1.6019,-1.6106,-1.6112,-1.6293,-1.6433,-1.654,-1.654,-1.7443,-1.8859,-2.1122,-2.2616,-2.3644,-2.4646,-2.5134,-2.5379,-2.5244,-2.5234,-2.5234,-1.5832,-1.5832,-1.5832,-1.5832,-1.5832,-1.5832,-1.5832,-1.5832,-1.5832,-1.5832,-1.5832,-1.5832,-1.5832,-1.5832,-1.5832,-1.5832,-1.5832,-1.5832,-1.5832,-1.5832,-1.5832,-1.5832,-1.5832,-1.5832,-1.5832,-1.5832,-1.5832,-1.5832,-1.5832,-1.5832,-1.5832,-1.5832,-1.5832,-1.5832,-1.5832,-1.5832,-1.5832,-1.5832,-1.5832,-1.5832,-1.5832,-1.5534,-1.5242,-1.5242,-1.437,-1.3295,-1.3295,-1.2721,-1.1853,-1.1458,-1.1268,-1.1268,-1.0779,-1.097,-1.1068,-0.9702,-0.9706,-0.9706,-0.8333,-0.9312,-1.0681,-1.0681,-1.097,-1.1365,-1.1473,-1.1077,-1.0867,-1.1341,-1.1556,-1.1853,-1.2689,-1.4461,-1.5817,-1.5763,-1.5772,-1.5758,-1.5787,-1.5819,-1.5832,-1.5832,-1.5832,-1.5832,-1.5832,-1.5832,-1.5832,-1.5832,-1.5832,-1.5832,-1.5832,-1.5832,-1.5832,-1.5832,-1.5832,-1.5832,-1.5832,-1.5832,-1.5879,-1.5972,-1.6179,-1.6319,-1.642,-1.6613,-1.676,-1.6847,-1.6847,-1.7587,-1.8962,-1.9933,-2.145,-2.3277,-2.4275,-2.5064,-2.5742,-2.5742,-2.5742,-2.5742,-1.5832,-1.5832,-1.5832,-1.5832,-1.5832,-1.5832,-1.5832,-1.5832,-1.5832,-1.5832,-1.5832,-1.5832,-1.5832,-1.5832,-1.5832,-1.5832,-1.5832,-1.5832,-1.5832,-1.5832,-1.5832,-1.5832,-1.5832,-1.5832,-1.5832,-1.5832,-1.5832,-1.5832,-1.5832,-1.5832,-1.5832,-1.5832,-1.5832,-1.5832,-1.5832,-1.5832,-1.5832,-1.5832,-1.5832,-1.5832,-1.5825,-1.5045,-1.3878,-1.3872,-1.3006,-1.1848,-1.1848,-1.1853,-1.1653,-1.0386,-0.9998,-0.9702,-0.8432,-0.892,-0.9706,-0.8432,-0.892,-0.9706,-0.8333,-0.8038,-0.8038,-0.8038,-0.9019,-1.01,-1.0516,-0.9229,-0.8517,-1.0227,-0.9229,-0.875,-1.1346,-1.3957,-1.5745,-1.5717,-1.5794,-1.5761,-1.5845,-1.5832,-1.5832,-1.5832,-1.5832,-1.5832,-1.5832,-1.5832,-1.5832,-1.5832,-1.5832,-1.5832,-1.5832,-1.5832,-1.5832,-1.5832,-1.5832,-1.5832,-1.5832,-1.5832,-1.5979,-1.6273,-1.6279,-1.6433,-1.6707,-1.6714,-1.6874,-1.7154,-1.7154,-1.8121,-1.9627,-1.9627,-2.1253,-2.3692,-2.3692,-2.451,-2.5742,-2.5742,-2.5742,-2.5742,-1.5832,-1.5832,-1.5832,-1.5832,-1.5832,-1.5832,-1.5832,-1.5832,-1.5832,-1.5832,-1.5832,-1.5832,-1.5832,-1.5832,-1.5832,-1.5832,-1.5832,-1.5832,-1.5832,-1.5832,-1.5832,-1.5832,-1.5832,-1.5832,-1.5832,-1.5832,-1.5832,-1.5832,-1.5832,-1.5832,-1.5832,-1.5832,-1.5832,-1.5832,-1.5832,-1.5832,-1.5832,-1.5832,-1.5832,-1.573,-1.4854,-1.4262,-1.3776,-1.2813,-1.1653,-1.0583,-1.0583,-0.9998,-0.9118,-0.8726,-0.8627,-0.8531,-0.8137,-0.8233,-0.8531,-0.8137,-0.8233,-0.8528,-0.8137,-0.8038,-0.8038,-0.8038,-0.8333,-0.863,-0.8733,-0.8336,-0.8134,-0.8707,-0.8411,-0.8202,-0.9053,-0.9763,-1.0347,-1.0369,-1.3403,-1.5787,-1.5754,-1.5783,-1.5832,-1.5832,-1.5832,-1.5832,-1.5832,-1.5832,-1.5832,-1.5832,-1.5832,-1.5832,-1.5832,-1.5832,-1.5832,-1.5832,-1.6032,-1.6139,-1.6139,-1.6139,-1.6186,-1.6279,-1.6687,-1.6934,-1.7021,-1.7228,-1.7368,-1.7455,-1.7455,-1.7705,-1.8304,-1.922,-2.0641,-2.2366,-2.3285,-2.451,-2.5742,-2.5742,-2.5742,-2.5742,-1.5832,-1.5832,-1.5832,-1.5832,-1.5832,-1.5832,-1.5832,-1.5832,-1.5832,-1.5832,-1.5832,-1.5832,-1.5832,-1.5832,-1.5832,-1.5832,-1.5832,-1.5832,-1.5832,-1.5832,-1.5832,-1.5832,-1.5832,-1.5832,-1.5832,-1.5832,-1.5832,-1.5832,-1.5832,-1.5832,-1.5832,-1.5832,-1.5832,-1.5832,-1.5832,-1.5832,-1.5832,-1.5832,-1.5534,-1.4949,-1.4166,-1.3295,-1.2226,-1.1458,-1.0391,-0.9217,-0.9217,-0.8726,-0.8038,-0.8038,-0.8038,-0.8038,-0.8038,-0.8038,-0.8038,-0.8038,-0.8038,-0.8038,-0.8038,-0.8038,-0.8038,-0.8038,-0.8038,-0.8038,-0.8038,-0.8038,-0.8038,-0.8038,-0.8038,-0.8028,-0.7994,-0.7987,-0.797,-0.801,-1.0604,-1.2727,-1.2694,-1.3578,-1.4364,-1.4734,-1.4734,-1.5032,-1.573,-1.5832,-1.5832,-1.5832,-1.5832,-1.5832,-1.5832,-1.5832,-1.5885,-1.5999,-1.6179,-1.6326,-1.644,-1.656,-1.662,-1.6627,-1.6981,-1.7215,-1.7328,-1.7502,-1.7582,-1.7582,-1.8199,-1.8401,-1.8506,-1.9826,-2.1245,-2.2567,-2.3384,-2.451,-2.5742,-2.5742,-2.5742,-2.5742,-1.5832,-1.5832,-1.5832,-1.5832,-1.5832,-1.5832,-1.5832,-1.5832,-1.5832,-1.5832,-1.5832,-1.5832,-1.5832,-1.5832,-1.5832,-1.5832,-1.5832,-1.5832,-1.5832,-1.5832,-1.5832,-1.5832,-1.5832,-1.5832,-1.5832,-1.5832,-1.5832,-1.5832,-1.5832,-1.5832,-1.5832,-1.5832,-1.5832,-1.5832,-1.5832,-1.5832,-1.5832,-1.5832,-1.5045,-1.3872,-1.3776,-1.2226,-0.9998,-0.9899,-0.9019,-0.8038,-0.8038,-0.8038,-0.8038,-0.8038,-0.8038,-0.8038,-0.8038,-0.8038,-0.8038,-0.8038,-0.8038,-0.8038,-0.8038,-0.8038,-0.8038,-0.8038,-0.8038,-0.8038,-0.8038,-0.8038,-0.8038,-0.8038,-0.8038,-0.8038,-0.8038,-0.8038,-0.8021,-0.797,-0.7957,-0.8034,-0.7983,-1.0197,-1.2119,-1.2962,-1.3149,-1.3939,-1.5432,-1.573,-1.5832,-1.5832,-1.5832,-1.5832,-1.5832,-1.5852,-1.5992,-1.6266,-1.6326,-1.648,-1.674,-1.7041,-1.7174,-1.7148,-1.7174,-1.7328,-1.7582,-1.7582,-1.7687,-1.7891,-1.9117,-1.9627,-1.993,-2.1143,-2.2458,-2.3692,-2.3692,-2.451,-2.5742,-2.5742,-2.5742,-2.5742,-1.5832,-1.5832,-1.5832,-1.5832,-1.5832,-1.5832,-1.5832,-1.5832,-1.5832,-1.5832,-1.5832,-1.5832,-1.5832,-1.5832,-1.5832,-1.5832,-1.5832,-1.5832,-1.5832,-1.5832,-1.5832,-1.5832,-1.5832,-1.5832,-1.5832,-1.5832,-1.5832,-1.5832,-1.5832,-1.5832,-1.5832,-1.5832,-1.5832,-1.5832,-1.5832,-1.5832,-1.5832,-1.5832,-1.5045,-1.3782,-1.2716,-1.1361,-0.9899,-0.8825,-0.8237,-0.8038,-0.8038,-0.8038,-0.8038,-0.8038,-0.8038,-0.8038,-0.8038,-0.8038,-0.8038,-0.8038,-0.8038,-0.8038,-0.8038,-0.8038,-0.8038,-0.8038,-0.8038,-0.8038,-0.8038,-0.8038,-0.8038,-0.8038,-0.8038,-0.8038,-0.8038,-0.8038,-0.8035,-0.8021,-0.7984,-0.8048,-0.8034,-0.962,-1.1215,-1.2124,-1.3091,-1.3866,-1.4268,-1.5242,-1.5832,-1.5832,-1.5832,-1.5832,-1.5832,-1.6052,-1.6206,-1.6273,-1.672,-1.6987,-1.7054,-1.7341,-1.7375,-1.7154,-1.7382,-1.7522,-1.7582,-1.7582,-1.8199,-1.922,-1.942,-2.0238,-2.1245,-2.155,-2.2458,-2.3692,-2.3692,-2.451,-2.5742,-2.5742,-2.5742,-2.5742,-1.5832,-1.5832,-1.5832,-1.5832,-1.5832,-1.5832,-1.5832,-1.5832,-1.5832,-1.5832,-1.5832,-1.5832,-1.5832,-1.5832,-1.5832,-1.5832,-1.5832,-1.5832,-1.5832,-1.5832,-1.5832,-1.5832,-1.5832,-1.5832,-1.5832,-1.5832,-1.5832,-1.5832,-1.5832,-1.5832,-1.5832,-1.5832,-1.5832,-1.5737,-1.5146,-1.5242,-1.573,-1.4472,-1.3596,-1.2813,-1.1556,-1.0194,-0.892,-0.8233,-0.8038,-0.8038,-0.8038,-0.8038,-0.8038,-0.8038,-0.8038,-0.8038,-0.8038,-0.8038,-0.8038,-0.8038,-0.8038,-0.8038,-0.8038,-0.8038,-0.8038,-0.8038,-0.8038,-0.8038,-0.8038,-0.8038,-0.8038,-0.8038,-0.8038,-0.8038,-0.8038,-0.8038,-0.8038,-0.8038,-0.8014,-0.7994,-0.7994,-0.8784,-0.9776,-1.0872,-1.1648,-1.2328,-1.2909,-1.4172,-1.4854,-1.4854,-1.5439,-1.5892,-1.6032,-1.6186,-1.64,-1.668,-1.6987,-1.7215,-1.7355,-1.7508,-1.7508,-1.7361,-1.7508,-1.7582,-1.7582,-1.7582,-1.7996,-1.8708,-2.0033,-2.1041,-2.1752,-2.3076,-2.3998,-2.4609,-2.4609,-2.5118,-2.5742,-2.5742,-2.5742,-2.5742,-1.5832,-1.5832,-1.5832,-1.5832,-1.5832,-1.5832,-1.5832,-1.5832,-1.5832,-1.5832,-1.5832,-1.5832,-1.5832,-1.5832,-1.5832,-1.5832,-1.5832,-1.5832,-1.5832,-1.5832,-1.5832,-1.5832,-1.5832,-1.5832,-1.5832,-1.5832,-1.5832,-1.5832,-1.5832,-1.5832,-1.5832,-1.5832,-1.5832,-1.573,-1.4459,-1.4465,-1.5343,-1.2915,-1.175,-1.1458,-1.0391,-0.9217,-0.8038,-0.8038,-0.8038,-0.8038,-0.8038,-0.8038,-0.8038,-0.8038,-0.8038,-0.8038,-0.8038,-0.8038,-0.8038,-0.8038,-0.8038,-0.8038,-0.8038,-0.8038,-0.8038,-0.8038,-0.8038,-0.8038,-0.8038,-0.8038,-0.8038,-0.8038,-0.8038,-0.8038,-0.8038,-0.8038,-0.8038,-0.8038,-0.8038,-0.8038,-0.8038,-0.8038,-0.8432,-0.9509,-0.9899,-1.0485,-1.175,-1.2915,-1.3584,-1.3584,-1.4604,-1.5416,-1.5953,-1.6065,-1.644,-1.7134,-1.6982,-1.712,-1.7582,-1.7364,-1.7364,-1.7582,-1.7582,-1.7582,-1.7582,-1.7582,-1.7681,-1.8094,-2.0633,-2.1853,-2.2257,-2.4716,-2.5742,-2.5742,-2.5742,-2.5742,-2.5742,-2.5742,-2.5742,-2.5742,-1.5832,-1.5832,-1.5832,-1.5832,-1.5832,-1.5832,-1.5832,-1.5832,-1.5832,-1.5832,-1.5832,-1.5832,-1.5832,-1.5832,-1.5832,-1.5832,-1.5832,-1.5832,-1.5832,-1.5832,-1.5832,-1.5832,-1.5832,-1.5832,-1.5832,-1.5832,-1.5832,-1.5832,-1.5832,-1.5832,-1.5832,-1.5832,-1.5832,-1.573,-1.4459,-1.3974,-1.407,-1.2528,-1.1268,-1.0194,-1.0096,-0.9217,-0.8038,-0.8038,-0.8038,-0.8038,-0.8038,-0.8038,-0.8038,-0.8038,-0.8038,-0.8038,-0.8038,-0.8038,-0.8038,-0.8038,-0.8038,-0.8038,-0.8038,-0.8038,-0.8038,-0.8038,-0.8038,-0.8038,-0.8038,-0.8038,-0.8038,-0.8038,-0.8038,-0.8038,-0.8038,-0.8038,-0.8038,-0.8038,-0.8038,-0.8038,-0.8038,-0.8038,-0.8038,-0.8237,-0.9316,-1.0485,-1.175,-1.2042,-1.2139,-1.2139,-1.2511,-1.3226,-1.4457,-1.4993,-1.5803,-1.7148,-1.6212,-1.6243,-1.7582,-1.628,-1.6387,-1.7582,-1.7582,-1.7582,-1.7582,-1.7582,-1.8199,-1.942,-2.1041,-2.2357,-2.3583,-2.5118,-2.5742,-2.5742,-2.5742,-2.5742,-2.5742,-2.5742,-2.5742,-2.5742,-1.5832,-1.5832,-1.5832,-1.5832,-1.5832,-1.5832,-1.5832,-1.5832,-1.5832,-1.5832,-1.5832,-1.5832,-1.5832,-1.5832,-1.5534,-1.4752,-1.4752,-1.4459,-1.3692,-1.3596,-1.3596,-1.3596,-1.3596,-1.3596,-1.3596,-1.3596,-1.3596,-1.3596,-1.437,-1.514,-1.5825,-1.5045,-1.4752,-1.4657,-1.3397,-1.2818,-1.2619,-1.0578,-0.9801,-0.9899,-0.9217,-0.8531,-0.8038,-0.8038,-0.8038,-0.8038,-0.8038,-0.8038,-0.8038,-0.8038,-0.8038,-0.8038,-0.8038,-0.8038,-0.8038,-0.8038,-0.8038,-0.8038,-0.8038,-0.8038,-0.8038,-0.8038,-0.8038,-0.8038,-0.8038,-0.8038,-0.8038,-0.8038,-0.8038,-0.8038,-0.8038,-0.8038,-0.8038,-0.8038,-0.8038,-0.8038,-0.8038,-0.8038,-0.8038,-0.8038,-0.8531,-0.9118,-0.9702,-1.0386,-1.0824,-1.0929,-1.1715,-1.2576,-1.3443,-1.3658,-1.4151,-1.5036,-1.5252,-1.5737,-1.6387,-1.6499,-1.6935,-1.7582,-1.7582,-1.7582,-1.7582,-1.7582,-1.7884,-1.861,-1.993,-2.0845,-2.1558,-2.2876,-2.3484,-2.3583,-2.4304,-2.502,-2.5742,-2.5742,-2.5742,-2.5742]}]]